Date StartTime U_cm/s V_cm/s W_cm/s Ustd_cm/s Vstd_cm/s Wstd_cm/s Uvar_(cm/s)^2 Vvar_(cm/s)^2 Wvar_(cm/s)^2 KE_(m/s)^2 TurbulentKE_(m/s)^2 HorizWindSpeed_cm/s FrictionSpeec_cm/s DragCoef SpeedOfSound_m/s SonicTemperature_C Pressure_mb 
11/09/2014  00:00:00     -102.181      -39.558      -15.032        8.217       10.566        7.670       67.525      111.638       58.832        0.623        0.012      109.571        3.345        0.001      336.676        8.140      866.035
11/09/2014  00:01:00      -99.361      -39.055      -16.608       11.695        9.332       12.038      136.763       87.084      144.912        0.602        0.018      106.761        7.813        0.005      336.610        8.028      866.041
11/09/2014  00:02:00     -109.355      -47.558      -11.340       10.926       13.614       11.030      119.377      185.338      121.660        0.739        0.021      119.249        7.139        0.004      336.573        7.968      866.040
11/09/2014  00:03:00     -116.612      -48.674      -23.619       17.069       12.872       13.210      291.358      165.697      174.500        0.858        0.032      126.363       11.066        0.008      336.518        7.874      866.034
11/09/2014  00:04:00      -90.066      -35.908      -11.578       21.485       25.494       15.650      461.615      649.923      244.927        0.545        0.068       96.960       11.125        0.013      336.478        7.807      866.043
11/09/2014  00:05:00      -88.440      -20.829       -7.081       24.700       26.397       18.374      610.113      696.810      337.617        0.497        0.082       90.860       12.365        0.019      336.470        7.794      866.043
11/09/2014  00:06:00     -117.147        9.591      -12.671       28.575       19.463       16.986      816.533      378.793      288.540        0.773        0.074      117.539       13.475        0.013      336.487        7.823      866.037
11/09/2014  00:07:00      -90.881       -8.791      -14.653       17.805       21.985       12.881      317.008      483.322      165.933        0.476        0.048       91.306        9.937        0.012      336.491        7.828      866.033
11/09/2014  00:08:00      -69.643      -26.325       -7.599       29.703       21.533       13.938      882.282      463.672      194.255        0.357        0.077       74.453       14.977        0.040      336.488        7.824      866.027
11/09/2014  00:09:00      -58.288      -23.382      -10.698       17.186       18.716       11.255      295.344      350.291      126.685        0.242        0.039       62.802        8.498        0.018      336.517        7.873      866.026
11/09/2014  00:10:00      -68.869      -21.362      -10.851       21.998       17.014       12.880      483.911      289.482      165.903        0.313        0.047       72.106       10.701        0.022      336.569        7.961      866.032
11/09/2014  00:11:00      -59.871      -39.767       -7.753       18.307       14.510       11.897      335.163      210.547      141.544        0.296        0.034       71.875        7.891        0.012      336.608        8.026      866.025
11/09/2014  00:12:00      -47.099      -35.037       -7.130       23.980       15.960       19.963      575.048      254.711      398.522        0.236        0.061       58.701       17.125        0.085      336.579        7.977      866.020
11/09/2014  00:13:00      -51.190      -23.971       -9.752       24.836       16.780       15.690      616.811      281.582      246.174        0.222        0.057       56.525       11.963        0.045      336.649        8.093      866.014
11/09/2014  00:14:00        0.839      -15.576       10.951       17.761       19.398       17.102      315.454      376.276      292.470        0.067        0.049       15.599        8.376        0.288      336.580        7.979      866.015
11/09/2014  00:15:00      -65.268      -31.016      -10.312       24.429       19.049       21.380      596.788      362.861      457.104        0.337        0.071       72.262       12.001        0.028      336.643        8.083      866.007
11/09/2014  00:16:00      -84.807      -28.441      -14.223       12.956       14.713       10.321      167.849      216.481      106.528        0.435        0.025       89.449        5.564        0.004      336.556        7.937      865.999
11/09/2014  00:17:00     -107.058      -14.839      -15.914       13.805       11.411       10.216      190.583      130.207      104.364        0.618        0.021      108.082        5.905        0.003      336.552        7.932      866.002
11/09/2014  00:18:00     -101.598      -27.452      -15.649        8.273       10.748        8.563       68.435      115.524       73.328        0.579        0.013      105.242        6.558        0.004      336.531        7.895      865.998
11/09/2014  00:19:00      -96.458      -26.716      -15.176       12.016       12.926        7.689      144.372      167.074       59.127        0.531        0.019      100.089        4.614        0.002      336.551        7.929      866.019
11/09/2014  00:20:00     -106.209      -24.318      -15.118       10.472       11.524        8.458      109.666      132.801       71.540        0.621        0.016      108.957        1.953        0.000      336.596        8.006      866.022
11/09/2014  00:21:00      -99.940      -32.772      -12.849       12.664        8.736        7.295      160.384       76.313       53.219        0.576        0.014      105.176        5.711        0.003      336.586        7.989      866.013
11/09/2014  00:22:00     -104.565      -59.933       -9.065       13.365       12.762       10.661      178.633      162.873      113.663        0.753        0.023      120.523        6.906        0.003      336.713        8.202      865.999
11/09/2014  00:23:00      -81.262      -54.980       -4.613       14.112       11.458        9.329      199.150      131.281       87.030        0.503        0.021       98.114        5.730        0.003      336.659        8.111      865.995
11/09/2014  00:24:00      -65.484      -48.877      -10.676       16.596       11.518       12.270      275.424      132.658      150.549        0.367        0.028       81.714        5.496        0.005      336.712        8.199      866.004
11/09/2014  00:25:00      -74.484      -28.256      -12.843       11.003        9.822        6.701      121.073       96.478       44.904        0.339        0.013       79.664        3.647        0.002      336.653        8.100      866.002
11/09/2014  00:26:00      -87.651      -38.518      -12.369        9.576       13.376        6.985       91.704      178.913       48.794        0.482        0.016       95.741        4.954        0.003      336.642        8.082      865.995
11/09/2014  00:27:00      -94.353      -42.996       -9.502       12.793       12.851        5.996      163.668      165.139       35.953        0.560        0.018      103.688        3.080        0.001      336.615        8.036      865.995
11/09/2014  00:28:00     -106.847      -27.897      -13.782       14.455       13.072       12.006      208.950      170.888      144.147        0.645        0.026      110.429        8.301        0.006      336.625        8.055      866.007
11/09/2014  00:29:00     -116.216      -22.613      -11.501       14.704       14.852       13.035      216.196      220.581      169.899        0.738        0.030      118.396        7.427        0.004      336.555        7.935      866.011
11/09/2014  00:30:00     -109.881      -27.384      -12.475       16.452       15.246       12.701      270.660      232.448      161.324        0.682        0.033      113.241        8.710        0.006      336.527        7.889      866.004
11/09/2014  00:31:00     -107.642      -34.066       -3.634       21.876       14.006       10.222      478.547      196.173      104.491        0.677        0.039      112.904        8.701        0.006      336.518        7.874      865.995
11/09/2014  00:32:00     -113.589      -39.285       -6.780       15.649       17.017       10.785      244.884      289.583      116.308        0.757        0.033      120.191        9.302        0.006      336.473        7.798      865.983
11/09/2014  00:33:00     -112.794      -45.975       -8.295        9.905       14.502        7.363       98.105      210.297       54.212        0.763        0.018      121.804        5.202        0.002      336.433        7.731      865.984
11/09/2014  00:34:00     -114.543      -38.335       -8.492        9.737       12.713        7.042       94.818      161.624       49.595        0.748        0.015      120.788        4.970        0.002      336.459        7.776      865.980
11/09/2014  00:35:00     -109.099      -24.069       -8.070       26.327       12.476       14.162      693.097      155.660      200.565        0.680        0.052      111.723       14.446        0.017      336.468        7.789      865.974
11/09/2014  00:36:00     -116.611      -19.299      -15.125       22.116       13.620       13.331      489.103      185.494      177.728        0.753        0.043      118.197       11.253        0.009      336.466        7.788      865.963
11/09/2014  00:37:00      -73.507      -31.986       -5.001       16.960       11.219       11.223      287.648      125.863      125.962        0.350        0.027       80.165        8.394        0.011      336.514        7.867      865.951
11/09/2014  00:38:00      -85.576      -30.209       -7.209        9.088       10.179        9.485       82.585      103.611       89.964        0.428        0.014       90.752        4.471        0.002      336.566        7.956      865.942
11/09/2014  00:39:00      -97.947      -19.120       -7.985       17.158       14.421        8.850      294.398      207.961       78.319        0.530        0.029       99.795        7.443        0.006      336.543        7.917      865.921
11/09/2014  00:40:00      -87.884      -34.513       -6.555       19.128       12.669       10.826      365.871      160.494      117.209        0.480        0.032       94.418       11.074        0.014      336.523        7.882      865.906
11/09/2014  00:41:00      -74.722      -34.454       -4.406       13.882       13.750        9.021      192.698      189.056       81.383        0.363        0.023       82.283        8.864        0.012      336.499        7.843      865.887
11/09/2014  00:42:00      -46.463      -33.611        3.605       21.715        9.970       13.355      471.553       99.396      178.369        0.203        0.037       57.345       14.589        0.065      336.478        7.807      865.884
11/09/2014  00:43:00      -29.360      -25.354       -8.044       23.701       13.071        9.596      561.731      170.861       92.076        0.120        0.041       38.793        5.918        0.023      336.524        7.884      865.870
11/09/2014  00:44:00      -57.020      -38.672       -5.001       26.027       16.933       11.481      677.393      286.724      131.808        0.293        0.055       68.896       13.459        0.038      336.520        7.877      865.853
11/09/2014  00:45:00      -70.966      -37.441       -5.355       19.740       15.780       10.605      389.669      249.012      112.474        0.361        0.038       80.237        5.834        0.005      336.502        7.846      865.831
11/09/2014  00:46:00      -46.351      -30.862        0.002       28.416       17.808       10.517      807.490      317.118      110.612        0.217        0.062       55.686       13.289        0.057      336.449        7.759      865.807
11/09/2014  00:47:00       -7.343      -14.262        6.680       15.146       12.983       10.150      229.397      168.556      103.032        0.040        0.025       16.042        9.360        0.340      336.442        7.745      865.801
11/09/2014  00:48:00      -28.869      -22.436        7.252       17.538        9.743        8.157      307.573       94.936       66.538        0.093        0.023       36.562        7.916        0.047      336.459        7.774      865.797
11/09/2014  00:49:00      -68.852      -40.469       -5.259       24.691       16.542        9.597      609.623      273.626       92.093        0.369        0.049       79.864       10.004        0.016      336.412        7.697      865.788
11/09/2014  00:50:00      -75.341      -42.940       -3.751       35.665       15.715       15.799     1271.976      246.953      249.622        0.465        0.088       86.719       10.126        0.014      336.315        7.534      865.778
11/09/2014  00:51:00      -63.904      -57.017       -1.690       32.993       25.310       17.407     1088.569      640.593      302.994        0.468        0.102       85.643       17.928        0.044      336.415        7.701      865.768
11/09/2014  00:52:00      -72.638      -48.765        1.247       34.589       22.408       18.358     1196.386      502.125      337.018        0.485        0.102       87.489       21.829        0.062      336.348        7.590      865.761
11/09/2014  00:53:00      -80.227      -59.494       -3.766       27.530       19.975       15.579      757.925      398.987      242.700        0.569        0.070       99.879       11.286        0.013      336.345        7.584      865.760
11/09/2014  00:54:00      -70.233      -59.513        1.241       37.953       29.143       20.973     1440.400      849.299      439.869        0.560        0.136       92.057       19.891        0.047      336.284        7.482      865.762
11/09/2014  00:55:00      -72.516      -67.256        5.667       51.489       31.908       24.558     2651.099     1018.103      603.083        0.704        0.214       98.904       28.766        0.085      336.303        7.514      865.756
11/09/2014  00:56:00     -105.090      -68.128        1.740       29.972       26.001       20.898      898.326      676.063      436.736        0.885        0.101      125.241       15.986        0.016      336.388        7.656      865.750
11/09/2014  00:57:00     -106.670      -65.392       -2.385       31.895       24.141       17.425     1017.315      582.798      303.619        0.878        0.095      125.119        8.338        0.004      336.419        7.707      865.739
11/09/2014  00:58:00     -117.986      -44.427       -7.335       12.999       14.693       10.958      168.965      215.894      120.068        0.823        0.025      126.073        4.591        0.001      336.326        7.552      865.721
11/09/2014  00:59:00     -103.442      -41.749       -0.629       17.327       16.924       13.238      300.213      286.418      175.241        0.660        0.038      111.550        9.744        0.008      336.272        7.462      865.706
11/09/2014  01:00:00      -96.430      -49.739        2.807       33.793       22.113       16.283     1141.939      488.973      265.126        0.684        0.095      108.503       16.948        0.024      336.307        7.521      865.690
11/09/2014  01:01:00      -80.228      -41.412        7.594       36.086       24.357       20.589     1302.181      593.245      423.891        0.526        0.116       90.285       20.204        0.050      336.274        7.466      865.675
11/09/2014  01:02:00      -80.237      -15.742        1.290       31.405       24.772       15.750      986.272      613.633      248.076        0.427        0.092       81.767       14.805        0.033      336.186        7.318      865.658
11/09/2014  01:03:00     -101.257      -31.259       -1.782       19.810       16.884       11.423      392.442      285.063      130.488        0.602        0.040      105.972        8.343        0.006      336.242        7.411      865.638
11/09/2014  01:04:00     -106.511      -30.352       -2.505       31.052       22.722       13.426      964.235      516.307      180.268        0.697        0.083      110.751        9.949        0.008      336.266        7.452      865.624
11/09/2014  01:05:00      -66.891      -32.743        2.094       31.047       19.904       14.684      963.916      396.184      215.631        0.356        0.079       74.475       12.502        0.028      336.230        7.393      865.625
11/09/2014  01:06:00      -81.715      -32.626        0.098       19.727       21.445       12.148      389.136      459.895      147.584        0.437        0.050       87.987        9.251        0.011      336.243        7.414      865.613
11/09/2014  01:07:00      -77.393      -28.055        4.972       23.891       16.703       13.715      570.789      278.986      188.100        0.392        0.052       82.321       13.836        0.028      336.208        7.355      865.594
11/09/2014  01:08:00      -55.778      -24.906        4.350       28.320       18.247       14.206      802.010      332.967      201.822        0.254        0.067       61.086        9.844        0.026      336.265        7.451      865.584
11/09/2014  01:09:00     -106.794      -41.359       -2.360       17.232       15.433       11.192      296.952      238.189      125.255        0.689        0.033      114.523        8.139        0.005      336.290        7.493      865.571
11/09/2014  01:10:00      -79.969      -48.943        1.140       19.760       19.647       13.894      390.462      385.990      193.037        0.488        0.048       93.758        9.962        0.011      336.226        7.386      865.573
11/09/2014  01:11:00      -92.570      -38.044       -3.692       13.977       13.117        7.774      195.366      172.052       60.433        0.523        0.021      100.082        6.585        0.004      336.300        7.508      865.573
11/09/2014  01:12:00     -101.767      -21.454      -11.727       21.965       12.293       10.957      482.451      151.108      120.060        0.585        0.038      104.003       11.927        0.013      336.359        7.608      865.569
11/09/2014  01:13:00      -98.799      -20.049       -6.611       16.557       14.327       13.076      274.142      205.271      170.979        0.543        0.033      100.813        9.638        0.009      336.317        7.536      865.555
11/09/2014  01:14:00      -99.253      -19.592       -5.680       19.882       11.978       13.327      395.293      143.462      177.609        0.549        0.036      101.168       12.551        0.015      336.256        7.437      865.549
11/09/2014  01:15:00      -86.217      -16.838       -6.810       19.562       15.982       14.628      382.661      255.429      213.966        0.431        0.043       87.846       12.595        0.021      336.264        7.449      865.541
11/09/2014  01:16:00     -104.683      -10.137      -15.301       15.573       11.265       12.659      242.507      126.905      160.263        0.591        0.026      105.173        7.123        0.005      336.229        7.390      865.528
11/09/2014  01:17:00     -103.439       -7.524      -14.034        9.477        8.792        6.601       89.816       77.299       43.575        0.558        0.011      103.712        3.300        0.001      336.258        7.440      865.509
11/09/2014  01:18:00      -95.255      -18.044      -14.738        7.840       10.114        6.427       61.470      102.298       41.307        0.491        0.010       96.949        3.134        0.001      336.273        7.464      865.490
11/09/2014  01:19:00      -70.333      -23.502      -14.457       16.958       13.131        6.150      287.578      172.420       37.823        0.310        0.025       74.156        6.971        0.009      336.340        7.577      865.482
11/09/2014  01:20:00      -65.902      -35.378      -15.251       24.964       16.305       10.888      623.217      265.841      118.541        0.342        0.050       74.797        8.343        0.012      336.141        7.243      865.496
11/09/2014  01:21:00      -84.887      -40.109      -11.525       12.397       17.290        9.447      153.687      298.942       89.240        0.474        0.027       93.886        6.738        0.005      335.987        6.986      865.508
11/09/2014  01:22:00      -98.604      -17.841      -17.188       27.649       25.830       16.916      764.468      667.209      286.163        0.603        0.086      100.205       13.683        0.019      335.947        6.920      865.514
11/09/2014  01:23:00      -67.769      -22.179       -4.072       22.832       19.350       12.571      521.287      374.434      158.027        0.308        0.053       71.306        9.130        0.016      335.889        6.822      865.514
11/09/2014  01:24:00     -103.350       -3.577      -13.646       26.889       21.963       14.548      723.016      482.394      211.640        0.615        0.071      103.412       14.306        0.019      335.941        6.910      865.507
11/09/2014  01:25:00      -76.266      -18.635       -6.547       28.530       21.019       13.718      813.948      441.807      188.175        0.383        0.072       78.510       13.861        0.031      335.992        6.995      865.507
11/09/2014  01:26:00      -73.570      -50.734       -8.335       27.490       22.211       16.164      755.688      493.312      261.268        0.478        0.076       89.367        6.386        0.005      335.980        6.974      865.487
11/09/2014  01:27:00      -93.168      -49.191      -10.670       25.529       20.967       16.395      651.720      439.635      268.803        0.629        0.068      105.357       11.721        0.012      336.022        7.044      865.465
11/09/2014  01:28:00     -112.836      -41.649      -13.107       15.990       17.450       12.249      255.684      304.500      150.031        0.767        0.036      120.278        8.356        0.005      335.927        6.885      865.462
11/09/2014  01:29:00     -115.119      -47.036      -12.035       27.370       26.005       15.423      749.128      676.245      237.871        0.864        0.083      124.358       10.652        0.007      335.914        6.863      865.463
11/09/2014  01:30:00     -117.463      -62.914      -10.500       22.315       20.727       13.701      497.965      429.609      187.716        0.949        0.056      133.251       11.239        0.007      335.944        6.914      865.475
11/09/2014  01:31:00      -99.572      -31.926       -6.543       24.024       26.552       16.814      577.150      704.993      282.696        0.627        0.078      104.565       13.930        0.018      335.928        6.888      865.466
11/09/2014  01:32:00      -88.563      -27.475       -8.619       37.218       36.367       17.773     1385.151     1322.562      315.871        0.585        0.151       92.727       18.449        0.040      335.918        6.870      865.449
11/09/2014  01:33:00      -89.399      -47.335       -5.717       39.025       30.370       18.503     1522.981      922.311      342.350        0.653        0.139      101.157       17.281        0.029      335.982        6.978      865.434
11/09/2014  01:34:00      -93.714       -8.440       -3.720       38.216       25.839       23.556     1460.489      667.675      554.898        0.577        0.134       94.093       23.617        0.063      336.054        7.097      865.426
11/09/2014  01:35:00      -84.038      -32.871       -2.146       27.210       29.515       16.891      740.403      871.137      285.289        0.502        0.095       90.238       16.240        0.032      336.041        7.075      865.413
11/09/2014  01:36:00      -65.562      -27.663       -7.346       28.055       23.393       12.668      787.106      547.248      160.466        0.331        0.075       71.159       12.933        0.033      336.078        7.139      865.401
11/09/2014  01:37:00      -60.779       -9.735      -10.428       24.396       18.765       12.670      595.182      352.132      160.535        0.250        0.055       61.554        7.412        0.014      336.121        7.211      865.389
11/09/2014  01:38:00      -50.164      -21.802       -3.390       41.379       27.733       21.192     1712.253      769.115      449.088        0.297        0.147       54.697       22.874        0.175      336.091        7.158      865.392
11/09/2014  01:39:00      -90.374      -13.163      -10.823       32.717       26.171       16.222     1070.416      684.939      263.141        0.524        0.101       91.327       16.171        0.031      336.128        7.222      865.382
11/09/2014  01:40:00      -75.493      -13.459        2.274       37.412       29.563       24.674     1399.656      873.994      608.823        0.438        0.144       76.684       21.761        0.081      336.107        7.188      865.379
11/09/2014  01:41:00      -66.811      -18.467       -4.012       32.081       22.334       18.030     1029.187      498.788      325.076        0.334        0.093       69.316       17.767        0.066      336.089        7.157      865.370
11/09/2014  01:42:00     -102.417      -15.863       -3.790       55.463       36.360       27.397     3076.152     1322.075      750.605        0.795        0.257      103.638       32.520        0.098      336.128        7.220      865.359
11/09/2014  01:43:00      -63.586      -38.197        0.033       35.820       31.902       22.867     1283.094     1017.710      522.897        0.416        0.141       74.177       21.151        0.081      336.045        7.083      865.372
11/09/2014  01:44:00     -107.080      -16.816      -12.676       36.975       41.119       24.310     1367.163     1690.813      590.953        0.778        0.182      108.392       12.601        0.014      336.047        7.086      865.375
11/09/2014  01:45:00     -145.886       -6.777      -21.534       40.303       40.911       22.901     1624.329     1673.708      524.447        1.281        0.191      146.044       19.529        0.018      336.095        7.167      865.383
11/09/2014  01:46:00     -144.316       17.615      -15.992       40.177       29.236       23.903     1614.156      854.762      571.337        1.222        0.152      145.387       18.142        0.016      336.062        7.111      865.387
11/09/2014  01:47:00     -118.758      -28.355      -16.409       36.001       34.598       22.822     1296.072     1197.007      520.847        0.909        0.151      122.096       18.919        0.024      336.062        7.112      865.392
11/09/2014  01:48:00      -18.771      -24.539        3.843       30.295       28.637       25.443      917.798      820.072      647.347        0.168        0.119       30.895       18.891        0.374      335.985        6.981      865.396
11/09/2014  01:49:00      -96.296      -75.334       -0.095       39.079       31.517       26.515     1527.138      993.337      703.037        0.909        0.161      122.263       19.786        0.026      335.972        6.960      865.413
11/09/2014  01:50:00     -110.616      -64.462      -12.837       32.839       28.833       21.413     1078.368      831.330      458.537        0.946        0.118      128.028       15.937        0.015      335.972        6.960      865.412
11/09/2014  01:51:00      -98.497      -36.550      -13.854       39.620       22.802       19.619     1569.773      519.939      384.897        0.685        0.124      105.060       14.864        0.020      335.995        6.998      865.409
11/09/2014  01:52:00      -54.298      -25.690       -1.388       24.827       18.771       16.546      616.372      352.342      273.784        0.243        0.062       60.069        6.780        0.013      336.026        7.052      865.392
11/09/2014  01:53:00      -43.150      -24.072        1.245       37.601       23.700       15.741     1413.822      561.677      247.779        0.233        0.111       49.410       14.892        0.091      336.079        7.138      865.375
11/09/2014  01:54:00      -79.889      -49.379       -5.858       28.358       19.871       12.826      804.176      394.870      164.500        0.511        0.068       93.918        7.852        0.007      336.065        7.116      865.356
11/09/2014  01:55:00      -46.834      -34.734       -5.893       14.014       14.997        9.153      196.379      224.920       83.772        0.197        0.025       58.309        5.057        0.008      336.001        7.011      865.331
11/09/2014  01:56:00      -42.516      -28.189       -2.724       10.529       13.336        9.473      110.858      177.849       89.747        0.149        0.019       51.012        4.591        0.008      336.059        7.107      865.310
11/09/2014  01:57:00      -55.296      -40.019      -11.097        9.100       11.454        8.068       82.818      131.194       65.088        0.253        0.014       68.258        3.806        0.003      336.022        7.044      865.294
11/09/2014  01:58:00      -74.922      -36.409       -5.155       10.747       11.620        9.924      115.500      135.018       98.481        0.366        0.017       83.300        5.337        0.004      336.078        7.136      865.290
11/09/2014  01:59:00      -99.728      -38.731      -16.766       13.131        9.509        7.268      172.433       90.419       52.824        0.602        0.016      106.985        4.095        0.001      335.998        7.005      865.286
11/09/2014  02:00:00      -90.580      -46.690      -14.295       11.031        9.500        7.510      121.682       90.252       56.394        0.543        0.013      101.906        6.757        0.004      335.982        6.978      865.280
11/09/2014  02:01:00      -55.190      -40.479       -9.208       14.101       13.478        7.865      198.844      181.654       61.858        0.261        0.022       68.443        5.899        0.007      335.967        6.952      865.265
11/09/2014  02:02:00      -67.752      -40.169      -12.732       13.862       15.739       10.373      192.158      247.713      107.607        0.346        0.027       78.765        5.390        0.005      335.974        6.964      865.242
11/09/2014  02:03:00     -105.488      -46.776      -15.257       24.055       29.532       15.267      578.640      872.159      233.078        0.762        0.084      115.394        7.840        0.005      335.942        6.911      865.224
11/09/2014  02:04:00     -111.803      -42.053      -16.766       20.648       17.783       15.195      426.341      316.248      230.873        0.776        0.049      119.450       13.722        0.013      335.959        6.938      865.214
11/09/2014  02:05:00     -102.124      -43.179      -15.288       17.680       20.345       12.674      312.591      413.912      160.632        0.671        0.044      110.877       11.154        0.010      335.936        6.901      865.211
11/09/2014  02:06:00      -96.167      -39.039      -11.501       24.117       26.938       15.786      581.625      725.630      249.187        0.623        0.078      103.789        6.927        0.004      335.889        6.822      865.203
11/09/2014  02:07:00      -98.312      -29.481       -8.632       22.546       22.684       16.471      508.341      514.559      271.299        0.595        0.065      102.637       11.489        0.013      335.880        6.808      865.197
11/09/2014  02:08:00      -71.770      -49.140       -8.822       37.285       27.388       16.242     1390.158      750.085      263.807        0.502        0.120       86.981       16.499        0.036      335.864        6.782      865.201
11/09/2014  02:09:00      -62.079      -50.779       -6.591       43.874       25.251       20.339     1924.933      637.612      413.675        0.473        0.149       80.202       17.207        0.046      335.864        6.782      865.208
11/09/2014  02:10:00      -91.067      -38.363       -7.636       33.950       29.720       16.543     1152.622      883.269      273.679        0.607        0.115       98.817       12.686        0.016      335.861        6.776      865.185
11/09/2014  02:11:00      -52.572      -48.996        1.730       39.212       21.977       21.581     1537.553      483.003      465.758        0.383        0.124       71.863       23.159        0.104      335.934        6.899      865.148
11/09/2014  02:12:00      -46.760      -34.903       -2.316       34.740       19.434       17.618     1206.839      377.697      310.378        0.265        0.095       58.350       17.494        0.090      335.953        6.929      865.118
11/09/2014  02:13:00      -70.687      -23.881      -12.989       27.031       19.063       11.845      730.667      363.411      140.315        0.348        0.062       74.612        6.556        0.008      335.920        6.876      865.083
11/09/2014  02:14:00      -83.716      -16.070      -15.351       20.206       14.046       11.938      408.284      197.290      142.509        0.413        0.037       85.245       12.723        0.022      335.936        6.900      865.073
11/09/2014  02:15:00      -68.217      -26.636       -6.897       15.896       13.543        7.497      252.697      183.412       56.209        0.295        0.025       73.232        5.591        0.006      335.925        6.884      865.084
11/09/2014  02:16:00      -82.077      -33.409       -3.927       24.374       15.505        9.377      594.076      240.408       87.924        0.440        0.046       88.616       11.106        0.016      335.974        6.964      865.088
11/09/2014  02:17:00      -80.388      -60.036       -1.055       21.791       18.635       17.293      474.841      347.260      299.060        0.559        0.056      100.332       14.260        0.020      335.964        6.948      865.099
11/09/2014  02:18:00      -49.738      -45.698        8.183       41.222       21.005       18.599     1699.278      441.198      345.941        0.356        0.124       67.544       19.669        0.085      335.968        6.953      865.101
11/09/2014  02:19:00      -20.200      -43.403       11.106       30.769       34.453       20.698      946.704     1186.996      428.413        0.249        0.128       47.874       19.471        0.165      335.996        7.000      865.093
11/09/2014  02:20:00      -58.238      -71.582      -10.924       30.899       28.665       15.454      954.720      821.672      238.811        0.532        0.101       92.280       12.185        0.017      336.092        7.161      865.066
11/09/2014  02:21:00      -50.588      -33.865        2.083       25.521       21.920       18.308      651.334      480.465      335.193        0.259        0.073       60.877       11.619        0.036      336.045        7.082      865.035
11/09/2014  02:22:00     -105.259      -54.896      -11.899       30.171       33.026       18.849      910.271     1090.705      355.286        0.830        0.118      118.715       10.893        0.008      336.094        7.163      865.029
11/09/2014  02:23:00     -126.563      -59.996       -5.288       35.951       32.503       18.796     1292.473     1056.421      353.286        1.117        0.135      140.063       16.903        0.015      335.958        6.936      865.045
11/09/2014  02:24:00     -133.594      -61.031       -7.497       29.702       41.024       17.902      882.184     1682.996      320.494        1.226        0.144      146.874        9.835        0.004      335.864        6.782      865.071
11/09/2014  02:25:00     -136.434      -50.945       -3.646       23.474       22.693       14.853      551.011      514.982      220.615        1.125        0.064      145.635       11.125        0.006      335.825        6.716      865.096
11/09/2014  02:26:00     -108.281      -46.361       -2.231       33.714       23.195       20.048     1136.601      538.013      401.922        0.798        0.104      117.788       19.638        0.028      335.765        6.619      865.106
11/09/2014  02:27:00      -76.530      -44.579        1.376       40.391       25.994       22.327     1631.403      675.683      498.497        0.533        0.140       88.567       22.493        0.064      335.825        6.717      865.080
11/09/2014  02:28:00      -61.925      -29.344        4.609       38.787       24.398       18.566     1504.442      595.262      344.686        0.358        0.122       68.526       16.369        0.057      335.833        6.730      865.057
11/09/2014  02:29:00      -62.299      -32.588        6.358       33.836       25.176       18.341     1144.844      633.824      336.384        0.355        0.106       70.307       14.883        0.045      335.834        6.732      865.033
11/09/2014  02:30:00      -33.732      -48.647        3.586       28.591       31.383       19.223      817.426      984.898      369.516        0.284        0.109       59.197       19.676        0.110      335.880        6.810      865.021
11/09/2014  02:31:00      -50.476      -62.195        4.894       38.982       28.592       19.482     1519.607      817.521      379.562        0.458        0.136       80.100       19.398        0.059      335.889        6.824      865.000
11/09/2014  02:32:00      -50.790      -59.524        0.685       35.927       27.062       16.537     1290.733      732.347      273.475        0.421        0.115       78.248       17.720        0.051      335.975        6.965      864.972
11/09/2014  02:33:00      -26.560      -49.683        3.371       34.612       23.159       17.506     1198.017      536.319      306.476        0.261        0.102       56.337       15.208        0.073      336.032        7.062      864.948
11/09/2014  02:34:00      -31.742      -47.950        5.466       39.852       31.177       17.868     1588.173      972.004      319.258        0.311        0.144       57.505       20.990        0.133      336.074        7.132      864.932
11/09/2014  02:35:00      -65.042      -49.872       -1.561       15.965       19.263       10.901      254.873      371.068      118.828        0.373        0.037       81.961        5.000        0.004      336.076        7.133      864.926
11/09/2014  02:36:00      -40.734      -23.946        5.980       25.005       17.429       10.670      625.228      303.765      113.859        0.166        0.052       47.251        8.069        0.029      336.007        7.019      864.926
11/09/2014  02:37:00      -40.904      -34.539       -0.755       26.457       22.527       15.130      699.969      507.447      228.908        0.215        0.072       53.535        9.771        0.033      335.978        6.971      864.929
11/09/2014  02:38:00      -39.845      -19.589        6.417       29.937       12.012       12.471      896.243      144.298      155.523        0.160        0.060       44.400       13.774        0.096      335.905        6.849      864.942
11/09/2014  02:39:00      -31.906      -20.020        7.242       19.413       13.165       13.932      376.847      173.315      194.104        0.111        0.037       37.667       11.306        0.090      335.926        6.885      864.947
11/09/2014  02:40:00      -69.168      -33.885       -4.917       16.176       12.554       11.968      261.667      157.603      143.225        0.326        0.028       77.022        9.033        0.014      335.962        6.944      864.957
11/09/2014  02:41:00      -76.141      -14.716      -10.417       11.363       11.717        8.891      129.109      137.287       79.054        0.323        0.017       77.550        4.824        0.004      335.935        6.900      864.962
11/09/2014  02:42:00      -96.540        6.825       -7.986        8.881        8.498        7.746       78.865       72.209       60.007        0.482        0.011       96.780        4.831        0.002      335.872        6.794      864.972
11/09/2014  02:43:00      -82.048      -19.261      -10.132       11.548       20.084        9.175      133.350      403.371       84.173        0.391        0.031       84.279        4.295        0.003      335.824        6.715      864.989
11/09/2014  02:44:00      -96.841      -36.805      -13.898       16.991       13.194        8.060      288.706      174.088       64.964        0.573        0.026      103.599        5.091        0.002      335.589        6.324      865.012
11/09/2014  02:45:00      -97.659       -2.575       -6.112       32.183       18.238       19.104     1035.721      332.633      364.977        0.566        0.087       97.693       17.557        0.032      335.647        6.421      865.038
11/09/2014  02:46:00      -83.513        2.427       -4.302       27.621       13.997       13.524      762.914      195.920      182.895        0.407        0.057       83.548       13.479        0.026      335.591        6.327      865.034
11/09/2014  02:47:00      -58.497       -9.170       -8.230       20.300       14.204        9.792      412.095      201.741       95.886        0.214        0.035       59.211        6.752        0.013      335.714        6.533      865.012
11/09/2014  02:48:00      -28.723      -16.850       -5.509        8.212        9.159        7.208       67.444       83.881       51.953        0.067        0.010       33.300        3.228        0.009      335.751        6.594      864.980
11/09/2014  02:49:00      -25.094       -8.064       -5.316        8.859        7.269        6.782       78.481       52.840       45.999        0.045        0.009       26.358        7.846        0.089      336.059        7.105      864.942
11/09/2014  02:50:00        9.466       22.888       -1.709       16.439       12.634        3.675      270.256      159.610       13.502        0.053        0.022       24.768        4.171        0.028      336.171        7.295      864.921
11/09/2014  02:51:00       13.132       28.066       -4.011       10.011       18.979        9.518      100.213      360.217       90.584        0.076        0.028       30.986       10.901        0.124      336.160        7.274      864.917
11/09/2014  02:52:00        5.440       71.873       -7.235        7.408       13.862        6.108       54.885      192.150       37.302        0.277        0.014       72.078        7.423        0.011      336.145        7.247      864.926
11/09/2014  02:53:00      -13.766       19.330       -0.550       20.552       38.457       14.348      422.380     1478.965      205.876        0.133        0.105       23.731        5.449        0.053      336.005        7.016      864.935
11/09/2014  02:54:00      -24.344       -7.146       -1.862       12.346       14.685       10.760      152.420      215.659      115.773        0.057        0.024       25.371        7.253        0.082      335.859        6.774      864.942
11/09/2014  02:55:00      -44.617      -10.859       -6.109       14.063       10.576        7.085      197.756      111.852       50.197        0.125        0.018       45.920        3.323        0.005      335.783        6.647      864.939
11/09/2014  02:56:00      -54.869      -18.407       -4.265       12.399       12.450        7.308      153.730      154.993       53.401        0.186        0.018       57.874        4.706        0.007      335.678        6.472      864.941
11/09/2014  02:57:00      -57.148      -25.745       -7.971       14.939        9.452        7.299      223.170       89.339       53.270        0.218        0.018       62.679        3.988        0.004      335.560        6.276      864.938
11/09/2014  02:58:00      -18.890       -1.241      -11.433       25.584       15.836        8.849      654.537      250.771       78.296        0.074        0.049       18.931        6.793        0.129      335.789        6.657      864.920
11/09/2014  02:59:00       17.198       54.069       -7.325       16.416       25.149       11.408      269.474      632.464      130.149        0.215        0.052       56.738       12.192        0.046      336.194        7.333      864.892
11/09/2014  03:00:00       21.920        9.371        3.556       10.273       17.338        9.685      105.529      300.608       93.796        0.054        0.025       23.839        5.761        0.058      336.146        7.252      864.866
11/09/2014  03:01:00       17.762        8.491        0.859       10.109        8.463        7.564      102.182       71.621       57.210        0.031        0.012       19.687        4.420        0.050      336.137        7.236      864.860
11/09/2014  03:02:00       31.274       35.536       -3.149       16.585       12.593       10.262      275.057      158.590      105.313        0.139        0.027       47.338        2.589        0.003      336.282        7.477      864.852
11/09/2014  03:03:00       47.821       43.554        9.172       10.848       11.781       13.669      117.681      138.796      186.849        0.236        0.022       64.682        7.383        0.013      336.334        7.565      864.847
11/09/2014  03:04:00       37.330       27.286       16.160       14.355       13.187       16.114      206.052      173.887      259.664        0.152        0.032       46.239       13.302        0.083      336.203        7.347      864.846
11/09/2014  03:05:00       13.683       11.730       14.545       15.254       10.680        7.351      232.680      114.053       54.031        0.047        0.020       18.023        6.851        0.145      336.094        7.165      864.860
11/09/2014  03:06:00      -12.791        0.875        6.351        9.073        5.416        6.235       82.326       29.331       38.877        0.018        0.008       12.821        6.124        0.228      336.025        7.050      864.888
11/09/2014  03:07:00      -45.199       -9.288       -7.304       13.805        7.236        7.109      190.589       52.353       50.537        0.124        0.015       46.143        8.126        0.031      335.715        6.531      864.927
11/09/2014  03:08:00      -85.269      -20.359      -11.819       11.721       13.060        7.731      137.385      170.569       59.770        0.410        0.018       87.666        4.684        0.003      335.405        6.017      864.961
11/09/2014  03:09:00      -99.187      -21.542      -13.773       14.373       15.677       11.375      206.589      245.755      129.391        0.554        0.029      101.499        5.198        0.003      335.320        5.874      864.974
11/09/2014  03:10:00     -106.286      -33.554      -16.440       14.446       23.072       13.829      208.701      532.317      191.253        0.681        0.047      111.457       10.214        0.008      335.384        5.980      864.975
11/09/2014  03:11:00      -67.261      -42.644       -3.286       22.193       13.218       11.996      492.547      174.728      143.893        0.358        0.041       79.640        3.234        0.002      335.460        6.109      864.955
11/09/2014  03:12:00      -48.044      -32.760       -2.472       24.170        9.493       10.146      584.169       90.118      102.943        0.208        0.039       58.150       11.483        0.039      335.532        6.229      864.935
11/09/2014  03:13:00      -14.642      -29.463       -3.225       16.699       14.384        8.423      278.853      206.902       70.941        0.082        0.028       32.901        3.077        0.009      335.660        6.442      864.916
11/09/2014  03:14:00      -43.824      -13.268        5.824       19.960       20.348       12.251      398.416      414.029      150.077        0.155        0.048       45.788       11.961        0.068      335.629        6.391      864.900
11/09/2014  03:15:00      -39.421      -15.835       -4.834       11.190        8.627        6.765      125.217       74.429       45.769        0.104        0.012       42.483        2.972        0.005      335.763        6.613      864.891
11/09/2014  03:16:00      -26.773      -10.369       -2.638        7.527        6.130        5.040       56.657       37.576       25.402        0.048        0.006       28.711        3.332        0.013      335.792        6.662      864.882
11/09/2014  03:17:00      -51.285      -20.994       -7.370       10.217        6.648        7.973      104.396       44.192       63.567        0.167        0.011       55.415        5.004        0.008      335.892        6.827      864.866
11/09/2014  03:18:00      -67.425      -21.081       -2.701       12.782        9.305        8.978      163.373       86.580       80.607        0.266        0.017       70.644        7.606        0.012      335.779        6.641      864.858
11/09/2014  03:19:00      -80.274      -20.250       -6.795       12.469        8.475        7.084      155.470       71.821       50.180        0.359        0.014       82.789        4.707        0.003      335.677        6.470      864.858
11/09/2014  03:20:00      -75.162      -17.821       -7.006       12.255       12.834        9.708      150.194      164.716       94.246        0.321        0.020       77.246        6.963        0.008      335.658        6.438      864.860
11/09/2014  03:21:00      -60.271      -16.821       -4.723       21.431       14.763        9.884      459.305      217.955       97.687        0.236        0.039       62.574        8.890        0.020      335.629        6.390      864.844
11/09/2014  03:22:00      -49.341      -24.764       -5.384       10.935        9.587        6.849      119.572       91.904       46.908        0.167        0.013       55.207        5.772        0.011      335.813        6.698      864.824
11/09/2014  03:23:00      -37.203      -23.020       -3.712        8.845        8.552        7.183       78.238       73.142       51.591        0.107        0.010       43.749        5.528        0.016      335.869        6.789      864.804
11/09/2014  03:24:00      -20.603      -12.415       -4.164       11.338       11.908        9.463      128.550      141.801       89.553        0.048        0.018       24.054        6.061        0.063      335.734        6.568      864.791
11/09/2014  03:25:00       -7.349      -17.789      -10.705       14.314       11.029        9.959      204.884      121.632       99.181        0.046        0.021       19.248        7.840        0.166      335.661        6.444      864.793
11/09/2014  03:26:00      -13.715      -16.190       -2.533       15.012        9.190        8.266      225.350       84.457       68.333        0.042        0.019       21.218        5.864        0.076      335.598        6.339      864.795
11/09/2014  03:27:00      -27.348      -18.421       -3.241        5.320        4.962        5.219       28.308       24.624       27.238        0.059        0.004       32.973        3.353        0.010      335.571        6.292      864.803
11/09/2014  03:28:00      -29.734      -22.802       -4.413       10.671        7.872        6.535      113.877       61.973       42.700        0.082        0.011       37.471        5.586        0.022      335.627        6.386      864.827
11/09/2014  03:29:00      -31.494      -24.455        8.446       22.123       10.171       12.394      489.422      103.447      153.615        0.120        0.037       39.874       12.053        0.091      335.481        6.142      864.828
11/09/2014  03:30:00      -61.718      -33.432        3.660       26.309       14.983       16.138      692.161      224.476      260.426        0.306        0.059       70.191       16.668        0.056      335.386        5.985      864.832
11/09/2014  03:31:00      -97.347       -7.447      -11.672       18.955       16.926        9.637      359.287      286.475       92.871        0.520        0.037       97.631        9.255        0.009      335.345        5.916      864.824
11/09/2014  03:32:00     -112.152       14.049      -17.244       11.917       12.991        8.082      142.010      168.779       65.320        0.672        0.019      113.029        6.110        0.003      335.258        5.771      864.816
11/09/2014  03:33:00      -85.179        8.171      -19.088       15.384       10.557        8.345      236.682      111.441       69.645        0.405        0.021       85.570        4.158        0.002      335.323        5.880      864.803
11/09/2014  03:34:00      -64.552      -20.957      -12.266        9.475        9.358        6.350       89.767       87.578       40.318        0.249        0.011       67.869        2.535        0.001      335.453        6.097      864.784
11/09/2014  03:35:00      -74.955      -24.271      -11.109        5.462        8.359        6.087       29.829       69.872       37.050        0.323        0.007       78.786        4.147        0.003      335.473        6.128      864.759
11/09/2014  03:36:00      -80.512      -26.384      -15.732       12.963       14.734        9.317      168.029      217.100       86.815        0.395        0.024       84.724        6.752        0.006      335.397        6.003      864.740
11/09/2014  03:37:00     -106.880      -14.175      -17.634       11.683        9.165        9.083      136.484       83.993       82.500        0.612        0.015      107.815        4.600        0.002      335.225        5.715      864.733
11/09/2014  03:38:00      -99.213      -10.004      -13.198       13.888       11.867       12.146      192.887      140.834      147.514        0.530        0.024       99.716        6.647        0.004      335.168        5.621      864.726
11/09/2014  03:39:00      -99.278       -5.224      -14.374       20.761       15.565        9.455      431.029      242.275       89.391        0.543        0.038       99.415        8.544        0.007      335.152        5.595      864.716
11/09/2014  03:40:00     -118.105        5.521      -12.352       28.104       16.277       13.688      789.809      264.945      187.349        0.769        0.062      118.234       12.791        0.012      335.158        5.607      864.710
11/09/2014  03:41:00      -85.183        3.789      -15.389       12.379       12.136        9.657      153.232      147.293       93.250        0.395        0.020       85.268        6.991        0.007      335.061        5.446      864.703
11/09/2014  03:42:00      -57.871        1.412      -10.823       11.323       15.989       10.442      128.213      255.649      109.030        0.198        0.025       57.889        5.391        0.009      335.108        5.524      864.704
11/09/2014  03:43:00      -46.037       -9.341       -4.354       13.290       15.674       10.697      176.633      245.686      114.424        0.138        0.027       46.975       10.681        0.052      335.421        6.044      864.705
11/09/2014  03:44:00      -61.038      -17.380      -12.213       11.810        8.833        7.502      139.481       78.021       56.275        0.223        0.014       63.464        7.498        0.014      335.301        5.844      864.700
11/09/2014  03:45:00      -82.964      -20.447      -19.427       11.137       13.074        9.474      124.022      170.936       89.765        0.403        0.019       85.447        4.496        0.003      335.311        5.859      864.709
11/09/2014  03:46:00      -82.077      -27.818      -16.990       18.897       18.656       14.629      357.105      348.028      213.999        0.436        0.046       86.663       13.294        0.024      335.204        5.682      864.707
11/09/2014  03:47:00      -59.032      -35.682      -11.344       26.477       21.354       15.731      701.048      456.002      247.455        0.315        0.070       68.978       14.507        0.044      335.136        5.571      864.695
11/09/2014  03:48:00      -64.884      -20.753      -21.053       25.617       14.242       14.997      656.237      202.837      224.917        0.308        0.054       68.122       12.534        0.034      335.179        5.641      864.669
11/09/2014  03:49:00      -67.960      -10.446      -15.139       17.326       14.565       16.606      300.207      212.151      275.775        0.287        0.039       68.758        9.272        0.018      335.219        5.706      864.648
11/09/2014  03:50:00     -113.258       -8.673      -20.264       16.872        9.339        9.955      284.666       87.223       99.101        0.689        0.024      113.590        6.849        0.004      335.289        5.822      864.637
11/09/2014  03:51:00     -120.589       -7.471      -20.160       10.088       10.507        8.368      101.758      110.399       70.020        0.764        0.014      120.820        2.936        0.001      335.246        5.752      864.626
11/09/2014  03:52:00      -98.284       -6.112      -10.648       15.781       14.566       12.009      249.028      212.176      144.222        0.521        0.030       98.474        9.228        0.009      335.235        5.732      864.609
11/09/2014  03:53:00      -60.244       -4.027      -11.698       17.816       17.399       10.689      317.393      302.737      114.261        0.226        0.037       60.379       10.716        0.031      335.300        5.840      864.592
11/09/2014  03:54:00      -65.964      -38.200      -15.316       14.886       16.960        9.561      221.596      287.635       91.417        0.332        0.030       76.226        4.058        0.003      335.283        5.812      864.563
11/09/2014  03:55:00      -78.752       -2.393      -11.017       22.436       19.564       10.688      503.364      382.735      114.233        0.366        0.050       78.789        6.694        0.007      335.237        5.736      864.537
11/09/2014  03:56:00     -100.261        2.224      -11.692       30.304       16.067       11.782      918.317      258.149      138.807        0.575        0.066      100.286        8.244        0.007      335.232        5.728      864.531
11/09/2014  03:57:00      -63.817      -11.401      -16.219       21.360       15.384        9.688      456.246      236.671       93.863        0.263        0.039       64.827       10.436        0.026      335.313        5.862      864.522
11/09/2014  03:58:00      -49.681      -11.756       -6.071       18.000       17.731       10.642      324.005      314.405      113.251        0.170        0.038       51.053        8.799        0.030      335.299        5.839      864.517
11/09/2014  03:59:00      -61.761      -19.311      -12.670       12.263       14.499       11.818      150.387      210.214      139.675        0.242        0.025       64.709        6.476        0.010      335.317        5.868      864.509
11/09/2014  04:00:00      -20.907      -20.346       -2.515       22.911       12.543        9.992      524.921      157.324       99.838        0.082        0.039       29.173        6.607        0.051      335.300        5.841      864.523
11/09/2014  04:01:00      -57.460      -31.856       -7.274       33.308       19.289       10.031     1109.392      372.057      100.631        0.298        0.079       65.700       11.385        0.030      335.217        5.702      864.530
11/09/2014  04:02:00     -101.397      -40.406      -11.576       20.865       16.709       11.193      435.359      279.189      125.282        0.644        0.042      109.151        7.253        0.004      335.203        5.680      864.538
11/09/2014  04:03:00     -115.386      -19.270      -12.937       10.767       13.677       10.094      115.938      187.072      101.892        0.713        0.020      116.984        4.041        0.001      335.194        5.664      864.555
11/09/2014  04:04:00     -127.144       -5.814       -9.379       19.919       11.804       10.423      396.779      139.338      108.635        0.847        0.032      127.277        6.840        0.003      335.270        5.790      864.554
11/09/2014  04:05:00     -125.304      -25.823      -12.789       22.836       14.839       12.316      521.495      220.193      151.689        0.871        0.045      127.937       11.496        0.008      335.273        5.796      864.536
11/09/2014  04:06:00     -115.965      -23.574       -4.622       29.981       17.577       15.886      898.875      308.950      252.353        0.774        0.073      118.337       16.235        0.019      335.170        5.626      864.522
11/09/2014  04:07:00     -120.094      -21.890       -6.664       33.820       23.806       18.579     1143.804      566.739      345.171        0.850        0.103      122.073       17.065        0.020      335.124        5.550      864.525
11/09/2014  04:08:00     -120.413      -17.292       -7.575       23.882       23.160       16.373      570.329      536.403      268.061        0.811        0.069      121.648       13.078        0.012      335.044        5.418      864.522
11/09/2014  04:09:00     -110.393      -25.125       -3.612       30.626       22.547       16.042      937.943      508.369      257.335        0.727        0.085      113.216       16.938        0.022      335.001        5.346      864.513
11/09/2014  04:10:00      -81.588       -9.999        2.273       34.972       21.623       20.290     1223.055      467.568      411.683        0.443        0.105       82.199       22.699        0.076      334.907        5.190      864.500
11/09/2014  04:11:00      -16.084      -22.592        7.288       22.537       14.923       13.145      507.918      222.682      172.799        0.086        0.045       27.732       12.035        0.188      335.075        5.468      864.489
11/09/2014  04:12:00      -63.756      -21.210       -2.101       16.541        9.227        8.937      273.598       85.132       79.870        0.248        0.022       67.192        7.854        0.014      335.176        5.635      864.497
11/09/2014  04:13:00      -87.658      -51.171       -3.109       19.913       17.553       10.265      396.542      308.110      105.367        0.556        0.041      101.501        7.489        0.005      335.172        5.629      864.522
11/09/2014  04:14:00     -103.657      -51.637       -3.560       28.593       18.161       14.857      817.544      329.826      220.741        0.740        0.068      115.806       13.958        0.015      335.092        5.497      864.536
11/09/2014  04:15:00     -122.186      -63.897       -7.178       24.938       19.192       14.983      621.886      368.334      224.498        1.014        0.061      137.886       11.834        0.007      335.107        5.522      864.542
11/09/2014  04:16:00     -127.222      -54.159       -7.390       18.393       22.547       13.850      338.297      508.360      191.813        1.011        0.052      138.270        9.083        0.004      335.111        5.529      864.544
11/09/2014  04:17:00     -112.275      -30.696      -10.907       28.466       17.762       17.336      810.331      315.486      300.545        0.755        0.071      116.396       16.833        0.021      335.088        5.491      864.525
11/09/2014  04:18:00     -112.291      -31.593       -3.656       32.793       16.520       14.849     1075.382      272.901      220.488        0.759        0.078      116.650       17.934        0.024      335.123        5.548      864.515
11/09/2014  04:19:00     -108.601      -41.494        0.307       30.549       32.430       13.123      933.217     1051.719      172.219        0.784        0.108      116.258       15.134        0.017      335.145        5.584      864.492
11/09/2014  04:20:00     -100.537      -34.431        2.145       23.217       18.452       17.385      539.042      340.475      302.222        0.624        0.059      106.270       16.221        0.023      335.078        5.474      864.484
11/09/2014  04:21:00      -72.400      -31.611        4.069       27.793       18.676       13.339      772.429      348.806      177.928        0.378        0.065       79.000       14.589        0.034      334.960        5.277      864.475
11/09/2014  04:22:00      -81.147      -23.836       -3.520       14.955       13.002        8.746      223.663      169.059       76.491        0.382        0.023       84.575        7.751        0.008      334.965        5.286      864.456
11/09/2014  04:23:00      -64.496      -37.666        0.476       15.052       11.859       10.802      226.572      140.630      116.689        0.303        0.024       74.689        9.472        0.016      334.998        5.341      864.448
11/09/2014  04:24:00      -85.131      -27.891       -9.389       15.263       11.952        7.654      232.962      142.843       58.591        0.427        0.022       89.583        5.400        0.004      335.065        5.452      864.434
11/09/2014  04:25:00     -101.428      -33.501      -10.296       11.602       13.322        8.920      134.601      177.475       79.565        0.595        0.020      106.817        5.390        0.003      335.022        5.379      864.441
11/09/2014  04:26:00      -84.340      -37.996      -12.684       12.032       17.021       10.644      144.764      289.731      113.302        0.463        0.027       92.504        7.563        0.007      335.004        5.350      864.446
11/09/2014  04:27:00      -75.533      -45.348       -9.179       15.019       11.892       11.623      225.567      141.410      135.095        0.417        0.025       88.100        6.104        0.005      335.032        5.397      864.440
11/09/2014  04:28:00      -79.111      -33.950      -12.639       16.766       18.836       10.806      281.105      354.805      116.774        0.416        0.038       86.088        7.855        0.008      334.973        5.299      864.442
11/09/2014  04:29:00      -62.508      -21.598       -8.745       10.315       10.785        8.369      106.400      116.314       70.046        0.237        0.015       66.134        6.405        0.009      335.052        5.432      864.437
11/09/2014  04:30:00      -60.758      -13.848       -8.439        8.165        8.922        7.402       66.667       79.598       54.794        0.208        0.010       62.316        4.110        0.004      335.142        5.579      864.410
11/09/2014  04:31:00      -55.603      -20.519       -2.360       11.992        8.782        6.742      143.804       77.130       45.455        0.189        0.013       59.269        3.772        0.004      335.179        5.640      864.392
11/09/2014  04:32:00      -83.576      -15.656       -9.947       10.963        9.843        7.727      120.181       96.894       59.708        0.380        0.014       85.030        6.399        0.006      335.172        5.629      864.391
11/09/2014  04:33:00      -75.991      -23.577      -13.251        8.951       10.425        8.375       80.114      108.675       70.136        0.338        0.013       79.565        4.454        0.003      335.166        5.619      864.404
11/09/2014  04:34:00      -85.251      -25.086       -7.171        9.691       13.263        8.145       93.918      175.901       66.341        0.414        0.017       88.865        4.611        0.003      335.098        5.506      864.421
11/09/2014  04:35:00      -56.650      -44.166        4.466       34.308       18.250       15.495     1177.072      333.070      240.099        0.346        0.088       71.832       14.650        0.042      335.073        5.464      864.465
11/09/2014  04:36:00     -110.925      -60.418        1.170       24.505       22.393       16.121      600.511      501.425      259.880        0.866        0.068      126.312       13.557        0.012      335.008        5.358      864.499
11/09/2014  04:37:00     -118.049      -42.282       -7.807       16.277       13.453       10.552      264.947      180.996      111.345        0.817        0.028      125.393        7.285        0.003      335.080        5.477      864.519
11/09/2014  04:38:00      -57.786      -25.817        1.290       26.682       22.478       13.071      711.918      505.273      170.861        0.270        0.069       63.291       12.722        0.040      335.130        5.559      864.517
11/09/2014  04:39:00      -93.615      -26.973       -2.579       31.027       22.231       13.709      962.688      494.226      187.931        0.557        0.082       97.423       12.112        0.015      334.996        5.337      864.523
11/09/2014  04:40:00      -58.092      -31.439       -3.105       23.625       19.058       14.230      558.140      363.223      202.505        0.275        0.056       66.054        8.041        0.015      334.971        5.296      864.532
11/09/2014  04:41:00      -38.078       -7.712       -2.875       12.405        8.613        8.810      153.874       74.178       77.613        0.091        0.015       38.851        3.577        0.008      335.080        5.476      864.526
11/09/2014  04:42:00      -46.401       11.268       -3.818        5.340        6.866        5.390       28.520       47.142       29.052        0.120        0.005       47.750        3.871        0.007      335.165        5.618      864.518
11/09/2014  04:43:00      -38.193      -26.519       -7.632       15.917       15.069        8.934      253.347      227.078       79.815        0.139        0.028       46.496        4.994        0.012      335.147        5.589      864.521
11/09/2014  04:44:00      -68.007      -16.111       -7.902       12.522       11.751        6.588      156.810      138.077       43.408        0.264        0.017       69.889        5.513        0.006      335.123        5.548      864.523
11/09/2014  04:45:00      -68.733        0.918       -7.033        8.207        4.943        5.706       67.349       24.435       32.563        0.245        0.006       68.739        4.006        0.003      335.155        5.601      864.525
11/09/2014  04:46:00      -66.058       -6.990       -6.343       12.568       10.595        6.553      157.948      112.264       42.947        0.238        0.016       66.427        6.566        0.010      335.244        5.748      864.536
11/09/2014  04:47:00      -52.495      -18.747       -5.300        8.336        7.867        6.286       69.482       61.888       39.509        0.165        0.009       55.742        4.293        0.006      335.168        5.623      864.534
11/09/2014  04:48:00      -51.045      -31.143       -2.996        9.176       10.176        6.724       84.194      103.547       45.214        0.191        0.012       59.795        3.791        0.004      335.102        5.514      864.531
11/09/2014  04:49:00      -54.757      -16.802       -5.218       12.427       12.819        6.631      154.442      164.321       43.965        0.184        0.018       57.277        5.585        0.010      335.139        5.575      864.531
11/09/2014  04:50:00      -73.068      -13.721       -9.358       13.005        7.946        6.428      169.135       63.136       41.313        0.294        0.014       74.345        5.656        0.006      335.211        5.692      864.543
11/09/2014  04:51:00      -88.553      -17.612       -7.631       18.579       13.257        9.006      345.163      175.740       81.116        0.441        0.030       90.287        5.374        0.004      335.013        5.365      864.558
11/09/2014  04:52:00      -56.081       -9.162       -6.146       23.415       13.854       12.453      548.281      191.931      155.072        0.208        0.045       56.825       11.904        0.044      334.896        5.170      864.572
11/09/2014  04:53:00      -37.254      -21.453       -9.078       10.067       10.959        8.207      101.340      120.096       67.351        0.111        0.014       42.990        6.323        0.022      335.009        5.359      864.567
11/09/2014  04:54:00      -36.771      -28.906      -10.439        9.647       18.146        8.271       93.063      329.265       68.411        0.139        0.025       46.773        7.323        0.025      335.002        5.349      864.562
11/09/2014  04:55:00      -36.794      -32.194      -10.281       12.698       10.361        7.502      161.251      107.350       56.283        0.141        0.016       48.890        4.701        0.009      335.104        5.517      864.557
11/09/2014  04:56:00      -55.055      -16.761       -7.682       10.323       14.685        8.199      106.570      215.640       67.218        0.188        0.019       57.550        8.131        0.020      335.081        5.479      864.566
11/09/2014  04:57:00      -36.730      -21.536       -9.377       11.959       14.915        9.686      143.007      222.453       93.820        0.118        0.023       42.578        8.434        0.039      335.167        5.621      864.566
11/09/2014  04:58:00      -40.529      -11.123       -9.949       17.212       18.588        8.381      296.248      345.501       70.245        0.129        0.036       42.027        5.571        0.018      335.293        5.831      864.575
11/09/2014  04:59:00      -65.602      -21.492      -13.288       19.432       12.713       12.012      377.610      161.614      144.280        0.281        0.034       69.033        4.251        0.004      334.937        5.239      864.586
11/09/2014  05:00:00      -83.438      -22.897      -15.683       22.220       19.460       14.009      493.747      378.695      196.252        0.440        0.053       86.523        6.734        0.006      334.776        4.974      864.596
11/09/2014  05:01:00      -92.067      -17.651      -10.993       24.118       13.247       11.811      581.683      175.477      139.508        0.490        0.045       93.744       10.818        0.013      334.676        4.806      864.590
11/09/2014  05:02:00      -78.438      -14.512      -12.724       12.470       10.636        8.095      155.507      113.115       65.525        0.343        0.017       79.769        7.465        0.009      334.687        4.825      864.571
11/09/2014  05:03:00      -75.740      -14.874      -11.693       16.597       14.207       10.969      275.471      201.829      120.311        0.335        0.030       77.187        7.489        0.009      334.766        4.955      864.540
11/09/2014  05:04:00     -108.349       -0.339      -15.977       14.037        6.942        5.861      197.029       48.191       34.346        0.614        0.014      108.350        2.907        0.001      334.848        5.092      864.516
11/09/2014  05:05:00      -71.010       10.781      -11.444       21.984       10.109        7.748      483.276      102.184       60.024        0.297        0.032       71.824        7.365        0.011      334.957        5.274      864.496
11/09/2014  05:06:00      -37.476       29.179       -8.422        9.989       12.602        5.541       99.787      158.803       30.701        0.131        0.014       47.496        3.612        0.006      335.305        5.852      864.495
11/09/2014  05:07:00       -2.803       36.454       -3.075       12.138        8.659        6.061      147.338       74.983       36.738        0.080        0.013       36.561        5.535        0.023      335.651        6.428      864.488
11/09/2014  05:08:00       -6.463       -4.023       -2.200       11.852       30.347       10.327      140.462      920.960      106.645        0.062        0.058        7.613       13.679        3.229      335.401        6.010      864.466
11/09/2014  05:09:00      -36.923      -37.461      -12.374       22.582       18.419       11.087      509.951      339.267      122.921        0.195        0.049       52.599        9.010        0.029      335.065        5.453      864.452
11/09/2014  05:10:00      -89.474      -41.963       -9.751       13.157       16.381        9.015      173.114      268.326       81.266        0.519        0.026       98.826        5.668        0.003      334.801        5.013      864.457
11/09/2014  05:11:00     -101.412      -15.017      -10.642       15.081       14.283       10.183      227.422      204.005      103.695        0.558        0.027      102.518        9.242        0.008      334.827        5.057      864.462
11/09/2014  05:12:00      -90.853        1.535      -15.171       19.829       12.925        9.291      393.183      167.054       86.318        0.457        0.032       90.866        5.400        0.004      334.896        5.169      864.464
11/09/2014  05:13:00      -86.868        8.660      -17.472       11.234        8.203        7.246      126.212       67.294       52.503        0.409        0.012       87.299        3.907        0.002      334.918        5.208      864.463
11/09/2014  05:14:00      -64.145        7.498      -14.629       10.258       10.947        8.260      105.229      119.848       68.221        0.234        0.015       64.581        1.590        0.001      335.131        5.561      864.452
11/09/2014  05:15:00      -52.650        9.358      -11.554        6.119        8.660        6.861       37.445       74.990       47.072        0.158        0.008       53.475        1.607        0.001      335.227        5.720      864.431
11/09/2014  05:16:00      -46.535        8.442       -7.825       10.767       13.434        6.554      115.935      180.469       42.961        0.132        0.017       47.294        4.878        0.011      335.421        6.042      864.402
11/09/2014  05:17:00      -15.140       -1.613       -0.692       11.555       14.002       10.850      133.513      196.056      117.726        0.034        0.022       15.226       11.002        0.522      335.378        5.970      864.389
11/09/2014  05:18:00       -7.459      -17.091        3.137       11.950       11.708        9.693      142.791      137.076       93.955        0.037        0.019       18.648        7.824        0.176      335.395        5.998      864.401
11/09/2014  05:19:00      -43.829      -36.180      -12.044       22.339       20.273       11.339      499.040      411.012      128.573        0.221        0.052       56.833        7.663        0.018      334.936        5.237      864.422
11/09/2014  05:20:00      -78.433      -40.709      -11.479       24.513       30.921       20.689      600.867      956.079      428.047        0.496        0.099       88.369       14.447        0.027      334.718        4.875      864.438
11/09/2014  05:21:00      -99.664       -1.485      -15.696       19.296       21.311       12.934      372.350      454.178      167.276        0.559        0.050       99.675       11.902        0.014      334.601        4.681      864.427
11/09/2014  05:22:00      -76.179      -11.200      -17.302       18.286       15.687       13.422      334.395      246.076      180.142        0.349        0.038       76.998        7.139        0.009      334.640        4.745      864.401
11/09/2014  05:23:00      -41.988       -5.177       -3.968       15.226        9.102       15.014      231.822       82.849      225.426        0.117        0.027       42.306        8.911        0.044      334.791        4.996      864.383
11/09/2014  05:24:00      -33.230        3.444       -8.691       13.533       11.545        8.478      183.134      133.280       71.876        0.079        0.019       33.408        8.112        0.059      334.893        5.166      864.390
11/09/2014  05:25:00      -28.858      -19.400       -2.900       10.249       17.344        9.517      105.038      300.816       90.568        0.086        0.025       34.773        3.929        0.013      334.885        5.152      864.410
11/09/2014  05:26:00      -77.034      -18.901       -9.177       23.045       12.613        9.347      531.050      159.079       87.360        0.358        0.039       79.319        6.220        0.006      334.702        4.850      864.433
11/09/2014  05:27:00      -85.722      -26.073      -11.181       25.024       25.147       16.427      626.178      632.348      269.852        0.484        0.076       89.599       11.257        0.016      334.668        4.793      864.443
11/09/2014  05:28:00      -52.069      -25.820       -4.152       27.711       17.814       12.593      767.898      317.343      158.591        0.232        0.062       58.119        7.368        0.016      334.795        5.004      864.431
11/09/2014  05:29:00      -48.896      -25.549      -11.017       24.766       17.203       12.369      613.348      295.928      152.987        0.211        0.053       55.169        8.195        0.022      334.796        5.006      864.439
11/09/2014  05:30:00      -86.795      -32.704       -6.207       41.881       30.046       19.235     1754.047      902.753      369.975        0.583        0.151       92.752       13.696        0.022      334.771        4.962      864.453
11/09/2014  05:31:00      -41.778      -23.380       -6.351       40.475       21.926       15.085     1638.215      480.760      227.570        0.234        0.117       47.875       15.340        0.103      334.687        4.826      864.476
11/09/2014  05:32:00      -33.205      -36.676       -0.194       43.399       27.592       13.542     1883.456      761.320      183.382        0.264        0.141       49.474        9.850        0.040      334.625        4.722      864.466
11/09/2014  05:33:00      -76.135      -35.702       -5.822       13.046       14.128       11.258      170.205      199.613      126.734        0.380        0.025       84.090        5.709        0.005      334.631        4.733      864.449
11/09/2014  05:34:00      -71.783      -45.087       -7.181       14.580       14.493       10.937      212.571      210.034      119.608        0.389        0.027       84.768        7.005        0.007      334.818        5.040      864.429
11/09/2014  05:35:00      -70.430      -39.108       -1.987       12.519        9.322        8.836      156.723       86.896       78.067        0.341        0.016       80.560        6.313        0.006      334.827        5.056      864.402
11/09/2014  05:36:00      -60.655      -37.253       -4.651       16.047       10.993       10.714      257.513      120.836      114.783        0.279        0.025       71.182        6.684        0.009      334.965        5.286      864.382
11/09/2014  05:37:00      -20.882      -36.623        3.406       14.728       14.669       13.014      216.905      215.188      169.356        0.120        0.030       42.158       11.092        0.069      335.059        5.443      864.362
11/09/2014  05:38:00      -24.369      -23.495        8.325       24.663       13.537       15.556      608.279      183.251      241.979        0.112        0.052       33.850       17.129        0.256      335.002        5.348      864.357
11/09/2014  05:39:00      -34.004      -21.344        3.666       19.613       11.207       10.726      384.686      125.603      115.048        0.113        0.031       40.148       10.322        0.066      334.888        5.159      864.351
11/09/2014  05:40:00      -37.624      -18.908        0.639       13.753        9.328        7.301      189.145       87.018       53.297        0.105        0.016       42.108        3.955        0.009      334.912        5.201      864.335
11/09/2014  05:41:00      -53.068      -32.788       -6.108       22.998       11.917        7.542      528.919      142.019       56.881        0.233        0.036       62.380        5.252        0.007      334.892        5.165      864.340
11/09/2014  05:42:00      -72.857      -44.928       -3.023       16.190       15.498       10.819      262.106      240.192      117.045        0.398        0.031       85.596        7.728        0.008      334.861        5.115      864.353
11/09/2014  05:43:00      -84.110      -41.228       -2.283       12.883       15.128       13.019      165.970      228.862      169.488        0.467        0.028       93.671        7.848        0.007      334.877        5.139      864.362
11/09/2014  05:44:00      -82.349      -45.162       -2.073       15.067       14.725       11.536      227.002      216.819      133.070        0.470        0.029       93.920        8.214        0.008      334.840        5.079      864.360
11/09/2014  05:45:00      -49.836      -30.262        4.067       29.717       17.650       13.837      883.119      311.536      191.473        0.240        0.069       58.305       13.408        0.053      334.784        4.984      864.336
11/09/2014  05:46:00      -39.198      -26.701        4.868       33.502       25.813       13.882     1122.381      666.322      192.700        0.213        0.099       47.428       16.654        0.123      334.786        4.987      864.295
11/09/2014  05:47:00       10.910       -5.832        6.626        9.370       10.003       15.456       87.792      100.060      238.902        0.031        0.021       12.371        2.206        0.032      334.924        5.217      864.254
11/09/2014  05:48:00        3.050        3.032        1.983        5.845       11.064        5.972       34.166      122.405       35.662        0.011        0.010        4.301        3.187        0.549      335.059        5.442      864.233
11/09/2014  05:49:00      -31.751      -16.854       -2.502       18.164       17.538        9.284      329.927      307.598       86.190        0.101        0.036       35.947        6.771        0.035      334.939        5.245      864.234
11/09/2014  05:50:00      -42.294      -18.008       -1.481       25.174       20.770       11.694      633.706      431.396      136.758        0.166        0.060       45.968       13.593        0.087      334.781        4.980      864.257
11/09/2014  05:51:00      -61.144        3.405       -2.783       26.160       12.814       13.692      684.327      164.197      187.468        0.240        0.052       61.239       14.179        0.054      334.714        4.868      864.276
11/09/2014  05:52:00      -61.833      -12.946      -10.791       22.662       13.006        9.940      513.561      169.145       98.808        0.244        0.039       63.174        7.748        0.015      334.709        4.863      864.295
11/09/2014  05:53:00      -94.166      -37.793       -6.664       27.119       19.468       11.922      735.434      379.008      142.136        0.580        0.063      101.467        8.788        0.008      334.646        4.755      864.304
11/09/2014  05:54:00     -123.466      -20.341      -16.075       25.831       22.115       19.335      667.235      489.074      373.851        0.872        0.077      125.130       15.858        0.016      334.596        4.674      864.297
11/09/2014  05:55:00     -125.364      -30.965       -7.141       35.214       25.757       17.922     1239.992      663.412      321.198        0.947        0.111      129.132       22.490        0.030      334.599        4.676      864.282
11/09/2014  05:56:00     -101.093      -36.360       -7.738       38.537       39.527       17.982     1485.105     1562.408      323.339        0.749        0.169      107.433       22.840        0.045      334.571        4.631      864.277
11/09/2014  05:57:00      -75.496      -14.413       -1.281       29.753       23.963       16.612      885.246      574.214      275.975        0.382        0.087       76.859       13.332        0.030      334.490        4.497      864.280
11/09/2014  05:58:00      -81.696      -17.540       -5.616       18.522       16.241       10.315      343.058      263.780      106.408        0.386        0.036       83.558        7.363        0.008      334.563        4.618      864.277
11/09/2014  05:59:00      -83.460      -21.800       -8.505       18.005       18.560       13.251      324.188      344.465      175.591        0.418        0.042       86.260       10.128        0.014      334.694        4.835      864.279
11/09/2014  06:00:00     -105.365      -32.784       -5.735       16.290       20.957       11.241      265.359      439.208      126.367        0.652        0.042      110.348        5.936        0.003      334.706        4.855      864.282
11/09/2014  06:01:00      -79.986      -48.238        3.319       39.200       32.247       22.073     1536.636     1039.869      487.231        0.590        0.153       93.406       21.174        0.051      334.676        4.806      864.279
11/09/2014  06:02:00     -106.875      -48.741        3.093       31.818       24.561       19.320     1012.396      603.251      373.274        0.790        0.099      117.465       15.354        0.017      334.677        4.807      864.270
11/09/2014  06:03:00      -82.848      -45.530        4.048       28.842       20.216       14.354      831.888      408.696      206.043        0.520        0.072       94.534       12.783        0.018      334.702        4.849      864.268
11/09/2014  06:04:00      -68.543      -42.694        1.363       28.021       23.999       16.026      785.202      575.974      256.836        0.407        0.081       80.753       17.141        0.045      334.759        4.944      864.274
11/09/2014  06:05:00      -86.167      -46.977       -4.273       18.581       15.615       12.268      345.240      243.832      150.513        0.519        0.037       98.141        7.697        0.006      334.751        4.930      864.267
11/09/2014  06:06:00      -73.466      -36.420       -4.614       28.253       17.495       13.773      798.242      306.058      189.697        0.402        0.065       81.998       13.587        0.027      334.759        4.943      864.260
11/09/2014  06:07:00      -65.800      -23.402       -4.378       21.010       21.731       10.762      441.439      472.215      115.814        0.296        0.051       69.838        9.087        0.017      334.756        4.939      864.242
11/09/2014  06:08:00      -81.321       -1.065       -6.008       21.535       17.819       10.029      463.763      317.509      100.582        0.377        0.044       81.328        9.106        0.013      334.669        4.794      864.232
11/09/2014  06:09:00      -89.548        1.555       -9.105       17.177       15.078       10.585      295.036      227.341      112.049        0.437        0.032       89.562        4.766        0.003      334.705        4.855      864.229
11/09/2014  06:10:00      -40.006      -29.033       -3.574       17.929       18.946       11.839      321.463      358.967      140.158        0.164        0.041       49.431       10.475        0.045      334.690        4.828      864.209
11/09/2014  06:11:00      -43.476      -18.424       -6.379       16.569       19.164        8.214      274.527      367.257       67.465        0.149        0.035       47.219        7.488        0.025      334.721        4.882      864.175
11/09/2014  06:12:00      -70.720       -6.838       -6.683       21.309       12.666        9.534      454.077      160.417       90.898        0.290        0.035       71.050       11.087        0.024      334.701        4.846      864.162
11/09/2014  06:13:00      -75.505      -29.189      -10.430       13.211       18.919        8.807      174.534      357.920       77.566        0.364        0.031       80.950        4.112        0.003      334.633        4.733      864.173
11/09/2014  06:14:00      -56.408      -32.364       -5.131       23.855       14.652       10.052      569.083      214.682      101.048        0.257        0.044       65.033        4.636        0.005      334.640        4.747      864.191
11/09/2014  06:15:00      -58.472       -6.504       -1.006       15.067       20.660       13.060      227.021      426.820      170.575        0.214        0.041       58.833        8.173        0.019      334.729        4.893      864.193
11/09/2014  06:16:00      -26.794        5.164        0.498       19.904       11.137        8.683      396.189      124.037       75.394        0.067        0.030       27.287        9.616        0.124      334.669        4.794      864.176
11/09/2014  06:17:00      -72.866        1.061      -10.496       32.323       12.631       13.327     1044.782      159.546      177.615        0.340        0.069       72.873       16.705        0.053      334.660        4.779      864.176
11/09/2014  06:18:00     -123.205       -4.883      -18.317       13.574       16.680        9.146      184.260      278.218       83.640        0.804        0.027      123.302        7.085        0.003      334.599        4.679      864.195
11/09/2014  06:19:00      -75.971      -18.274       -5.473       24.615       25.199       17.235      605.880      635.013      297.031        0.384        0.077       78.138       15.464        0.039      334.371        4.299      864.194
11/09/2014  06:20:00      -48.756      -22.241       -3.821       22.557       27.427       15.594      508.832      752.233      243.184        0.220        0.075       53.590       11.952        0.050      334.340        4.247      864.193
11/09/2014  06:21:00      -53.401      -10.171       -3.612       27.669       25.131       16.982      765.562      631.588      288.384        0.233        0.084       54.361       15.434        0.081      334.393        4.337      864.175
11/09/2014  06:22:00      -94.702      -12.783       -6.816       36.949       33.789       20.224     1365.230     1141.692      408.994        0.605        0.146       95.561       16.377        0.029      334.307        4.194      864.152
11/09/2014  06:23:00      -91.933       -0.997       -5.588       50.965       36.922       25.087     2597.383     1363.269      629.352        0.654        0.230       91.939       22.930        0.062      334.275        4.140      864.143
11/09/2014  06:24:00      -98.996       25.905       -8.983       55.365       36.393       26.715     3065.259     1324.482      713.667        0.783        0.255      102.329       25.770        0.063      334.342        4.252      864.139
11/09/2014  06:25:00     -122.496       29.383      -11.109       44.858       31.869       22.815     2012.261     1015.605      520.543        0.977        0.177      125.971       21.563        0.029      334.300        4.182      864.125
11/09/2014  06:26:00     -153.715       35.890      -16.897       44.024       37.121       23.806     1938.078     1377.968      566.716        1.454        0.194      157.849       14.228        0.008      334.309        4.196      864.104
11/09/2014  06:27:00     -146.506       35.042      -16.627       38.017       31.143       25.974     1445.314      969.892      674.666        1.303        0.154      150.638       15.868        0.011      334.311        4.200      864.079
11/09/2014  06:28:00     -152.973       23.370      -13.977       43.553       24.990       25.740     1896.850      624.477      662.532        1.366        0.159      154.748       24.593        0.025      334.468        4.461      864.069
11/09/2014  06:29:00     -145.282       42.319      -14.357       56.974       29.990       30.350     3246.002      899.393      921.109        1.408        0.253      151.320       25.464        0.028      334.464        4.455      864.084
11/09/2014  06:30:00     -165.584       50.193      -14.606       50.353       35.031       25.584     2535.414     1227.196      654.561        1.728        0.221      173.024       21.878        0.016      334.430        4.397      864.103
11/09/2014  06:31:00     -139.155        4.365       -6.139       59.087       41.835       26.005     3491.250     1750.201      676.273        1.267        0.296      139.223       27.681        0.040      334.502        4.516      864.116
11/09/2014  06:32:00     -116.700      -17.298       -6.872       40.896       43.921       22.529     1672.456     1929.070      507.559        0.904        0.205      117.975       19.633        0.028      334.488        4.494      864.118
11/09/2014  06:33:00     -143.123       15.647      -19.739       36.692       28.863       18.579     1346.330      833.086      345.177        1.182        0.126      143.976       11.275        0.006      334.503        4.519      864.105
11/09/2014  06:34:00     -141.778       12.033      -16.479       42.748       29.275       21.515     1827.369      857.025      462.889        1.183        0.157      142.287       15.926        0.013      334.381        4.318      864.074
11/09/2014  06:35:00     -155.341       52.802      -10.089       54.385       28.492       30.281     2957.775      811.777      916.932        1.585        0.234      164.070       20.707        0.016      334.697        4.839      864.037
11/09/2014  06:36:00     -126.225       42.176       -9.858       55.550       32.622       22.812     3085.809     1064.210      520.384        1.124        0.234      133.085       16.886        0.016      334.833        5.067      864.012
11/09/2014  06:37:00      -97.496       20.362       -7.808       48.826       27.991       25.496     2383.991      783.484      650.022        0.690        0.191       99.600       19.350        0.038      334.965        5.285      864.001
11/09/2014  06:38:00      -85.392      -41.557        1.514       29.635       31.554       16.534      878.206      995.661      273.368        0.558        0.107       94.967       12.359        0.017      334.723        4.884      863.997
11/09/2014  06:39:00      -70.316      -53.067       -6.068       32.754       26.522       16.543     1072.839      703.433      273.678        0.492        0.102       88.093        9.936        0.013      334.637        4.739      863.987
11/09/2014  06:40:00      -39.817      -25.087        0.949       28.223       29.658       19.200      796.558      879.592      368.638        0.213        0.102       47.061       11.463        0.059      334.684        4.821      863.964
11/09/2014  06:41:00       -4.504      -20.066        1.903       14.661       13.943       12.497      214.943      194.414      156.178        0.050        0.028       20.565        7.647        0.138      334.743        4.918      863.951
11/09/2014  06:42:00       20.914      -37.086      -23.668       13.260       19.662        9.277      175.815      386.606       86.068        0.151        0.032       42.577        5.660        0.018      334.734        4.902      863.945
11/09/2014  06:43:00       -7.801      -29.849      -13.526       35.403       13.859       12.422     1253.367      192.059      154.315        0.137        0.080       30.851       12.516        0.165      334.675        4.805      863.942
11/09/2014  06:44:00      -63.470      -34.792       -9.090       17.770       18.181       10.696      315.775      330.560      114.408        0.304        0.038       72.380        9.194        0.016      334.688        4.825      863.952
11/09/2014  06:45:00      -32.564      -23.401       -5.449       21.926       15.630        9.014      480.740      244.283       81.246        0.122        0.040       40.101        4.410        0.012      335.015        5.367      863.964
11/09/2014  06:46:00      -47.912       17.150       12.980       13.442        9.000        7.642      180.675       80.998       58.405        0.154        0.016       50.889        8.996        0.031      335.147        5.586      863.972
11/09/2014  06:47:00       -8.763       23.382        9.244       16.768        8.558        9.338      281.173       73.239       87.203        0.058        0.022       24.970        6.644        0.071      335.068        5.458      863.970
11/09/2014  06:48:00        6.695       18.208        3.754       14.811        8.584        8.770      219.359       73.683       76.918        0.038        0.018       19.400        4.108        0.045      334.840        5.077      863.965
11/09/2014  06:49:00      -22.405       10.056        1.468       16.176       13.301        9.797      261.650      176.910       95.984        0.057        0.027       24.558        5.217        0.045      334.898        5.175      863.974
11/09/2014  06:50:00       25.153       31.770        9.000       16.589       18.048       20.763      275.205      325.729      431.119        0.138        0.052       40.521       10.337        0.065      334.614        4.702      863.990
11/09/2014  06:51:00       81.550       39.605       -8.902       26.769       27.377       19.663      716.580      749.477      386.646        0.508        0.093       90.659        8.929        0.010      334.259        4.115      864.001
11/09/2014  06:52:00       78.018       45.818        2.590       19.455       23.530       13.130      378.516      553.638      172.401        0.465        0.055       90.477       12.695        0.020      334.221        4.049      864.015
11/09/2014  06:53:00       34.457       11.074        1.291       17.384       20.391       14.071      302.219      415.799      198.004        0.111        0.046       36.193        9.135        0.064      334.291        4.168      864.026
11/09/2014  06:54:00       -2.831      -35.329       -6.016       10.868        8.872       10.335      118.103       78.717      106.822        0.080        0.015       35.442        6.894        0.038      334.514        4.537      864.036
11/09/2014  06:55:00      -22.488      -27.216        2.051       15.456       10.736       12.841      238.899      115.256      164.891        0.088        0.026       35.305        5.444        0.024      334.597        4.674      864.046
11/09/2014  06:56:00      -29.582       -7.406       -0.265        9.710       10.683        7.513       94.290      114.129       56.446        0.060        0.013       30.495        6.423        0.044      334.659        4.776      864.028
11/09/2014  06:57:00      -35.425      -17.656       -0.043        8.871       10.607        6.240       78.703      112.515       38.938        0.090        0.012       39.581        3.664        0.009      334.623        4.717      864.012
11/09/2014  06:58:00      -11.649      -15.688        0.157       13.258        6.137        8.895      175.775       37.659       79.124        0.034        0.015       19.540        3.931        0.040      334.614        4.702      864.010
11/09/2014  06:59:00      -18.159      -21.432        2.100        9.198        8.622        8.788       84.608       74.332       77.227        0.051        0.012       28.091        5.456        0.038      334.670        4.797      864.014
11/09/2014  07:00:00      -29.368      -11.234       -2.673       10.011       14.595        6.886      100.214      213.009       47.417        0.068        0.018       31.444        6.932        0.049      334.639        4.746      864.004
11/09/2014  07:01:00      -30.916      -20.600        0.046       16.962       11.821       10.841      287.716      139.732      117.530        0.096        0.027       37.150        7.197        0.038      334.632        4.732      864.002
11/09/2014  07:02:00      -48.720      -32.810       -7.980        5.925        5.673        6.457       35.105       32.181       41.699        0.181        0.005       58.738        3.369        0.003      334.659        4.777      864.012
11/09/2014  07:03:00      -37.740      -26.569       -5.001        9.822        4.126        5.212       96.481       17.020       27.168        0.115        0.007       46.154        4.602        0.010      334.748        4.927      864.010
11/09/2014  07:04:00      -23.605       19.600       -0.854       20.738       26.937       11.998      430.066      725.593      143.963        0.112        0.065       30.682        7.409        0.058      334.844        5.085      863.994
11/09/2014  07:05:00      -56.652      -33.506       -8.286       20.826       13.288        7.923      433.708      176.582       62.771        0.254        0.034       65.818        4.305        0.004      334.786        4.988      863.998
11/09/2014  07:06:00      -63.517      -32.351       -4.038        9.624        7.101        4.900       92.619       50.425       24.012        0.263        0.008       71.281        3.069        0.002      334.798        5.008      864.015
11/09/2014  07:07:00      -13.471      -16.235        4.454       16.368       11.935        9.205      267.908      142.441       84.733        0.048        0.025       21.096        9.590        0.207      334.884        5.150      864.019
11/09/2014  07:08:00       -4.423      -12.023       10.771       18.933       12.363        9.285      358.445      152.845       86.219        0.044        0.030       12.810        9.999        0.609      334.948        5.258      864.023
11/09/2014  07:09:00       -5.620       -9.549        3.746        7.716        6.803        8.927       59.531       46.282       79.698        0.016        0.009       11.080        3.682        0.110      334.970        5.293      864.032
11/09/2014  07:10:00      -13.727      -18.158        3.018       11.651        7.821        6.541      135.750       61.168       42.788        0.038        0.012       22.763        4.337        0.036      334.975        5.302      864.016
11/09/2014  07:11:00      -27.534       -4.323       16.014       14.102       24.132        9.066      198.878      582.348       82.193        0.095        0.043       27.871        6.472        0.054      334.989        5.325      864.009
11/09/2014  07:12:00      -36.824        4.382       15.686       18.474       16.520       15.891      341.289      272.923      252.534        0.124        0.043       37.083        7.685        0.043      334.956        5.271      863.979
11/09/2014  07:13:00       -5.920       19.413       15.403       10.475       14.988       15.184      109.716      224.648      230.540        0.061        0.028       20.295        5.987        0.087      335.206        5.686      863.955
11/09/2014  07:14:00      -10.047       16.087       30.970       12.540       13.578       14.204      157.259      184.356      201.742        0.093        0.027       18.967       11.171        0.347      335.190        5.660      863.951
11/09/2014  07:15:00      -21.669        4.677       14.533       13.554       17.097       20.950      183.724      292.293      438.888        0.081        0.046       22.168       18.020        0.661      335.037        5.406      863.979
11/09/2014  07:16:00      -34.016       -7.387       -8.598       12.496       10.497       10.996      156.151      110.197      120.923        0.084        0.019       34.809        8.457        0.059      334.904        5.185      863.987
11/09/2014  07:17:00      -24.987        7.264        3.798        8.485        5.399       10.820       71.990       29.147      117.073        0.045        0.011       26.022        5.228        0.040      334.943        5.249      863.979
11/09/2014  07:18:00      -29.440       -1.909       -0.230       18.134        6.523        7.816      328.828       42.552       61.096        0.065        0.022       29.502        5.313        0.032      334.965        5.285      863.975
11/09/2014  07:19:00      -63.474      -11.487        2.400       13.335       16.045        8.858      177.818      257.438       78.469        0.234        0.026       64.505        8.262        0.016      334.944        5.250      864.014
11/09/2014  07:20:00      -67.595      -31.255        1.540       28.566       22.672       13.924      816.011      514.021      193.891        0.354        0.076       74.472       14.008        0.035      334.975        5.302      864.043
11/09/2014  07:21:00      -41.401      -22.748        3.085       20.016       19.898       11.567      400.659      395.911      133.802        0.159        0.047       47.239        6.419        0.018      335.013        5.365      864.042
11/09/2014  07:22:00      -16.854       -5.264        2.836       12.144        7.650        6.877      147.470       58.520       47.295        0.029        0.013       17.656        3.986        0.051      335.193        5.663      864.028
11/09/2014  07:23:00       -9.431        0.300        5.379        6.106        3.760        6.219       37.279       14.136       38.679        0.010        0.005        9.436        3.880        0.169      335.477        6.137      864.028
11/09/2014  07:24:00        9.438       16.556        9.336       15.297       13.806       10.092      233.986      190.595      101.851        0.049        0.026       19.057        7.600        0.159      335.536        6.234      864.020
11/09/2014  07:25:00        1.846       20.966        0.456       15.656       15.576       15.105      245.119      242.612      228.164        0.058        0.036       21.047       12.704        0.364      335.507        6.187      864.005
11/09/2014  07:26:00       -4.055       17.830        0.502        9.999        9.073       11.493       99.970       82.324      132.097        0.032        0.016       18.285        7.352        0.162      335.497        6.170      863.987
11/09/2014  07:27:00        0.527       13.028       -6.230        6.279        8.796        9.112       39.421       77.378       83.026        0.020        0.010       13.039        5.822        0.199      335.620        6.376      863.978
11/09/2014  07:28:00      -14.586        1.911        4.652        9.587        7.878        7.035       91.915       62.070       49.488        0.022        0.010       14.710        4.657        0.100      335.596        6.335      863.962
11/09/2014  07:29:00      -30.048       -7.315        2.247        8.247        6.897        6.271       68.009       47.575       39.321        0.056        0.008       30.925        3.347        0.012      335.385        5.982      863.949
11/09/2014  07:30:00      -21.296      -11.302       -0.089        7.851        7.008        6.352       61.645       49.108       40.343        0.037        0.008       24.109        4.132        0.029      335.415        6.033      863.944
11/09/2014  07:31:00      -10.506       -0.478        4.969        4.984        3.951        7.086       24.836       15.613       50.206        0.011        0.005       10.517        4.544        0.187      335.659        6.440      863.930
11/09/2014  07:32:00        0.479       13.538        8.254        7.866        7.765        6.779       61.867       60.297       45.955        0.021        0.008       13.547        4.009        0.088      335.698        6.505      863.916
11/09/2014  07:33:00       24.213       28.692        2.272       14.515       16.799       16.161      210.697      282.204      261.171        0.108        0.038       37.543       11.351        0.091      335.657        6.439      863.912
11/09/2014  07:34:00       31.288       22.894       -5.284       21.340       15.635       11.739      455.402      244.445      137.811        0.118        0.042       38.769        7.359        0.036      335.594        6.332      863.908
11/09/2014  07:35:00       25.620       22.430        3.487       16.367       11.637       14.143      267.867      135.421      200.036        0.089        0.030       34.051       10.066        0.087      335.708        6.521      863.923
11/09/2014  07:36:00       38.150       27.368       -6.682       12.368       11.151        9.971      152.962      124.350       99.419        0.131        0.019       46.951        7.818        0.028      335.579        6.307      863.927
11/09/2014  07:37:00       30.542       22.603       10.615       16.275       13.580       22.220      264.887      184.414      493.744        0.125        0.047       37.997       15.375        0.164      335.662        6.446      863.913
11/09/2014  07:38:00       34.878       17.822       13.164       19.439       20.891       18.877      377.865      436.428      356.348        0.144        0.059       39.168       14.824        0.143      335.722        6.546      863.886
11/09/2014  07:39:00       -4.249       29.179       37.397       17.279       16.764       17.271      298.563      281.027      298.271        0.157        0.044       29.487       12.956        0.193      335.952        6.929      863.856
11/09/2014  07:40:00       11.408       32.212       32.103       31.172       22.871       23.121      971.669      523.071      534.604        0.211        0.101       34.172       23.919        0.490      335.934        6.900      863.840
11/09/2014  07:41:00       24.028       57.662       44.918       26.381       25.538       16.981      695.975      652.212      288.348        0.378        0.082       62.468       12.058        0.037      335.879        6.806      863.826
11/09/2014  07:42:00       24.147       35.673       47.944       29.212       26.023       22.107      853.341      677.199      488.723        0.309        0.101       43.077       11.941        0.077      335.888        6.821      863.807
11/09/2014  07:43:00       48.515       56.049       49.073       39.614       30.956       27.945     1569.307      958.259      780.901        0.561        0.165       74.129       24.017        0.105      335.777        6.638      863.799
11/09/2014  07:44:00       57.777       51.882       40.429       27.118       23.660       23.641      735.378      559.805      558.916        0.476        0.093       77.652       13.337        0.029      335.750        6.593      863.796
11/09/2014  07:45:00       60.625       38.775       12.916       16.310       14.158       16.435      266.000      200.438      270.117        0.304        0.037       71.965       11.235        0.024      335.636        6.400      863.809
11/09/2014  07:46:00       64.418       35.043       13.361       33.566       23.201       28.923     1126.665      538.265      836.559        0.403        0.125       73.333       20.248        0.076      335.799        6.672      863.813
11/09/2014  07:47:00       89.084       54.559       -2.904       28.495       30.673       26.103      811.979      940.831      681.359        0.668        0.122      104.463       18.112        0.030      335.763        6.615      863.811
11/09/2014  07:48:00      120.801       51.261        0.675       26.006       26.833       24.937      676.322      720.022      621.875        0.962        0.101      131.227        9.650        0.005      335.654        6.432      863.801
11/09/2014  07:49:00       95.569       76.583        9.138       19.395       17.353       22.157      376.165      301.140      490.944        0.812        0.058      122.468       15.358        0.016      335.588        6.323      863.789
11/09/2014  07:50:00       73.887       46.293       -5.836       18.896       27.239       18.569      357.050      741.971      344.799        0.454        0.072       87.192       10.275        0.014      335.610        6.357      863.795
11/09/2014  07:51:00       32.325       24.687        1.991       18.408       20.935       14.651      338.848      438.259      214.653        0.132        0.050       40.673        9.163        0.051      335.798        6.675      863.811
11/09/2014  07:52:00       55.926       29.992        2.290       27.248       21.758       15.997      742.445      473.409      255.906        0.275        0.074       63.460        8.567        0.018      335.838        6.739      863.810
11/09/2014  07:53:00       76.890       56.475        8.552       26.859       18.710       23.297      721.385      350.067      542.743        0.539        0.081       95.401       14.546        0.023      335.804        6.682      863.802
11/09/2014  07:54:00       59.717       57.194       12.865       23.681       22.738       20.074      560.768      516.995      402.980        0.424        0.074       82.688       10.285        0.015      335.887        6.821      863.792
11/09/2014  07:55:00       80.841       52.486        0.037       19.312       24.856       20.331      372.944      617.796      413.348        0.535        0.070       96.385        8.163        0.007      335.854        6.764      863.783
11/09/2014  07:56:00       93.804       55.118        9.603       20.928       16.737       22.173      437.976      280.135      491.636        0.657        0.060      108.799        7.451        0.005      335.768        6.621      863.781
11/09/2014  07:57:00       59.532       44.874        7.611       27.680       24.753       23.733      766.158      612.687      563.239        0.378        0.097       74.550       17.593        0.056      335.828        6.721      863.784
11/09/2014  07:58:00       50.269       51.812        0.799       28.946       16.839       19.384      837.872      283.547      375.734        0.335        0.075       72.190       13.403        0.034      335.889        6.823      863.781
11/09/2014  07:59:00       48.399       53.629       -5.023       32.756       21.088       23.081     1072.984      444.684      532.716        0.365        0.103       72.239       18.972        0.069      336.099        7.176      863.770
11/09/2014  08:00:00       -0.702       -9.468       20.572       20.507       27.997       17.425      420.522      783.808      303.643        0.101        0.075        9.494       15.426        2.640      336.345        7.584      863.762
11/09/2014  08:01:00       -5.059        7.582        0.767       14.455       25.520       14.072      208.958      651.260      198.021        0.057        0.053        9.115        9.099        0.997      336.329        7.558      863.764
11/09/2014  08:02:00       14.973       20.405       24.109       16.827       22.418       14.472      283.160      502.572      209.430        0.111        0.050       25.309       12.829        0.257      336.567        7.955      863.755
11/09/2014  08:03:00       44.026       40.633       29.157       24.196       14.313       19.208      585.452      204.873      368.955        0.280        0.058       59.911       13.166        0.048      336.183        7.313      863.719
11/09/2014  08:04:00        6.193       33.529       48.006       19.081       22.633       17.657      364.077      512.268      311.758        0.233        0.059       34.097       16.023        0.221      336.471        7.795      863.688
11/09/2014  08:05:00       -6.554       18.935       42.579       19.069       29.205       15.944      363.629      852.955      254.215        0.184        0.074       20.037       14.108        0.496      336.662        8.113      863.651
11/09/2014  08:06:00       -5.520       33.745       58.267       17.607       24.990       17.986      310.006      624.512      323.502        0.291        0.063       34.194       17.943        0.275      336.550        7.928      863.625
11/09/2014  08:07:00       10.221       28.182       47.349       25.007       39.270       30.168      625.351     1542.105      910.093        0.311        0.154       29.979       24.875        0.689      336.513        7.866      863.608
11/09/2014  08:08:00       36.223       25.170       43.574       46.246       23.324       33.166     2138.718      543.994     1099.973        0.381        0.189       44.109       28.853        0.428      336.555        7.936      863.606
11/09/2014  08:09:00       14.885        5.615       29.440       18.512       32.994       23.944      342.697     1088.612      573.293        0.156        0.100       15.909       11.951        0.564      336.517        7.873      863.620
11/09/2014  08:10:00       16.371       -2.883       20.283       29.231       34.518       23.830      854.436     1191.476      567.880        0.165        0.131       16.623       25.285        2.314      336.545        7.920      863.651
11/09/2014  08:11:00        1.477       16.780       37.405       13.348       25.109       21.516      178.163      630.459      462.939        0.148        0.064       16.845       20.514        1.483      336.820        8.379      863.663
11/09/2014  08:12:00       27.652       46.231       52.533       32.898       26.685       18.756     1082.251      712.073      351.804        0.390        0.107       53.869       19.549        0.132      336.488        7.823      863.646
11/09/2014  08:13:00       53.554       24.826       11.946       39.576       29.378       26.305     1566.265      863.083      691.937        0.337        0.156       59.029       22.675        0.148      336.492        7.831      863.602
11/09/2014  08:14:00       93.286       73.129        3.418       29.548       33.012       21.820      873.067     1089.763      476.115        0.825        0.122      118.533        9.298        0.006      336.328        7.555      863.571
11/09/2014  08:15:00       63.020       48.799        5.117       27.913       26.607       27.860      779.120      707.929      776.165        0.432        0.113       79.705        8.607        0.012      336.374        7.634      863.576
11/09/2014  08:16:00       10.678       27.915       36.333       22.431       26.104       28.410      503.139      681.409      807.121        0.210        0.100       29.887       23.650        0.626      336.896        8.504      863.589
11/09/2014  08:17:00       14.459       55.109       28.840       35.619       26.798       34.401     1268.685      718.126     1183.427        0.362        0.159       56.974       28.350        0.248      336.823        8.383      863.568
11/09/2014  08:18:00       99.516       72.569        5.421       26.943       26.723       26.829      725.932      714.138      719.804        0.868        0.108      123.166       18.500        0.023      336.452        7.762      863.534
11/09/2014  08:19:00       75.003       75.577       29.884       29.651       21.299       27.608      879.183      453.657      762.190        0.716        0.105      106.477       13.671        0.016      336.303        7.515      863.516
11/09/2014  08:20:00       63.929       70.758       28.326       33.559       26.175       44.456     1126.233      685.117     1976.300        0.684        0.189       95.360       18.823        0.039      336.533        7.900      863.484
11/09/2014  08:21:00       69.289       47.203       15.481       29.426       20.055       27.570      865.860      402.194      760.087        0.465        0.101       83.839       17.877        0.045      336.456        7.771      863.465
11/09/2014  08:22:00       42.824       37.780        3.869       29.821       23.870       20.707      889.294      569.771      428.800        0.258        0.094       57.107       15.396        0.073      336.701        8.182      863.459
11/09/2014  08:23:00        2.940       20.128       26.739       18.856       18.081       22.393      355.553      326.911      501.433        0.116        0.059       20.341       12.860        0.400      337.165        8.955      863.464
11/09/2014  08:24:00       41.895       53.603        8.537       41.738       27.560       32.768     1742.058      759.531     1073.755        0.414        0.179       68.033       25.607        0.142      336.995        8.670      863.446
11/09/2014  08:25:00       96.523       57.788       11.337       55.519       34.015       37.918     3082.413     1157.006     1437.794        0.923        0.284      112.500       29.539        0.069      336.755        8.270      863.434
11/09/2014  08:26:00       56.393       74.737       53.064       36.365       29.154       30.831     1322.443      849.944      950.531        0.735        0.156       93.626       19.636        0.044      336.816        8.372      863.450
11/09/2014  08:27:00       66.194       50.617       12.998       19.046       22.232       25.210      362.735      494.244      635.560        0.430        0.075       83.329       12.087        0.021      336.483        7.815      863.452
11/09/2014  08:28:00       57.857       50.093       16.882       29.073       21.703       24.211      845.265      471.015      586.193        0.402        0.095       76.529       16.376        0.046      336.874        8.469      863.428
11/09/2014  08:29:00      107.780       72.117        0.701       23.398       19.410       22.793      547.477      376.744      519.535        0.913        0.072      129.681       15.499        0.014      336.619        8.042      863.417
11/09/2014  08:30:00       59.175       58.700        5.256       23.763       22.745       22.317      564.671      517.353      498.042        0.428        0.079       83.350        9.647        0.013      336.821        8.379      863.421
11/09/2014  08:31:00       59.338       48.410       -9.028       19.655       15.925       15.029      386.317      253.620      225.871        0.341        0.043       76.580       10.192        0.018      336.616        8.039      863.427
11/09/2014  08:32:00       79.917       52.633        5.570       32.042       22.306       23.456     1026.677      497.538      550.191        0.563        0.104       95.692       10.524        0.012      336.805        8.353      863.422
11/09/2014  08:33:00       89.493       43.370       10.141       33.477       28.571       34.040     1120.696      816.284     1158.716        0.654        0.155       99.448       19.485        0.038      336.877        8.473      863.404
11/09/2014  08:34:00       15.877       28.221       19.056       40.301       28.429       25.803     1624.195      808.226      665.814        0.225        0.155       32.381       15.053        0.216      337.231        9.067      863.384
11/09/2014  08:35:00       75.618       66.419       13.173       52.864       23.595       34.556     2794.627      556.713     1194.114        0.742        0.227      100.646       35.115        0.122      336.983        8.651      863.389
11/09/2014  08:36:00        9.404       36.363       10.810       16.885       36.684       18.084      285.097     1345.717      327.021        0.174        0.098       37.559       19.070        0.258      337.217        9.042      863.407
11/09/2014  08:37:00       15.086       13.143       -5.898       11.385       15.512        8.716      129.621      240.637       75.968        0.044        0.022       20.008        6.433        0.103      336.921        8.547      863.413
11/09/2014  08:38:00        7.739       22.313       -0.707       29.824       24.256       15.620      889.461      588.346      243.970        0.114        0.086       23.617        8.819        0.139      337.123        8.884      863.401
11/09/2014  08:39:00       57.036       47.875       11.953       24.964       25.655       25.625      623.215      658.161      656.617        0.381        0.097       74.466       11.255        0.023      337.047        8.757      863.401
11/09/2014  08:40:00       11.106       71.740       -1.596       43.740       27.057       23.872     1913.158      732.068      569.885        0.424        0.161       72.595       17.121        0.056      337.048        8.758      863.405
11/09/2014  08:41:00      -24.916       57.034      -21.099       27.916       23.240       12.853      779.317      540.110      165.197        0.290        0.074       62.239        8.236        0.018      336.908        8.525      863.405
11/09/2014  08:42:00      -16.437       15.962      -22.820       24.797       13.209       11.202      614.909      174.482      125.496        0.098        0.046       22.912        6.053        0.070      337.083        8.818      863.398
11/09/2014  08:43:00       13.560       23.135       -2.654       23.925       21.498       14.198      572.392      462.165      201.592        0.098        0.062       26.816        4.508        0.028      337.166        8.956      863.384
11/09/2014  08:44:00      -31.175       14.834      -19.969       22.300       18.428       14.775      497.304      339.576      218.293        0.132        0.053       34.524        7.845        0.052      337.273        9.135      863.362
11/09/2014  08:45:00      -29.755       -5.606        4.138       18.737       18.473       16.444      351.072      341.250      270.409        0.095        0.048       30.279       12.939        0.183      337.198        9.009      863.359
11/09/2014  08:46:00      -41.409      -29.002       -4.823       12.451       12.208       15.868      155.015      149.035      251.801        0.157        0.028       50.555       11.620        0.053      337.148        8.927      863.378
11/09/2014  08:47:00      -25.923      -22.152        1.177       17.047       15.818       10.561      290.585      250.218      111.525        0.091        0.033       34.099        8.474        0.062      337.161        8.947      863.387
11/09/2014  08:48:00       -7.771        4.803        8.972       12.950       18.354       12.817      167.695      336.876      164.268        0.042        0.033        9.135        8.217        0.809      337.874       10.143      863.382
11/09/2014  08:49:00      -12.482       51.064       -0.905       46.231       29.071       23.135     2137.298      845.094      535.231        0.314        0.176       52.568       14.488        0.076      337.449        9.431      863.365
11/09/2014  08:50:00      -16.262       78.976       -2.472       19.260       42.856       23.236      370.943     1836.612      539.917        0.463        0.137       80.632       20.014        0.062      337.499        9.514      863.356
11/09/2014  08:51:00       11.394       49.086       12.126       20.655       34.185       26.299      426.644     1168.626      691.633        0.249        0.114       50.392       23.579        0.219      337.737        9.913      863.350
11/09/2014  08:52:00       -2.424       26.634       10.774       15.199       33.507       17.699      231.005     1122.724      313.265        0.125        0.083       26.744       19.305        0.521      338.033       10.411      863.328
11/09/2014  08:53:00       23.758       69.986       -5.333       23.615       29.705       25.728      557.675      882.382      661.907        0.380        0.105       73.908       22.488        0.093      337.559        9.615      863.298
11/09/2014  08:54:00       63.236       39.391       -6.174       25.726       21.384       19.427      661.808      457.290      377.413        0.354        0.075       74.501       13.331        0.032      337.644        9.757      863.273
11/09/2014  08:55:00       48.569       36.474       -2.698       25.402       28.524       20.666      645.255      813.642      427.075        0.279        0.094       60.739        9.378        0.024      337.730        9.902      863.285
11/09/2014  08:56:00       12.869       23.940        6.954       30.537       31.606       21.996      932.488      998.970      483.826        0.160        0.121       27.180       10.325        0.144      337.993       10.344      863.296
11/09/2014  08:57:00        0.886       35.186       52.597       35.420       44.076       28.585     1254.572     1942.736      817.113        0.401        0.201       35.197       25.779        0.536      338.339       10.922      863.294
11/09/2014  08:58:00       75.724       24.387       16.861       56.311       42.593       34.937     3170.884     1814.175     1220.600        0.641        0.310       79.554       23.220        0.085      337.742        9.923      863.301
11/09/2014  08:59:00       48.830       49.380        1.918       44.083       33.672       24.731     1943.294     1133.791      611.627        0.426        0.184       69.446        8.429        0.015      338.022       10.391      863.314
11/09/2014  09:00:00       -4.048       75.691        4.042       37.653       43.548       28.342     1417.728     1896.387      803.295        0.494        0.206       75.799       26.483        0.122      338.025       10.395      863.322
11/09/2014  09:01:00       38.867       55.634       15.888       31.769       37.172       29.171     1009.238     1381.745      850.942        0.405        0.162       67.866       21.157        0.097      338.260       10.791      863.303
11/09/2014  09:02:00       67.126      103.264       69.457       63.252       49.979       63.723     4000.819     2497.934     4060.670        1.527        0.528      123.164       50.471        0.168      337.873       10.140      863.275
11/09/2014  09:03:00       35.230       51.993       43.994       55.132       49.413       40.360     3039.572     2441.677     1628.953        0.649        0.356       62.805       34.566        0.303      338.058       10.451      863.266
11/09/2014  09:04:00       36.819      -13.427       31.716       46.055       82.592       59.125     2121.022     6821.425     3495.823        0.749        0.622       39.191       61.324        2.448      337.841       10.087      863.282
11/09/2014  09:05:00       57.745       50.314       12.892       54.316       47.331       23.103     2950.222     2240.216      533.763        0.588        0.286       76.590        8.954        0.014      338.006       10.365      863.281
11/09/2014  09:06:00       95.625       64.021       11.043       44.533       25.338       30.070     1983.146      642.016      904.228        0.845        0.176      115.078       20.708        0.032      337.645        9.760      863.271
11/09/2014  09:07:00       58.400       73.290       60.793       42.760       41.870       43.748     1828.398     1753.075     1913.871        0.899        0.275       93.712       39.818        0.181      337.872       10.140      863.247
11/09/2014  09:08:00       28.255      100.923       87.904       40.861       56.965       49.304     1669.661     3245.050     2430.917        1.303        0.367      104.803       45.902        0.192      337.933       10.241      863.238
11/09/2014  09:09:00       19.615       84.234       87.921       35.515       39.640       18.855     1261.338     1571.348      355.506        0.920        0.159       86.488       15.330        0.031      338.048       10.434      863.237
11/09/2014  09:10:00       11.928       44.612       57.243       20.032       24.708       12.589      401.286      610.494      158.484        0.329        0.059       46.179       10.514        0.052      338.044       10.429      863.242
11/09/2014  09:11:00       41.504       36.006       29.138       20.819       17.663       16.355      433.426      311.993      267.473        0.244        0.051       54.945       10.823        0.039      337.948       10.267      863.261
11/09/2014  09:12:00       45.481       44.676       26.967       29.614       22.476       31.902      877.002      505.169     1017.709        0.360        0.120       63.753       24.035        0.142      338.031       10.406      863.238
11/09/2014  09:13:00       21.643       83.543       99.019       58.016       43.982       45.434     3365.822     1934.412     2064.252        1.231        0.368       86.301       44.225        0.263      338.113       10.544      863.201
11/09/2014  09:14:00       29.736       63.470       83.936       45.609       40.735       26.156     2080.174     1659.355      684.143        0.819        0.221       70.090       22.770        0.106      338.074       10.479      863.194
11/09/2014  09:15:00       28.500       -1.873       26.180       28.807       57.843       29.764      829.833     3345.857      885.892        0.328        0.253       28.561       34.002        1.417      338.240       10.759      863.181
11/09/2014  09:16:00       21.315      -28.261       25.116       30.177       63.081       39.357      910.674     3979.200     1549.002        0.416        0.322       35.398       48.040        1.842      338.106       10.532      863.148
11/09/2014  09:17:00       18.814       19.513       41.862       46.834       28.663       25.372     2193.389      821.579      643.727        0.307        0.183       27.105       29.212        1.161      338.641       11.429      863.122
11/09/2014  09:18:00      -12.556       23.561       69.657       14.000       39.052       19.399      196.002     1525.062      376.323        0.383        0.105       26.698       21.405        0.643      338.830       11.746      863.102
11/09/2014  09:19:00       -5.677       44.274       85.849       24.074       38.117       23.637      579.555     1452.894      558.695        0.598        0.130       44.636       18.974        0.181      338.628       11.409      863.072
11/09/2014  09:20:00        3.559       36.064       68.540       21.496       36.713       28.249      462.062     1347.868      798.020        0.431        0.130       36.239       27.676        0.583      338.549       11.275      863.058
11/09/2014  09:21:00       11.247        1.889       28.296       21.606       38.728       27.668      466.821     1499.882      765.532        0.183        0.137       11.405       21.520        3.561      338.640       11.427      863.057
11/09/2014  09:22:00       -1.384      -37.423        0.971       28.633       32.189       20.030      819.843     1036.159      401.196        0.183        0.113       37.449       17.468        0.218      338.347       10.938      863.055
11/09/2014  09:23:00      -23.771      -15.614       -8.825       26.382       17.642       11.254      696.004      311.256      126.657        0.101        0.057       28.441        8.460        0.088      338.358       10.956      863.045
11/09/2014  09:24:00      -15.739      -27.146       15.711       29.555       47.738       30.574      873.527     2278.903      934.790        0.266        0.204       31.378       33.765        1.158      338.563       11.300      863.016
11/09/2014  09:25:00       16.975       18.210       44.039       28.440       28.292       17.952      808.816      800.443      322.288        0.224        0.097       24.895       18.610        0.559      338.824       11.738      863.001
11/09/2014  09:26:00       64.026       62.102       20.669       22.260       19.256       28.568      495.490      370.778      816.155        0.503        0.084       89.196       11.850        0.018      338.406       11.035      862.990
11/09/2014  09:27:00       90.411       64.522       24.824       20.276       18.750       20.007      411.114      351.570      400.270        0.706        0.058      111.072        6.216        0.003      338.316       10.883      862.959
11/09/2014  09:28:00       29.556       57.835       34.886       33.748       28.307       44.505     1138.960      801.307     1980.678        0.468        0.196       64.950       19.885        0.094      338.788       11.678      862.935
11/09/2014  09:29:00       32.884       32.598       21.987       19.300       14.160       27.477      372.497      200.510      755.004        0.198        0.066       46.303        8.899        0.037      338.520       11.227      862.953
11/09/2014  09:30:00       36.702       35.305       10.725       19.862       17.354       25.294      394.500      301.157      639.762        0.202        0.067       50.926       18.322        0.129      338.527       11.240      862.968
11/09/2014  09:31:00       48.562       56.217       28.620       30.465       21.238       27.022      928.119      451.069      730.198        0.422        0.105       74.287       19.766        0.071      338.670       11.481      862.963
11/09/2014  09:32:00       -3.897       38.999       75.076       32.783       48.606       27.547     1074.707     2362.583      758.864        0.568        0.210       39.193       20.770        0.281      339.099       12.200      862.925
11/09/2014  09:33:00       13.709       50.662       65.779       31.639       36.040       29.361     1001.027     1298.865      862.093        0.512        0.158       52.484       22.465        0.183      338.946       11.943      862.934
11/09/2014  09:34:00        8.715       51.133       63.402       30.251       28.065       17.468      915.133      787.649      305.115        0.436        0.100       51.870       14.147        0.074      338.988       12.013      862.948
11/09/2014  09:35:00       38.268       52.263       79.848       29.562       34.554       18.822      873.915     1193.956      354.276        0.650        0.121       64.776       18.069        0.078      338.943       11.938      862.950
11/09/2014  09:36:00       85.823       94.557       61.387       34.937       25.986       31.550     1220.620      675.297      995.374        1.148        0.145      127.698       12.411        0.009      338.679       11.494      862.951
11/09/2014  09:37:00      116.615       72.167       15.994       41.763       31.020       33.447     1744.111      962.213     1118.697        1.144        0.191      137.139       13.878        0.010      338.785       11.671      862.917
11/09/2014  09:38:00       71.034       69.187       41.500       52.786       43.191       47.357     2786.311     1865.489     2242.720        0.922        0.345       99.159       24.843        0.063      339.077       12.164      862.896
11/09/2014  09:39:00       29.236       51.639       44.409       48.620       29.803       27.269     2363.880      888.243      743.576        0.474        0.200       59.341       19.161        0.104      339.031       12.086      862.918
11/09/2014  09:40:00       67.090       43.531       11.750       31.747       28.015       27.223     1007.895      784.846      741.103        0.453        0.127       79.975       19.775        0.061      338.871       11.818      862.944
11/09/2014  09:41:00       93.405       78.973       22.558       26.186       31.507       28.377      685.717      992.718      805.256        0.898        0.124      122.316       13.788        0.013      338.657       11.458      862.922
11/09/2014  09:42:00      122.970       97.185       22.316       40.356       19.527       21.976     1628.620      381.288      482.958        1.378        0.125      156.737       11.342        0.005      338.529       11.242      862.920
11/09/2014  09:43:00      102.896       69.347        5.787       46.427       30.535       30.904     2155.430      932.365      955.046        0.974        0.202      124.083       25.091        0.041      338.804       11.705      862.932
11/09/2014  09:44:00       52.803       78.256       40.109       57.746       48.038       46.462     3334.646     2307.650     2158.705        0.916        0.390       94.404       33.169        0.123      339.229       12.419      862.919
11/09/2014  09:45:00       44.827       58.690       51.034       47.643       38.604       42.343     2269.902     1490.252     1792.918        0.680        0.278       73.851       36.259        0.241      338.999       12.032      862.913
11/09/2014  09:46:00        1.880       45.336       64.692       21.964       30.730       24.101      482.412      944.353      580.880        0.413        0.100       45.375       13.661        0.091      339.239       12.437      862.885
11/09/2014  09:47:00       45.494       82.992       96.351       46.763       36.823       30.638     2186.808     1355.908      938.712        1.136        0.224       94.643       17.371        0.034      339.034       12.091      862.842
11/09/2014  09:48:00       21.298       52.686       78.594       38.060       37.097       23.119     1448.533     1376.204      534.471        0.638        0.168       56.828       15.616        0.076      339.096       12.195      862.817
11/09/2014  09:49:00       18.441       29.813       37.375       32.191       28.740       23.746     1036.234      825.974      563.859        0.253        0.121       35.055       14.792        0.178      339.308       12.551      862.823
11/09/2014  09:50:00       34.432       50.496       38.134       28.806       31.923       19.821      829.799     1019.108      392.873        0.372        0.112       61.118        6.939        0.013      339.157       12.299      862.828
11/09/2014  09:51:00       28.978       51.234       53.591       44.872       47.635       28.606     2013.524     2269.099      818.300        0.572        0.255       58.861       24.939        0.180      339.230       12.422      862.793
11/09/2014  09:52:00       18.424       59.544       49.447       50.689       38.624       30.885     2569.334     1491.840      953.900        0.567        0.251       62.329       27.857        0.200      339.139       12.268      862.755
11/09/2014  09:53:00       77.548      -76.024       -1.037       45.816       56.455       36.391     2099.134     3187.142     1324.281        0.920        0.331      108.597       35.884        0.109      339.171       12.323      862.746
11/09/2014  09:54:00       19.828       28.363       51.627       38.033       27.242       28.814     1446.477      742.100      830.221        0.344        0.151       34.606       20.579        0.354      339.674       13.168      862.726
11/09/2014  09:55:00       45.574       44.307       64.289       47.583       59.437       41.076     2264.096     3532.795     1687.264        0.783        0.374       63.562       43.697        0.473      339.344       12.614      862.699
11/09/2014  09:56:00        6.327      -43.650       26.646       25.703       52.466       34.388      660.669     2752.697     1182.547        0.362        0.230       44.106       28.153        0.407      339.424       12.748      862.679
11/09/2014  09:57:00       18.553       18.012       55.996       30.533       37.252       16.042      932.261     1387.687      257.335        0.319        0.129       25.858       15.231        0.347      339.677       13.175      862.661
11/09/2014  09:58:00       34.924       45.173       47.409       27.297       26.188       28.967      745.115      685.792      839.065        0.389        0.113       57.099       15.985        0.078      339.338       12.604      862.657
11/09/2014  09:59:00       21.559       46.494       41.471       33.631       37.114       35.192     1131.077     1377.441     1238.442        0.405        0.187       51.249       20.947        0.167      339.538       12.940      862.637
11/09/2014  10:00:00       21.712      111.329      113.620       53.219       55.477       41.762     2832.269     3077.743     1744.029        1.671        0.383      113.427       38.109        0.113      339.439       12.772      862.588
11/09/2014  10:01:00      111.920       94.423       57.480       63.305       51.293       44.106     4007.566     2631.022     1945.345        1.666        0.429      146.430       34.208        0.055      339.225       12.410      862.582
11/09/2014  10:02:00       -7.128       27.222       32.967       35.111       33.083       22.252     1232.774     1094.484      495.164        0.235        0.141       28.140        8.125        0.083      339.828       13.430      862.583
11/09/2014  10:03:00       17.910       21.108       43.555       29.192       41.105       26.320      852.199     1689.635      692.724        0.295        0.162       27.682       18.923        0.467      339.991       13.704      862.583
11/09/2014  10:04:00        7.913      -20.432       24.246       32.208       69.728       28.742     1037.372     4861.992      826.126        0.390        0.336       21.911       29.973        1.871      339.777       13.344      862.566
11/09/2014  10:05:00        9.463        9.207       12.724       37.221       50.259       33.261     1385.391     2525.958     1106.324        0.268        0.251       13.203       22.921        3.014      339.838       13.446      862.557
11/09/2014  10:06:00       42.354        1.576       56.646       60.898      108.871       65.342     3708.589    11852.877     4269.546        1.241        0.992       42.384       81.239        3.674      339.594       13.033      862.555
11/09/2014  10:07:00       41.581       32.578       86.787       57.844       98.229       57.648     3345.879     9648.891     3323.342        1.332        0.816       52.823       69.583        1.735      339.693       13.201      862.539
11/09/2014  10:08:00       21.059       15.632       34.801       45.966       59.558       40.056     2112.859     3547.184     1604.504        0.458        0.363       26.227       33.037        1.587      339.437       12.771      862.557
11/09/2014  10:09:00       37.948       30.458       29.103       56.273       36.637       38.553     3166.677     1342.301     1486.302        0.460        0.300       48.659       14.516        0.089      339.545       12.951      862.580
11/09/2014  10:10:00       41.241       51.105       52.103       39.679       44.079       30.300     1574.408     1942.999      918.091        0.573        0.222       65.670       17.888        0.074      339.643       13.117      862.575
11/09/2014  10:11:00       15.357       52.316       33.462       33.642       30.070       38.255     1131.785      904.176     1463.434        0.380        0.175       54.524       25.845        0.225      339.784       13.354      862.570
11/09/2014  10:12:00       31.160       27.558       28.382       48.025       31.001       41.329     2306.428      961.070     1708.089        0.375        0.249       41.597       40.143        0.931      339.978       13.682      862.522
11/09/2014  10:13:00       16.363       28.309       51.318       53.230       47.385       47.441     2833.398     2245.385     2250.684        0.551        0.366       32.698       13.484        0.170      339.983       13.690      862.461
11/09/2014  10:14:00       68.386       83.507       93.141       50.154       46.006       33.838     2515.440     2116.543     1145.027        1.305        0.289      107.935       27.112        0.063      339.630       13.096      862.458
11/09/2014  10:15:00       68.988      -18.656       21.312       69.406       56.608       41.931     4817.175     3204.500     1758.213        0.767        0.489       71.466       52.770        0.545      339.525       12.918      862.449
11/09/2014  10:16:00       53.833       51.635       65.554       62.242       53.748       47.610     3874.037     2888.886     2266.732        0.944        0.451       74.593       47.469        0.405      339.741       13.282      862.430
11/09/2014  10:17:00       28.127       31.907       29.119       29.134       29.613       22.990      848.809      876.931      528.550        0.246        0.113       42.535       17.500        0.169      339.619       13.077      862.416
11/09/2014  10:18:00       47.352      -90.122        7.838       40.698       42.942       28.206     1656.325     1844.002      795.587        0.736        0.215      101.805       30.971        0.093      339.606       13.056      862.394
11/09/2014  10:19:00       26.259      -20.375       40.857       48.454       63.700       41.328     2347.829     4057.667     1708.013        0.544        0.406       33.237       43.723        1.731      340.066       13.830      862.391
11/09/2014  10:20:00       51.687      -52.112       25.877       59.474       90.849       45.911     3537.107     8253.621     2107.802        0.997        0.695       73.397       60.894        0.688      339.850       13.467      862.385
11/09/2014  10:21:00       53.345      -18.100       36.526       55.801       56.597       41.714     3113.701     3203.231     1740.086        0.628        0.403       56.332       44.355        0.620      340.074       13.845      862.343
11/09/2014  10:22:00       31.592       23.977       53.090       49.459       60.302       42.999     2446.175     3636.313     1848.907        0.616        0.397       39.661       36.940        0.868      339.879       13.515      862.329
11/09/2014  10:23:00       16.890      -22.786       11.544       35.752       56.183       34.549     1278.227     3156.554     1193.632        0.328        0.281       28.363       27.162        0.917      339.930       13.601      862.330
11/09/2014  10:24:00      -12.677      -12.608        9.630       27.448       32.618       33.899      753.398     1063.950     1149.153        0.169        0.148       17.879       22.261        1.550      340.027       13.766      862.300
11/09/2014  10:25:00       21.647       -3.774       20.503       29.717       49.209       34.427      883.130     2421.477     1185.219        0.270        0.224       21.973       37.155        2.859      340.096       13.881      862.288
11/09/2014  10:26:00       41.940       -7.637       34.701       53.576       60.500       34.424     2870.422     3660.196     1185.012        0.537        0.386       42.630       35.706        0.702      340.125       13.930      862.273
11/09/2014  10:27:00       63.798       41.021       37.162       84.004       48.641       53.051     7056.684     2365.913     2814.437        0.968        0.612       75.848       30.388        0.161      339.920       13.584      862.234
11/09/2014  10:28:00       72.808      100.635      103.925       85.976       67.434       62.673     7391.829     4547.321     3927.940        2.104        0.793      124.211       64.409        0.269      339.810       13.396      862.204
11/09/2014  10:29:00      107.646       99.221       90.102       81.371       60.592       45.243     6621.317     3671.371     2046.949        2.094        0.617      146.398       38.028        0.067      339.775       13.338      862.177
11/09/2014  10:30:00       33.353       68.392       74.302       62.832       32.233       31.069     3947.903     1038.997      965.311        0.863        0.298       76.091       24.867        0.107      339.880       13.517      862.163
11/09/2014  10:31:00       -8.802       33.752       12.372       27.688       27.790       31.291      766.600      772.311      979.143        0.194        0.126       34.881        8.015        0.053      339.987       13.698      862.184
11/09/2014  10:32:00      -22.771       14.100        9.220       15.116       28.717       27.588      228.502      824.671      761.108        0.131        0.091       26.783       21.407        0.639      340.175       14.013      862.178
11/09/2014  10:33:00       45.693      -12.229       24.331       56.441       56.354       43.887     3185.554     3175.744     1926.046        0.556        0.414       47.301       37.268        0.621      340.246       14.135      862.141
11/09/2014  10:34:00       48.223     -116.731       -1.570       55.188       58.412       52.101     3045.720     3411.932     2714.528        1.256        0.459      126.299       42.077        0.111      339.934       13.609      862.140
11/09/2014  10:35:00       37.208      -57.190        8.481       43.491       55.093       36.627     1891.478     3035.211     1341.555        0.550        0.313       68.228       40.772        0.357      340.323       14.266      862.146
11/09/2014  10:36:00        2.843       -1.505       46.193       31.874       58.484       43.946     1015.945     3420.328     1931.247        0.425        0.318        3.217       41.391      165.545      340.459       14.493      862.131
11/09/2014  10:37:00       30.512        3.321       54.430       61.202       90.876       54.587     3745.674     8258.389     2979.707        0.944        0.749       30.692       60.747        3.917      340.385       14.369      862.121
11/09/2014  10:38:00       40.508      -88.542      -11.627       58.290       74.403       44.917     3397.767     5535.832     2017.531        1.028        0.548       97.368       39.953        0.168      340.245       14.134      862.118
11/09/2014  10:39:00       86.215      -95.525       -0.746       69.531       94.735       49.976     4834.545     8974.758     2497.575        1.643        0.815      128.678       62.715        0.238      340.350       14.308      862.110
11/09/2014  10:40:00       20.212       -5.886       48.216       38.037       45.337       44.614     1446.849     2055.460     1990.435        0.413        0.275       21.051       40.804        3.757      340.440       14.463      862.119
11/09/2014  10:41:00       47.846      -51.785        9.193       30.988       28.469       29.708      960.255      810.472      882.590        0.385        0.133       70.505       23.652        0.113      340.207       14.069      862.131
11/09/2014  10:42:00        0.655        0.715       24.891       26.178       38.392       27.222      685.285     1473.911      741.050        0.176        0.145        0.970       29.988      956.428      340.347       14.305      862.100
11/09/2014  10:43:00       -3.152       16.829       23.313       19.997       14.789       20.979      399.886      218.717      440.119        0.095        0.053       17.122       16.939        0.979      340.688       14.881      862.083
11/09/2014  10:44:00       -7.273       17.247       34.014       17.053       29.608       38.351      290.798      876.647     1470.789        0.207        0.132       18.718       24.828        1.759      340.856       15.166      862.061
11/09/2014  10:45:00       12.308       66.009       97.036       45.067       56.370       33.620     2031.025     3177.594     1130.290        1.013        0.317       67.147       24.487        0.133      340.739       14.967      862.008
11/09/2014  10:46:00       50.718     -113.632       -0.553       27.886       73.290       43.563      777.641     5371.489     1897.706        1.176        0.402      124.437       50.580        0.165      340.045       13.795      862.033
11/09/2014  10:47:00       -8.146      -32.615      -11.835       30.658       30.903       22.549      939.918      954.993      508.437        0.184        0.120       33.617       18.689        0.309      340.330       14.276      862.059
11/09/2014  10:48:00       -0.831      -31.235       19.790       23.482       47.443       34.744      551.383     2250.794     1207.152        0.269        0.200       31.246       33.190        1.128      340.932       15.294      861.983
11/09/2014  10:49:00        1.748      -52.761       25.641       58.768       48.054       36.294     3453.692     2309.224     1317.249        0.526        0.354       52.790       32.547        0.380      340.734       14.959      861.940
11/09/2014  10:50:00       42.704      -10.866       45.999       53.250       52.900       38.700     2835.592     2798.407     1497.716        0.559        0.357       44.065       34.559        0.615      340.747       14.981      861.933
11/09/2014  10:51:00       40.632       40.565       70.251       35.842       41.178       25.441     1284.647     1695.641      647.244        0.593        0.181       57.415       27.837        0.235      340.743       14.975      861.908
11/09/2014  10:52:00        4.935      -54.538       12.239       24.407       36.605       32.090      595.684     1339.955     1029.755        0.306        0.148       54.761       23.252        0.180      340.365       14.336      861.917
11/09/2014  10:53:00      -38.679        9.642       -2.059       17.085       20.847       16.992      291.897      434.606      288.712        0.130        0.051       39.862       12.581        0.100      340.475       14.521      861.889
11/09/2014  10:54:00       15.379      -57.302        1.543       44.729       39.650       32.863     2000.674     1572.140     1080.004        0.409        0.233       59.330       27.864        0.221      340.641       14.802      861.865
11/09/2014  10:55:00      -39.249      -17.630       -6.212       26.226       13.176       16.714      687.813      173.614      279.348        0.152        0.057       43.027        8.981        0.044      340.460       14.496      861.849
11/09/2014  10:56:00      -39.480      -38.078      -18.243       31.108       25.495       18.561      967.690      649.989      344.516        0.265        0.098       54.851       11.611        0.045      340.512       14.585      861.822
11/09/2014  10:57:00       -1.187       13.865        3.743       28.374       59.357       29.601      805.088     3523.219      876.205        0.271        0.260       13.916       16.006        1.323      340.758       15.000      861.804
11/09/2014  10:58:00       34.576       51.425       19.533       34.463       30.291       38.477     1187.715      917.565     1480.464        0.390        0.179       61.968       15.284        0.061      340.734       14.959      861.764
11/09/2014  10:59:00       54.405       76.925       27.766       38.539       29.370       35.382     1485.266      862.600     1251.876        0.662        0.180       94.220       17.102        0.033      340.671       14.854      861.716
11/09/2014  11:00:00       45.438       40.680       38.434       31.035       24.279       20.286      963.181      589.468      411.536        0.358        0.098       60.988       11.125        0.033      340.662       14.838      861.678
11/09/2014  11:01:00       15.395       31.634       10.171       41.084       19.384       26.505     1687.864      375.753      702.510        0.205        0.138       35.181       20.612        0.343      340.896       15.232      861.661
11/09/2014  11:02:00       10.090       14.685       46.437       48.287       67.712       32.784     2331.650     4584.865     1074.767        0.523        0.400       17.817       32.242        3.275      340.954       15.331      861.665
11/09/2014  11:03:00       17.162       10.291       24.170       34.628       53.549       34.114     1199.094     2867.489     1163.747        0.311        0.262       20.011       25.900        1.675      340.914       15.262      861.687
11/09/2014  11:04:00      135.687      112.909       51.240       56.974       31.591       29.366     3246.046      998.019      862.385        1.944        0.255      176.521       18.662        0.011      340.571       14.682      861.659
11/09/2014  11:05:00      114.592       88.908       57.906       69.900       54.408       59.244     4885.969     2960.222     3509.808        1.787        0.568      145.038       33.399        0.053      340.733       14.956      861.604
11/09/2014  11:06:00       86.448      108.680       83.523       58.731       60.067       38.870     3449.336     3607.999     1510.908        1.741        0.428      138.869       30.333        0.048      340.758       14.998      861.568
11/09/2014  11:07:00       11.785       -8.017       30.540       52.268       48.296       37.808     2731.986     2332.467     1429.427        0.381        0.325       14.253       33.395        5.489      341.076       15.538      861.564
11/09/2014  11:08:00       79.543       68.228       33.804       43.470       39.595       38.696     1889.633     1567.758     1497.409        0.854        0.248      104.796       22.472        0.046      340.747       14.981      861.520
11/09/2014  11:09:00       44.420      -20.647       22.907       46.966       78.250       38.720     2205.818     6123.111     1499.253        0.637        0.491       48.984       41.934        0.733      340.949       15.324      861.456
11/09/2014  11:10:00       15.945       11.843       14.610       32.693       31.135       27.454     1068.801      969.368      753.699        0.170        0.140       19.861       18.108        0.831      341.248       15.830      861.399
11/09/2014  11:11:00       54.809       49.991       34.022       34.022       29.800       33.547     1157.521      888.066     1125.404        0.492        0.159       74.183       21.305        0.082      341.110       15.594      861.326
11/09/2014  11:12:00       19.560       66.609       82.202       48.577       52.511       54.987     2359.722     2757.431     3023.552        0.986        0.407       69.422       44.448        0.410      341.449       16.169      861.255
11/09/2014  11:13:00       12.295      -37.922       37.368       35.529       97.513       59.084     1262.343     9508.820     3490.953        0.862        0.713       39.865       65.616        2.709      341.147       15.659      861.233
11/09/2014  11:14:00       13.523       21.630       39.986       32.494       53.099       36.360     1055.880     2819.472     1322.016        0.372        0.260       25.509       32.212        1.595      341.273       15.872      861.259
11/09/2014  11:15:00       58.075       79.249       64.792       46.888       40.160       32.586     2198.474     1612.834     1061.823        0.936        0.244       98.250        9.575        0.009      341.138       15.644      861.244
11/09/2014  11:16:00        7.878       46.313       73.555       32.444       43.824       36.356     1052.595     1920.538     1321.767        0.596        0.215       46.979       32.555        0.480      341.492       16.243      861.216
11/09/2014  11:17:00       54.564      -69.711       -2.406       51.450       68.274       48.458     2647.077     4661.309     2348.191        0.875        0.483       88.526       35.538        0.161      341.066       15.520      861.197
11/09/2014  11:18:00       21.392     -125.047      -17.023       50.862       40.299       26.940     2586.989     1623.988      725.759        1.066        0.247      126.864       19.605        0.024      341.023       15.446      861.196
11/09/2014  11:19:00        3.271      -35.792       14.978       28.800       41.853       28.834      829.427     1751.702      831.421        0.246        0.171       35.941       28.274        0.619      341.434       16.143      861.218
11/09/2014  11:20:00       15.972       17.918       48.379       42.115       54.132       30.939     1773.646     2930.304      957.250        0.429        0.283       24.003       32.583        1.843      341.605       16.435      861.190
11/09/2014  11:21:00       42.460       11.524       65.305       47.737       66.877       48.166     2278.847     4472.520     2319.985        0.763        0.454       43.996       41.650        0.896      341.367       16.029      861.114
11/09/2014  11:22:00       48.148      -97.292       11.415       65.842       95.796       51.405     4335.156     9176.843     2642.451        1.403        0.808      108.554       66.102        0.371      341.209       15.762      861.068
11/09/2014  11:23:00       27.626      -31.027       21.088       55.889       78.453       49.127     3123.597     6154.880     2413.469        0.693        0.585       41.543       62.063        2.232      341.438       16.151      861.052
11/09/2014  11:24:00        2.721      -13.102        7.634       23.842       39.548       22.939      568.452     1564.070      526.199        0.145        0.133       13.382       22.234        2.761      341.464       16.196      861.053
11/09/2014  11:25:00        7.733      -74.316       -8.593       53.256       35.895       26.696     2836.186     1288.462      712.656        0.525        0.242       74.717       25.365        0.115      341.249       15.830      861.044
11/09/2014  11:26:00       -2.650      -42.829       25.576       29.259       73.480       37.651      856.066     5399.312     1417.610        0.508        0.384       42.911       43.091        1.008      341.524       16.296      861.008
11/09/2014  11:27:00       11.351       27.131       58.580       28.092       48.012       33.630      789.175     2305.186     1130.971        0.426        0.211       29.410       28.759        0.956      341.523       16.295      860.992
11/09/2014  11:28:00        2.334      -67.155       10.260       39.486       61.569       55.108     1559.119     3790.753     3036.861        0.650        0.419       67.196       37.596        0.313      341.480       16.223      860.987
11/09/2014  11:29:00       41.549      -13.796       10.507       49.212       49.469       41.662     2421.868     2447.226     1735.696        0.431        0.330       43.779       38.822        0.786      341.373       16.040      860.963
11/09/2014  11:30:00       34.824       35.599       46.069       31.832       35.069       39.247     1013.279     1229.839     1540.327        0.419        0.189       49.800       15.007        0.091      341.353       16.006      860.924
11/09/2014  11:31:00       37.996      -11.949       18.490       32.490       49.008       30.186     1055.609     2401.772      911.210        0.315        0.218       39.830       25.842        0.421      341.346       15.994      860.862
11/09/2014  11:32:00       16.595      -38.239       12.943       28.859       43.160       30.895      832.870     1862.757      954.506        0.278        0.183       41.684       25.651        0.379      341.310       15.934      860.844
11/09/2014  11:33:00        6.151      -25.884       16.011       40.757       54.874       32.920     1661.101     3011.127     1083.744        0.336        0.288       26.604       14.664        0.304      341.646       16.504      860.845
11/09/2014  11:34:00      105.130     -133.177      -34.962       42.358       48.007       22.819     1794.199     2304.675      520.714        1.731        0.231      169.671       16.480        0.009      341.289       15.898      860.825
11/09/2014  11:35:00       24.782      -36.919       -0.459       37.085       40.233       28.907     1375.285     1618.676      835.603        0.290        0.191       44.465       30.004        0.455      341.746       16.673      860.830
11/09/2014  11:36:00       -0.788       15.559       36.720       23.898       25.203       21.251      571.126      635.190      451.585        0.162        0.083       15.579       18.196        1.364      342.111       17.293      860.810
11/09/2014  11:37:00       32.812       51.725       52.655       40.282       39.280       40.339     1622.600     1542.888     1627.254        0.566        0.240       61.255       34.287        0.313      341.549       16.339      860.765
11/09/2014  11:38:00       59.917      108.450       19.272       38.640       38.363       41.542     1493.018     1471.713     1725.753        1.021        0.235      123.901       25.519        0.042      341.409       16.102      860.729
11/09/2014  11:39:00       92.855       58.637       31.275       54.784       28.785       34.902     3001.319      828.584     1218.173        0.904        0.252      109.820       18.785        0.029      341.516       16.283      860.689
11/09/2014  11:40:00       14.985       36.897       -6.135       41.372       35.296       19.223     1711.651     1245.784      369.516        0.247        0.166       39.824       13.694        0.118      341.622       16.462      860.670
11/09/2014  11:41:00       22.433      -42.881        9.788       37.154       44.499       40.415     1380.417     1980.184     1633.384        0.371        0.250       48.395       31.407        0.421      341.900       16.934      860.653
11/09/2014  11:42:00       79.802       10.911       55.899       64.647       68.033       46.644     4179.173     4628.527     2175.657        1.030        0.549       80.545       48.698        0.366      341.920       16.969      860.595
11/09/2014  11:43:00       82.130       17.539       45.059       68.748       55.738       37.909     4726.236     3106.721     1437.057        0.917        0.464       83.982       37.590        0.200      341.691       16.581      860.561
11/09/2014  11:44:00       34.718       52.671       69.755       31.578       43.848       26.498      997.154     1922.668      702.146        0.623        0.181       63.084       22.980        0.133      341.762       16.701      860.531
11/09/2014  11:45:00       90.287       12.900       41.459       60.231       36.024       37.191     3627.728     1297.760     1383.166        0.817        0.315       91.204       20.817        0.052      341.639       16.491      860.495
11/09/2014  11:46:00       15.153       33.300       65.524       57.184       49.378       37.560     3269.975     2438.181     1410.772        0.637        0.356       36.585       35.499        0.942      342.097       17.268      860.480
11/09/2014  11:47:00      -43.779      -33.041        1.949       39.571       29.400       26.331     1565.840      864.386      693.344        0.307        0.156       54.848       24.801        0.204      342.010       17.121      860.487
11/09/2014  11:48:00      -17.661       22.949       31.146       28.163       19.687       20.944      793.148      387.566      438.657        0.171        0.081       28.958       12.913        0.199      342.260       17.547      860.482
11/09/2014  11:49:00       35.736       22.604       38.026       42.281       34.399       28.663     1787.675     1183.300      821.588        0.351        0.190       42.285       24.203        0.328      342.158       17.372      860.425
11/09/2014  11:50:00        3.271       43.977       49.921       22.041       25.607       17.916      485.825      655.720      320.965        0.295        0.073       44.099       15.459        0.123      342.266       17.556      860.396
11/09/2014  11:51:00       27.066       32.413       33.236       39.257       32.970       32.292     1541.133     1087.021     1042.802        0.328        0.184       42.227       26.144        0.383      342.189       17.423      860.379
11/09/2014  11:52:00       95.319       72.657       10.453       38.282       32.182       42.964     1465.523     1035.698     1845.924        0.941        0.217      119.853       26.648        0.049      341.807       16.775      860.367
11/09/2014  11:53:00       12.809       13.323        8.531       31.023       20.144       23.202      962.447      405.780      538.341        0.116        0.095       18.482       20.965        1.287      342.272       17.565      860.357
11/09/2014  11:54:00       45.547      -68.088       15.871       44.112       76.916       41.105     1945.830     5916.065     1689.608        0.825        0.478       81.917       48.409        0.349      342.164       17.382      860.341
11/09/2014  11:55:00       74.639       59.958       39.622       90.144       44.692       41.524     8126.025     1997.367     1724.238        1.129        0.592       95.739       24.971        0.068      341.956       17.029      860.310
11/09/2014  11:56:00       22.445       49.033       51.115       60.346       47.029       37.487     3641.596     2211.700     1405.246        0.639        0.363       53.926       27.842        0.267      342.250       17.529      860.278
11/09/2014  11:57:00       16.329       40.005       -2.909       31.766       64.559       28.391     1009.054     4167.861      806.025        0.393        0.299       43.209       28.514        0.435      342.088       17.255      860.268
11/09/2014  11:58:00      -12.343      133.027      -27.682       30.023       38.080       11.007      901.383     1450.078      121.165        1.054        0.124      133.599       11.491        0.007      341.670       16.543      860.263
11/09/2014  11:59:00      -28.121       83.148       -8.921       26.650       26.886       22.532      710.203      722.867      507.705        0.486        0.097       87.775       14.580        0.028      342.006       17.113      860.278
11/09/2014  12:00:00      -15.213       25.408       -1.111       20.765       27.617       21.861      431.193      762.696      477.898        0.127        0.084       29.615       11.184        0.143      342.150       17.358      860.273
11/09/2014  12:01:00       -1.481       46.208        6.042       22.507       32.108       22.157      506.578     1030.932      490.947        0.210        0.101       46.232       18.647        0.163      342.300       17.614      860.275
11/09/2014  12:02:00       24.826       54.854       17.483       22.862       34.702       21.616      522.671     1204.243      467.268        0.306        0.110       60.210       17.827        0.088      342.281       17.582      860.277
11/09/2014  12:03:00      -15.875      101.558       -7.996       18.307       24.371       19.046      335.144      593.935      362.740        0.596        0.065      102.792       10.685        0.011      342.107       17.286      860.264
11/09/2014  12:04:00       -0.858       71.074       -1.974       15.451       42.565       22.447      238.749     1811.809      503.875        0.380        0.128       71.079       25.387        0.128      342.236       17.504      860.243
11/09/2014  12:05:00       31.167       26.620       -2.388       21.729       22.746       20.178      472.154      517.398      407.148        0.154        0.070       40.988       15.059        0.135      342.169       17.391      860.206
11/09/2014  12:06:00       28.926       43.408        6.954       15.333       19.458       19.950      235.100      378.610      398.000        0.189        0.051       52.163        8.318        0.025      342.011       17.124      860.185
11/09/2014  12:07:00       12.801       21.236        9.016       24.511       24.191       25.277      600.765      585.220      638.906        0.126        0.091       24.796       19.421        0.613      342.314       17.637      860.144
11/09/2014  12:08:00       21.945       35.243       15.293       37.363       26.732       20.141     1395.966      714.598      405.664        0.224        0.126       41.517       18.713        0.203      342.339       17.679      860.100
11/09/2014  12:09:00       13.814        7.170       23.312       19.235       22.480       22.634      369.998      505.351      512.281        0.109        0.069       15.564       13.340        0.735      342.641       18.193      860.055
11/09/2014  12:10:00        1.989      -22.751       34.362       17.612       34.385       23.981      310.181     1182.349      575.066        0.188        0.103       22.838       17.486        0.586      342.626       18.167      860.015
11/09/2014  12:11:00       32.785      -29.408        4.554       37.041       19.992       26.620     1371.999      399.699      708.606        0.222        0.124       44.042       15.673        0.127      342.292       17.600      860.021
11/09/2014  12:12:00       36.817      -23.133      -11.803       31.185       26.896       22.881      972.498      723.402      523.559        0.212        0.111       43.482       16.039        0.136      342.400       17.782      860.007
11/09/2014  12:13:00       -8.118       -0.541        6.379       14.343        6.322       19.971      205.728       39.962      398.853        0.038        0.032        8.136       15.116        3.452      342.965       18.743      859.993
11/09/2014  12:14:00      -12.610       -2.807       10.487       24.731       31.966       16.322      611.645     1021.830      266.411        0.109        0.095       12.919       13.278        1.056      343.006       18.814      859.981
11/09/2014  12:15:00        5.617       12.986        9.830       25.934       19.299       18.548      672.584      372.433      344.014        0.084        0.069       14.149       13.496        0.910      343.039       18.871      859.946
11/09/2014  12:16:00      -19.423       -9.500        0.607       17.261        9.790       11.735      297.935       95.842      137.711        0.050        0.027       21.621        7.826        0.131      343.057       18.902      859.914
11/09/2014  12:17:00       13.229      -10.644       13.201       15.391       17.615       13.068      236.878      310.300      170.772        0.059        0.036       16.979        6.707        0.156      343.296       19.309      859.877
11/09/2014  12:18:00        1.631       19.478      -11.631       16.681       15.433       16.184      278.257      238.169      261.918        0.065        0.039       19.546        8.679        0.197      342.718       18.324      859.861
11/09/2014  12:19:00      -27.948        9.235      -16.264       21.630       13.339        8.828      467.876      177.917       77.930        0.093        0.036       29.435        5.744        0.038      342.811       18.481      859.818
11/09/2014  12:20:00      -11.943        8.478       -4.018       42.378       14.255       19.525     1795.892      203.205      381.241        0.131        0.119       14.647       17.540        1.434      343.054       18.895      859.798
11/09/2014  12:21:00       20.226       19.992      -21.001       24.909       32.689       17.495      620.444     1068.560      306.060        0.162        0.100       28.438       15.416        0.294      342.897       18.629      859.777
11/09/2014  12:22:00       25.268       37.635       -5.367       23.221       27.023       15.523      539.207      730.228      240.973        0.180        0.076       45.331        5.618        0.015      342.916       18.662      859.763
11/09/2014  12:23:00       23.264       21.982        2.963       28.250       12.435       13.420      798.081      154.634      180.096        0.108        0.057       32.007        9.921        0.096      343.022       18.842      859.739
11/09/2014  12:24:00        3.217       35.293       11.685       25.777       21.263       17.985      664.440      452.118      323.449        0.142        0.072       35.439        8.971        0.064      343.171       19.095      859.715
11/09/2014  12:25:00       16.744        6.506       24.730       25.615       38.051       22.394      656.113     1447.860      501.511        0.177        0.130       17.964       17.489        0.948      343.319       19.348      859.687
11/09/2014  12:26:00       19.120      -51.359       -7.195       21.986       24.341       21.467      483.374      592.479      460.854        0.230        0.077       54.802       15.584        0.081      343.102       18.978      859.658
11/09/2014  12:27:00       16.122      -40.906        2.683       27.377       16.992       19.397      749.508      288.723      376.229        0.168        0.071       43.969        4.768        0.012      343.233       19.202      859.635
11/09/2014  12:28:00      -56.940      -20.717        6.739       42.569       33.960       36.175     1812.139     1153.264     1308.599        0.399        0.214       60.592       29.253        0.233      343.194       19.132      859.600
11/09/2014  12:29:00       41.425      -90.451       -9.016       47.258       46.759       26.040     2233.355     2186.435      678.061        0.754        0.255       99.486       24.561        0.061      343.042       18.875      859.564
11/09/2014  12:30:00       94.480      -82.018      -12.285       40.924       34.641       26.653     1674.772     1199.992      710.392        0.969        0.179      125.114       18.644        0.022      342.878       18.596      859.543
11/09/2014  12:31:00       33.154        3.443       34.468       34.363       41.356       28.803     1180.800     1710.325      829.616        0.301        0.186       33.333       24.403        0.536      343.326       19.358      859.512
11/09/2014  12:32:00       31.128       33.315       14.956       29.156       22.210       19.192      850.064      493.288      368.326        0.201        0.086       45.595       13.354        0.086      342.992       18.791      859.498
11/09/2014  12:33:00       -1.091        7.133       11.896       18.866       18.463       14.345      355.924      340.893      205.771        0.055        0.045        7.216       12.504        3.003      343.500       19.655      859.466
11/09/2014  12:34:00       -2.378      -23.987        8.013       21.310       31.090       21.632      454.120      966.582      467.955        0.127        0.094       24.104       13.458        0.312      343.608       19.840      859.453
11/09/2014  12:35:00        3.633       10.003       33.962       25.934       26.518       12.855      672.582      703.186      165.246        0.140        0.077       10.642        8.198        0.593      343.878       20.299      859.439
11/09/2014  12:36:00       83.330       65.517       56.979       46.476       51.604       43.669     2160.023     2662.958     1907.020        1.061        0.337      106.002       36.777        0.120      343.202       19.145      859.422
11/09/2014  12:37:00       12.227       -9.305       26.997       33.527       40.432       32.769     1124.072     1634.722     1073.783        0.240        0.192       15.365       31.259        4.139      343.533       19.711      859.389
11/09/2014  12:38:00       63.857       40.418       26.042       55.611       43.946       32.737     3092.633     1931.226     1071.680        0.624        0.305       75.573       25.344        0.112      343.264       19.252      859.378
11/09/2014  12:39:00      102.130       59.473       21.981       40.519       41.801       34.844     1641.794     1747.343     1214.111        0.953        0.230      118.185       18.411        0.024      343.263       19.251      859.353
11/09/2014  12:40:00       89.159       76.816       17.843       47.350       36.138       31.756     2241.993     1305.956     1008.439        0.936        0.228      117.686       13.916        0.014      343.327       19.360      859.328
11/09/2014  12:41:00      155.254       98.537       14.739       53.165       37.392       32.167     2826.531     1398.160     1034.715        1.964        0.263      183.884       19.563        0.011      343.165       19.082      859.284
11/09/2014  12:42:00       74.067       21.610       16.895       44.914       51.030       35.497     2017.302     2604.085     1260.062        0.606        0.294       77.155       13.517        0.031      343.445       19.562      859.254
11/09/2014  12:43:00       35.217       20.314       38.929       36.721       39.978       34.318     1348.430     1598.264     1177.747        0.365        0.206       40.655       20.885        0.264      343.712       20.017      859.236
11/09/2014  12:44:00      -11.210       29.476        7.423       22.328       25.839       24.905      498.550      667.664      620.276        0.142        0.089       31.535       22.334        0.502      343.681       19.965      859.246
11/09/2014  12:45:00       75.687       47.958       22.292       39.737       30.604       28.866     1579.037      936.613      833.226        0.594        0.167       89.602       21.442        0.057      343.570       19.775      859.249
11/09/2014  12:46:00       34.325       21.653       23.265       37.098       41.252       21.823     1376.264     1701.705      476.235        0.287        0.178       40.584       19.176        0.223      343.685       19.971      859.238
11/09/2014  12:47:00      120.739       82.770       12.703       47.045       35.977       41.799     2213.219     1294.368     1747.124        1.342        0.263      146.386       18.563        0.016      343.320       19.349      859.198
11/09/2014  12:48:00       36.957       19.987        1.998       34.206       47.542       30.450     1170.052     2260.253      927.179        0.306        0.218       42.016       25.297        0.362      343.497       19.650      859.158
11/09/2014  12:49:00       45.879      -43.397       23.886       57.258       62.308       51.211     3278.505     3882.313     2622.563        0.717        0.489       63.152       27.035        0.183      343.685       19.970      859.127
11/09/2014  12:50:00      127.805      -91.517       -1.277       68.690       73.878       53.803     4718.369     5458.012     2894.714        1.889        0.654      157.193       49.506        0.099      343.448       19.565      859.113
11/09/2014  12:51:00       18.314       43.341       60.562       43.193       44.454       33.871     1865.645     1976.122     1147.240        0.543        0.249       47.052       30.554        0.422      343.636       19.887      859.109
11/09/2014  12:52:00       37.590      -19.020       31.848       37.477       32.681       28.085     1404.557     1068.054      788.753        0.302        0.163       42.128       13.892        0.109      343.575       19.784      859.103
11/09/2014  12:53:00       16.334      -63.168       -5.511       41.876       35.294       27.600     1753.630     1245.666      761.752        0.402        0.188       65.246       23.039        0.125      343.372       19.438      859.106
11/09/2014  12:54:00       11.505        8.539       15.284       25.997       30.429       29.165      675.826      925.904      850.570        0.145        0.123       14.328       20.386        2.024      343.724       20.038      859.098
11/09/2014  12:55:00       84.826       55.148       34.105       66.299       36.811       34.437     4395.604     1355.048     1185.917        0.917        0.347      101.177       21.859        0.047      343.500       19.655      859.107
11/09/2014  12:56:00       38.892       24.070       38.195       45.934       28.129       23.502     2109.926      791.237      552.360        0.350        0.173       45.738       18.365        0.161      343.534       19.714      859.103
11/09/2014  12:57:00       68.875       44.212       45.286       54.618       67.359       44.255     2983.149     4537.251     1958.512        0.911        0.474       81.845       34.912        0.182      343.527       19.701      859.075
11/09/2014  12:58:00       47.683      -50.039       -4.414       32.114       32.010       23.692     1031.320     1024.658      561.296        0.371        0.131       69.120       20.231        0.086      343.561       19.759      859.067
11/09/2014  12:59:00       48.848     -104.409       -8.047       35.612       53.401       32.061     1268.233     2851.713     1027.925        0.925        0.257      115.271       31.601        0.075      343.625       19.868      859.058
11/09/2014  13:00:00       -4.372       -4.460       21.937       19.419       29.928       17.267      377.100      895.676      298.164        0.105        0.079        6.245       16.257        6.776      344.043       20.582      859.043
11/09/2014  13:01:00       86.609      -79.098        4.462       65.605       67.015       45.615     4304.037     4491.076     2080.771        1.232        0.544      117.293       41.361        0.124      343.693       19.983      859.035
11/09/2014  13:02:00       40.496       12.679       34.213       48.117       55.828       33.511     2315.200     3116.785     1122.958        0.476        0.328       42.435       36.233        0.729      343.756       20.091      859.024
11/09/2014  13:03:00       27.643       45.768       58.456       45.811       42.653       28.815     2098.659     1819.254      830.325        0.551        0.237       53.468       25.983        0.236      343.901       20.339      859.003
11/09/2014  13:04:00        9.313      -12.379        5.048       20.820       23.294       20.389      433.460      542.628      415.692        0.083        0.070       15.492       17.191        1.231      343.743       20.071      858.979
11/09/2014  13:05:00        9.856      -17.197        4.774       15.460       18.363       13.844      239.015      337.187      191.651        0.059        0.038       19.821        8.609        0.189      343.769       20.114      858.935
11/09/2014  13:06:00       32.107      -25.191       17.391       49.253       58.272       28.155     2425.842     3395.652      792.715        0.429        0.331       40.809       22.686        0.309      343.826       20.212      858.891
11/09/2014  13:07:00       58.249      -62.824       19.801       73.652       71.394       50.346     5424.622     5097.128     2534.743        1.039        0.653       85.673       36.491        0.181      344.068       20.626      858.841
11/09/2014  13:08:00       99.212       -2.880       35.547       62.925       83.202       46.350     3959.577     6922.651     2148.356        1.207        0.652       99.254       41.766        0.177      343.773       20.120      858.797
11/09/2014  13:09:00       69.174      -38.868       -4.989       54.715       78.050       33.204     2993.701     6091.850     1102.475        0.825        0.509       79.346       20.305        0.065      343.842       20.238      858.765
11/09/2014  13:10:00       71.089      -71.969        4.403       44.572       55.884       36.794     1986.687     3123.015     1353.815        0.836        0.323      101.159       41.536        0.169      343.800       20.167      858.743
11/09/2014  13:11:00       10.066      -60.083        8.365       50.268       69.821       28.631     2526.881     4874.926      819.757        0.600        0.411       60.921       36.109        0.351      343.937       20.400      858.705
11/09/2014  13:12:00      115.637     -135.283      -21.134       58.052       59.949       40.913     3370.032     3593.876     1673.901        2.038        0.432      177.970       20.600        0.013      343.890       20.318      858.673
11/09/2014  13:13:00      105.467     -166.244      -16.796       53.885       60.381       30.854     2903.638     3645.807      951.941        2.327        0.375      196.876       21.959        0.012      343.832       20.220      858.663
11/09/2014  13:14:00        4.789      -90.385      -11.639       32.252       28.247       24.903     1040.190      797.887      620.169        0.539        0.123       90.512       19.843        0.048      343.891       20.322      858.669
11/09/2014  13:15:00       -7.862      -30.092        7.816       26.588       38.596       23.813      706.944     1489.638      567.046        0.190        0.138       31.102        7.914        0.065      343.917       20.367      858.649
11/09/2014  13:16:00       22.223       24.411       33.612       38.739       25.390       30.920     1500.704      644.632      956.044        0.266        0.155       33.011       18.782        0.324      343.969       20.455      858.634
11/09/2014  13:17:00       32.913       11.765       18.524       42.351       48.269       25.675     1793.628     2329.906      659.228        0.317        0.239       34.953       11.671        0.111      343.954       20.430      858.620
11/09/2014  13:18:00       24.229       17.274       38.129       47.054       39.731       34.794     2214.071     1578.581     1210.646        0.367        0.250       29.757       37.177        1.561      344.015       20.535      858.612
11/09/2014  13:19:00       42.358       20.352       28.718       38.077       29.694       35.198     1449.845      881.739     1238.915        0.330        0.179       46.993       19.307        0.169      343.995       20.500      858.609
11/09/2014  13:20:00       33.082       16.201       18.976       26.681       25.870       17.341      711.870      669.269      300.719        0.170        0.084       36.836       14.799        0.161      344.195       20.842      858.613
11/09/2014  13:21:00       40.072      -16.005       32.832       57.250       73.786       50.018     3277.609     5444.445     2501.759        0.708        0.561       43.150       56.551        1.718      344.134       20.737      858.611
11/09/2014  13:22:00       -0.689       51.209       59.238       29.397       37.731       27.159      864.213     1423.619      737.600        0.458        0.151       51.214       19.883        0.151      343.988       20.487      858.585
11/09/2014  13:23:00       50.574      -10.513       32.951       49.360       55.843       35.790     2436.431     3118.461     1280.914        0.529        0.342       51.655       41.776        0.654      344.122       20.717      858.566
11/09/2014  13:24:00        7.085       27.698       20.880       24.348       35.676       16.702      592.823     1272.788      278.952        0.170        0.107       28.590       16.693        0.341      344.294       21.011      858.549
11/09/2014  13:25:00       -2.200      -41.587       13.336       36.993       47.015       31.567     1368.491     2210.452      996.452        0.324        0.229       41.645       24.659        0.351      344.614       21.558      858.513
11/09/2014  13:26:00       22.030       37.440       79.222       46.234       57.598       36.831     2137.592     3317.548     1356.499        0.749        0.341       43.440       33.065        0.579      344.296       21.015      858.497
11/09/2014  13:27:00       63.044      -51.771       19.751       37.172       48.654       38.659     1381.749     2367.245     1494.486        0.614        0.262       81.577       35.850        0.193      344.132       20.735      858.485
11/09/2014  13:28:00       14.118      -39.820        5.179       18.714       25.176       16.517      350.225      633.810      272.811        0.153        0.063       42.249       15.627        0.137      344.148       20.761      858.470
11/09/2014  13:29:00       27.726       -5.944       -3.586       13.493       27.005       11.287      182.074      729.273      127.391        0.093        0.052       28.355        8.452        0.089      343.975       20.466      858.430
11/09/2014  13:30:00       35.624       25.477       15.052       13.695       20.613       19.151      187.553      424.906      366.780        0.156        0.049       43.796       10.578        0.058      344.209       20.867      858.402
11/09/2014  13:31:00       46.345      -38.249        6.107       38.026       35.123       19.354     1446.010     1233.633      374.593        0.335        0.153       60.091       19.296        0.103      343.874       20.293      858.385
11/09/2014  13:32:00       50.441       29.375       31.260       33.047       34.107       28.889     1092.125     1163.259      834.583        0.374        0.154       58.371       19.984        0.117      344.105       20.688      858.370
11/09/2014  13:33:00        5.175      -68.002        8.195       30.518       73.220       47.515      931.330     5361.206     2257.710        0.663        0.428       68.198       54.196        0.632      344.311       21.040      858.345
11/09/2014  13:34:00       58.643      -60.498        4.779       63.942       62.252       31.446     4088.608     3875.339      988.855        0.804        0.448       84.255       37.373        0.197      344.514       21.386      858.346
11/09/2014  13:35:00      129.941     -175.533      -19.943       43.627       39.519       36.166     1903.276     1561.748     1307.989        2.643        0.239      218.395       21.834        0.010      344.356       21.114      858.358
11/09/2014  13:36:00       12.102      -38.135       18.392       33.060       72.751       33.492     1092.933     5292.681     1121.716        0.472        0.375       40.009       35.390        0.782      344.579       21.498      858.358
11/09/2014  13:37:00        5.885      -69.251      -11.894       30.999       49.688       18.863      960.937     2468.906      355.819        0.438        0.189       69.500       19.657        0.080      344.287       20.998      858.366
11/09/2014  13:38:00       -7.550       -0.580       14.172       34.756       34.471       19.976     1207.953     1188.249      399.043        0.153        0.140        7.572       20.324        7.204      344.686       21.681      858.347
11/09/2014  13:39:00       32.499      -72.009       16.624       38.102       64.838       28.919     1451.789     4203.988      836.301        0.650        0.325       79.003       36.220        0.210      344.479       21.328      858.320
11/09/2014  13:40:00       19.262      -22.179       41.594       40.315       62.669       28.699     1625.288     3927.447      823.606        0.448        0.319       29.376       35.731        1.479      344.542       21.436      858.291
11/09/2014  13:41:00       27.674       30.569       36.672       61.397       38.323       29.938     3769.556     1468.617      896.294        0.459        0.307       41.234       27.288        0.438      344.471       21.313      858.264
11/09/2014  13:42:00      145.607       68.274       30.265       65.296       34.134       39.059     4263.556     1165.123     1525.628        1.687        0.348      160.819       29.381        0.033      344.255       20.943      858.256
11/09/2014  13:43:00      104.729       63.046       18.459       29.188       31.674       19.266      851.923     1003.214      371.187        0.875        0.111      122.242        9.572        0.006      344.288       21.001      858.246
11/09/2014  13:44:00       83.874       46.040        2.288       44.496       42.031       23.437     1979.897     1766.611      549.303        0.673        0.215       95.680       20.436        0.046      344.363       21.129      858.235
11/09/2014  13:45:00       72.612       58.940       18.698       36.392       25.838       24.389     1324.394      667.587      594.803        0.584        0.129       93.522       18.960        0.041      344.333       21.079      858.226
11/09/2014  13:46:00       62.264       65.546       11.076       40.117       35.727       30.994     1609.385     1276.444      960.635        0.607        0.192       90.406       25.308        0.078      344.402       21.196      858.216
11/09/2014  13:47:00       46.835       52.402       -1.936       47.772       45.191       31.969     2282.177     2042.258     1022.038        0.514        0.267       70.281       28.311        0.162      344.443       21.265      858.194
11/09/2014  13:48:00       48.943       41.648       -5.005       41.042       42.105       29.701     1684.475     1772.852      882.172        0.425        0.217       64.266       22.810        0.126      344.385       21.167      858.176
11/09/2014  13:49:00       34.420       46.041       -0.200       33.921       22.062       21.336     1150.634      486.730      455.212        0.270        0.105       57.484       17.431        0.092      344.463       21.300      858.169
11/09/2014  13:50:00       47.810       13.604       16.683       29.439       22.815       18.927      866.668      520.521      358.229        0.225        0.087       49.708        9.113        0.034      344.352       21.109      858.156
11/09/2014  13:51:00       59.390       43.984        5.654       29.920       24.920       19.942      895.199      621.018      397.664        0.370        0.096       73.903       15.018        0.041      344.433       21.249      858.152
11/09/2014  13:52:00      112.851       74.012       18.104       24.010       15.618       26.848      576.499      243.911      720.796        1.004        0.077      134.956       14.567        0.012      344.414       21.217      858.157
11/09/2014  13:53:00       96.117       60.658       18.716       36.984       24.350       26.319     1367.836      592.934      692.697        0.796        0.133      113.657       14.680        0.017      344.556       21.458      858.132
11/09/2014  13:54:00       81.127       60.948        5.899       44.341       43.037       29.012     1966.161     1852.153      841.717        0.749        0.233      101.471       14.833        0.021      344.570       21.483      858.107
11/09/2014  13:55:00       32.721        9.990       25.891       49.721       30.813       26.521     2472.198      949.456      703.359        0.298        0.206       34.212       16.370        0.229      344.740       21.773      858.113
11/09/2014  13:56:00      -10.071      -19.623        4.302       13.015       11.938       10.927      169.399      142.525      119.408        0.047        0.022       22.057        7.358        0.111      344.840       21.943      858.137
11/09/2014  13:57:00       -4.774      -25.594      -11.839       20.312       28.341       12.569      412.565      803.220      157.990        0.110        0.069       26.036       10.909        0.176      344.796       21.869      858.159
11/09/2014  13:58:00       22.445        4.773        4.141       29.690       25.473       23.645      881.498      648.854      559.067        0.132        0.104       22.947       17.977        0.614      344.932       22.103      858.164
11/09/2014  13:59:00       41.033       29.016       16.984       22.353       25.971       22.521      499.647      674.504      507.174        0.225        0.084       50.255       11.974        0.057      344.602       21.539      858.175
11/09/2014  14:00:00       40.742       -0.104       15.127       43.146       24.563       19.505     1861.552      603.345      380.429        0.237        0.142       40.742       19.648        0.233      344.843       21.950      858.175
11/09/2014  14:01:00        5.543        7.744       21.832       18.938       18.228       19.593      358.637      332.272      383.897        0.082        0.054        9.523       13.797        2.099      344.987       22.195      858.165
11/09/2014  14:02:00       25.448      -56.452       15.937       46.300       43.217       30.344     2143.701     1867.668      920.729        0.451        0.247       61.923       25.383        0.168      344.903       22.052      858.150
11/09/2014  14:03:00       -8.618       -4.751       12.598       31.985       26.086       19.405     1023.067      680.490      376.560        0.117        0.104        9.841       18.038        3.360      345.041       22.289      858.133
11/09/2014  14:04:00       44.888       13.377       13.565       35.306       45.792       27.826     1246.486     2096.867      774.269        0.325        0.206       46.839       11.112        0.056      344.837       21.940      858.089
11/09/2014  14:05:00       34.694       38.799       27.548       39.333       28.444       25.560     1547.082      809.050      653.294        0.324        0.150       52.048       19.230        0.137      344.970       22.167      858.075
11/09/2014  14:06:00       22.245       50.068       39.144       27.926       28.337       26.144      779.863      802.983      683.515        0.340        0.113       54.787       10.928        0.040      344.973       22.171      858.066
11/09/2014  14:07:00       80.408       60.603       28.077       24.067       32.468       26.212      579.214     1054.176      687.061        0.662        0.116      100.688       14.947        0.022      344.876       22.007      858.061
11/09/2014  14:08:00       41.680       61.419       -2.978       35.507       33.972       26.125     1260.743     1154.085      682.511        0.431        0.155       74.226       23.939        0.104      344.927       22.095      858.076
11/09/2014  14:09:00       16.852       66.326       -4.253       25.623       22.924       22.628      656.553      525.489      512.013        0.320        0.085       68.434       15.435        0.051      344.893       22.035      858.082
11/09/2014  14:10:00       35.866       30.547        1.990       37.464       24.598       17.206     1403.523      605.047      296.062        0.226        0.115       47.111       11.934        0.064      345.029       22.269      858.077
11/09/2014  14:11:00       26.642      -10.341        8.879       21.576       33.200       18.418      465.526     1102.218      339.226        0.140        0.095       28.579       15.189        0.282      344.986       22.195      858.073
11/09/2014  14:12:00       36.606      -35.963        2.453       41.799       22.635       22.571     1747.192      512.322      509.472        0.270        0.138       51.316       10.200        0.040      344.602       21.537      858.083
11/09/2014  14:13:00       82.158       27.162        9.662       26.469       25.101       17.032      700.606      630.043      290.082        0.460        0.081       86.531       13.483        0.024      344.690       21.687      858.070
11/09/2014  14:14:00       90.332       72.223       24.022       18.724       20.696       22.717      350.597      428.323      516.064        0.762        0.065      115.655        8.310        0.005      344.895       22.040      858.039
11/09/2014  14:15:00       50.320       40.158       25.866       30.243       23.756       16.792      914.658      564.351      281.983        0.329        0.088       64.380       10.738        0.028      345.044       22.296      858.018
11/09/2014  14:16:00      -15.707      -29.193       32.827       39.095       48.237       34.729     1528.421     2326.823     1206.133        0.362        0.253       33.150       33.476        1.020      345.248       22.643      858.014
11/09/2014  14:17:00       63.302      -81.573        8.568       68.203       53.528       32.857     4651.611     2865.283     1079.563        0.966        0.430      103.254       36.898        0.128      345.273       22.684      858.000
11/09/2014  14:18:00       24.609      -51.183       23.583       44.691       43.682       39.087     1997.246     1908.150     1527.789        0.461        0.272       56.791       23.875        0.177      345.312       22.752      857.994
11/09/2014  14:19:00       32.386       27.417       16.881       26.204       34.577       23.006      686.624     1195.577      529.287        0.225        0.121       42.433       20.126        0.225      345.112       22.410      857.991
11/09/2014  14:20:00       73.323       17.511        0.027       44.267       35.867       29.576     1959.588     1286.431      874.710        0.490        0.206       75.385       17.251        0.052      345.110       22.407      857.984
11/09/2014  14:21:00       64.359       35.527        8.454       65.345       42.477       32.230     4269.938     1804.277     1038.773        0.629        0.356       73.514       18.649        0.064      345.177       22.521      857.982
11/09/2014  14:22:00       55.363       24.432       19.764       33.751       28.932       28.256     1139.138      837.081      798.380        0.341        0.139       60.514       10.786        0.032      345.115       22.415      857.975
11/09/2014  14:23:00       75.004       45.069       11.822       39.890       31.021       34.283     1591.182      962.325     1175.345        0.576        0.186       87.504       23.305        0.071      345.172       22.514      857.949
11/09/2014  14:24:00       22.701       27.664       35.871       28.831       32.311       21.023      831.223     1044.012      441.976        0.244        0.116       35.786       14.225        0.158      345.283       22.703      857.935
11/09/2014  14:25:00       28.948      -36.590       11.927       46.034       40.863       28.361     2119.099     1669.791      804.338        0.346        0.230       46.656       13.675        0.086      345.163       22.498      857.950
11/09/2014  14:26:00       59.790      -69.220        4.030       35.307       46.276       20.540     1246.612     2141.450      421.878        0.610        0.190       91.467       18.353        0.040      345.283       22.703      857.952
11/09/2014  14:27:00       34.902      -15.271       27.048       43.432       55.346       34.202     1886.309     3063.167     1169.801        0.415        0.306       38.097       38.105        1.000      345.291       22.716      857.934
11/09/2014  14:28:00       42.844      -46.472       28.102       48.820       49.676       35.025     2383.409     2467.677     1226.716        0.543        0.304       63.208       32.846        0.270      345.297       22.726      857.916
11/09/2014  14:29:00       46.817       46.118       49.290       34.783       34.395       26.360     1209.829     1183.024      694.843        0.492        0.154       65.717       11.880        0.033      344.988       22.199      857.918
11/09/2014  14:30:00       13.751       22.378        4.126       28.595       24.671       16.122      817.647      608.647      259.907        0.120        0.084       26.265       12.697        0.234      345.057       22.316      857.912
11/09/2014  14:31:00       27.567      -39.249        7.975       38.082       45.052       25.678     1450.245     2029.674      659.338        0.325        0.207       47.963       17.761        0.137      345.297       22.725      857.896
11/09/2014  14:32:00       16.318      -33.094       14.022       25.542       36.126       23.686      652.388     1305.110      561.024        0.204        0.126       36.898       15.819        0.184      345.585       23.221      857.867
11/09/2014  14:33:00       33.732      -97.328      -13.386       25.833       29.402       25.162      667.327      864.450      633.122        0.648        0.108      103.008       11.564        0.013      345.321       22.768      857.845
11/09/2014  14:34:00        7.546      -51.325       -6.753       26.215       25.266       19.144      687.227      638.381      366.488        0.221        0.085       51.877        6.110        0.014      345.549       23.159      857.840
11/09/2014  14:35:00       -6.821       -5.074       13.069       12.046       15.090       11.223      145.114      227.698      125.947        0.037        0.025        8.502        5.601        0.434      345.892       23.747      857.826
11/09/2014  14:36:00       14.503        4.180       13.761       22.238       23.083       16.739      494.524      532.814      280.209        0.086        0.065       15.093        8.487        0.316      345.543       23.148      857.798
11/09/2014  14:37:00       32.068       35.861       15.822       14.891       15.424       15.802      221.756      237.906      249.712        0.164        0.035       48.108       10.276        0.046      345.036       22.280      857.756
11/09/2014  14:38:00       52.629       33.377       27.121       20.481       19.746       21.408      419.488      389.913      458.284        0.294        0.063       62.321       14.393        0.053      345.013       22.240      857.726
11/09/2014  14:39:00       58.641      -83.737       11.684       61.391       70.384       41.644     3768.798     4953.938     1734.228        1.052        0.523      102.229       48.388        0.224      345.255       22.655      857.725
11/09/2014  14:40:00       57.109      -39.259       35.742       43.597       51.426       37.306     1900.657     2644.587     1391.702        0.601        0.297       69.301       27.551        0.158      345.434       22.961      857.738
11/09/2014  14:41:00      103.733      -86.837      -11.373       52.552       70.501       44.783     2761.667     4970.430     2005.540        1.408        0.487      135.282       47.926        0.126      345.405       22.910      857.733
11/09/2014  14:42:00       75.015      -63.298        7.368       60.104       69.723       48.488     3612.453     4861.302     2351.053        1.025        0.541       98.152       50.344        0.263      345.499       23.072      857.725
11/09/2014  14:43:00       46.983      -27.019       32.116       57.482       49.365       36.278     3304.191     2436.928     1316.129        0.551        0.353       54.198       34.243        0.399      345.541       23.145      857.733
11/09/2014  14:44:00       59.320        8.662       32.432       40.915       54.457       37.639     1674.072     2965.533     1416.723        0.535        0.303       59.949       38.236        0.407      345.009       22.235      857.727
11/09/2014  14:45:00       29.280       17.028       20.050       49.728       25.675       24.859     2472.923      659.228      617.966        0.265        0.188       33.872       26.092        0.593      345.141       22.460      857.723
11/09/2014  14:46:00       16.356      -60.733      -10.108       62.305       51.989       29.075     3881.854     2702.860      845.378        0.574        0.372       62.897       37.114        0.348      345.448       22.986      857.729
11/09/2014  14:47:00       59.533       -8.042       29.091       54.914       51.173       31.826     3015.586     2618.672     1012.880        0.555        0.332       60.073       31.298        0.271      345.459       23.004      857.721
11/09/2014  14:48:00       51.427       61.424       42.414       55.219       42.583       33.179     3049.164     1813.328     1100.846        0.709        0.298       80.111       27.756        0.120      345.156       22.484      857.699
11/09/2014  14:49:00       64.936       56.639       21.327       26.119       23.047       30.733      682.222      531.186      944.491        0.502        0.108       86.166       17.438        0.041      345.366       22.845      857.709
11/09/2014  14:50:00       -8.658       36.888        1.420       20.895       19.056       12.334      436.584      363.117      152.127        0.119        0.048       37.890       10.791        0.081      345.654       23.338      857.729
11/09/2014  14:51:00       20.558       31.339        9.178       49.607       31.186       24.889     2460.866      972.587      619.460        0.277        0.203       37.480       20.831        0.309      345.641       23.317      857.769
11/09/2014  14:52:00       51.496       55.897       -0.516       48.587       34.810       26.504     2360.736     1211.752      702.462        0.502        0.214       76.002       16.380        0.046      345.471       23.026      857.778
11/09/2014  14:53:00       54.535       33.378       17.183       20.236       16.390       19.181      409.515      268.634      367.906        0.271        0.052       63.938       10.889        0.029      345.446       22.980      857.751
11/09/2014  14:54:00       54.408       47.685       18.545       23.623       20.415       21.357      558.025      416.770      456.121        0.350        0.072       72.347       14.953        0.043      345.525       23.118      857.710
11/09/2014  14:55:00       12.344       91.783      -14.980       25.997       32.552       19.670      675.861     1059.654      386.907        0.546        0.106       92.609       17.813        0.037      345.535       23.135      857.687
11/09/2014  14:56:00        5.163       57.614        0.688       26.479       33.249       21.248      701.158     1105.507      451.478        0.280        0.113       57.845       20.423        0.125      345.592       23.231      857.684
11/09/2014  14:57:00       65.192       47.435        7.168       44.537       48.503       21.007     1983.589     2352.499      441.302        0.566        0.239       80.623       12.495        0.024      345.519       23.106      857.678
11/09/2014  14:58:00        5.541       30.936       -1.125       40.074       19.030       15.005     1605.903      362.140      225.140        0.159        0.110       31.428       10.792        0.118      345.612       23.266      857.669
11/09/2014  14:59:00       -9.586       65.984      -16.907       18.971       22.136       11.749      359.902      490.005      138.030        0.286        0.049       66.677        9.794        0.022      345.602       23.250      857.680
11/09/2014  15:00:00        0.121       71.289      -10.455       16.905       26.342       11.575      285.764      693.876      133.981        0.315        0.056       71.289       11.052        0.024      345.680       23.383      857.695
11/09/2014  15:01:00        0.941      142.016      -16.226       34.505       50.959       17.302     1190.585     2596.784      299.342        1.226        0.204      142.019       14.883        0.011      345.607       23.257      857.700
11/09/2014  15:02:00       31.251      107.862       -7.117       24.902       49.155       24.968      620.112     2416.224      623.385        0.816        0.183      112.298       26.705        0.057      345.525       23.115      857.693
11/09/2014  15:03:00       34.416       38.794        4.382       27.716       18.111       15.373      768.159      327.995      236.330        0.202        0.067       51.860        8.145        0.025      345.556       23.169      857.675
11/09/2014  15:04:00      -46.268      -29.012      -12.269       62.170       62.645       16.301     3865.093     3924.367      265.716        0.559        0.403       54.612       15.188        0.077      345.700       23.419      857.670
11/09/2014  15:05:00      -68.855      -44.459      -13.321       48.817       34.388       13.966     2383.143     1182.509      195.062        0.533        0.188       81.961       10.559        0.017      345.790       23.573      857.675
11/09/2014  15:06:00     -137.109      -39.580       -4.320       75.604       74.081       45.670     5716.022     5487.947     2085.773        1.683        0.664      142.708       46.815        0.108      346.038       23.996      857.649
11/09/2014  15:07:00        5.738     -155.945      -30.772      151.440       76.523       40.158    22934.046     5855.771     1612.652        2.784        1.520      156.050       70.501        0.204      345.755       23.509      857.653
11/09/2014  15:08:00       87.008      -75.416        4.427       80.074      110.274       77.306     6411.863    12160.373     5976.237        1.891        1.227      115.143       73.852        0.411      345.644       23.320      857.608
11/09/2014  15:09:00      -35.410     -114.402       -1.837      146.250       90.011       53.066    21388.934     8102.066     2815.963        2.332        1.615      119.757       55.393        0.214      345.862       23.694      857.605
11/09/2014  15:10:00     -115.285     -149.403      -18.146       81.812       54.186       39.336     6693.280     2936.113     1547.352        2.356        0.559      188.712       46.488        0.061      346.044       24.006      857.608
11/09/2014  15:11:00     -173.558     -100.819       -0.625       97.939       57.172       40.785     9591.959     3268.645     1663.406        2.740        0.726      200.716       44.396        0.049      346.129       24.153      857.583
11/09/2014  15:12:00     -309.817     -183.955       -0.829      120.971      104.663       63.935    14634.060    10954.292     4087.737        7.975        1.484      360.314       62.976        0.031      346.188       24.253      857.565
11/09/2014  15:13:00     -314.651     -149.624      -14.375      105.633       85.549       48.578    11158.246     7318.557     2359.832        7.121        1.042      348.414       50.215        0.021      346.216       24.299      857.546
11/09/2014  15:14:00     -337.629     -227.849        5.178      177.869      163.724       91.906    31637.281    26805.546     8446.743       11.640        3.344      407.319       93.735        0.053      346.117       24.129      857.522
11/09/2014  15:15:00     -325.098     -143.854      -24.111      146.510      123.472       60.844    21465.276    15245.313     3701.957        8.368        2.021      355.504       68.266        0.037      346.125       24.142      857.520
11/09/2014  15:16:00     -187.074     -112.125       15.580      144.639      124.821       73.300    20920.508    15580.219     5372.837        4.483        2.094      218.102       85.311        0.153      346.109       24.117      857.510
11/09/2014  15:17:00     -443.382     -300.738       -5.506      210.624      172.464       90.400    44362.314    29743.979     8172.136       18.465        4.114      535.753      103.131        0.037      346.037       23.994      857.463
11/09/2014  15:18:00     -316.116     -205.410      -14.668      154.738      109.594       63.788    23943.712    12010.851     4068.937        9.117        2.001      376.991       66.693        0.031      346.017       23.959      857.440
11/09/2014  15:19:00     -284.526     -114.556       -3.474      149.374      136.746       71.475    22312.456    18699.515     5108.671        7.010        2.306      306.722       82.470        0.072      346.020       23.964      857.395
11/09/2014  15:20:00     -187.588     -108.817        8.873      145.654      106.971       58.496    21215.112    11442.690     3421.775        4.159        1.804      216.865       69.670        0.103      345.963       23.866      857.390
11/09/2014  15:21:00     -316.349     -168.661       -7.634      143.282      113.522       64.378    20529.869    12887.221     4144.572        8.306        1.878      358.501       72.419        0.041      345.976       23.888      857.375
11/09/2014  15:22:00     -263.232     -210.673       -1.580      185.780      129.448       81.848    34514.381    16756.912     6699.156        8.581        2.899      337.156       95.316        0.080      345.932       23.812      857.390
11/09/2014  15:23:00     -239.331     -160.304        5.958      231.007      184.880       99.876    53364.391    34180.786     9975.307        9.025        4.876      288.056      108.964        0.143      345.879       23.722      857.392
11/09/2014  15:24:00     -300.549     -147.179       -6.909      182.451      138.910       79.520    33288.401    19296.125     6323.501        8.546        2.945      334.651       96.561        0.083      345.884       23.731      857.414
11/09/2014  15:25:00     -306.950     -196.125      -10.291      144.620      141.203       75.896    20914.862    19938.245     5760.262        8.969        2.331      364.258       78.680        0.047      345.862       23.693      857.409
11/09/2014  15:26:00     -252.816     -120.853        2.281      172.599      145.121       81.035    29790.262    21060.038     6566.679        6.796        2.871      280.216       86.014        0.094      345.859       23.689      857.399
11/09/2014  15:27:00     -227.098     -155.768      -17.968      124.215      110.220       59.894    15429.310    12148.512     3587.272        5.366        1.558      275.386       60.799        0.049      345.857       23.686      857.411
11/09/2014  15:28:00     -150.629      -84.737      -10.276      104.095       79.965       48.712    10835.808     6394.381     2372.883        2.479        0.980      172.828       41.007        0.056      345.820       23.623      857.418
11/09/2014  15:29:00     -147.806      -79.277        4.978      118.409      103.933       56.889    14020.716    10802.038     3236.319        2.810        1.403      167.724       55.252        0.109      345.810       23.605      857.415
11/09/2014  15:30:00     -191.843       -5.326        2.256      109.535      104.734       55.741    11997.847    10969.314     3107.067        3.145        1.304      191.917       59.009        0.095      345.783       23.557      857.409
11/09/2014  15:31:00     -295.825      -50.622      -19.826      140.938       92.668       59.662    19863.637     8587.287     3559.564        6.123        1.601      300.125       72.937        0.059      345.832       23.640      857.386
11/09/2014  15:32:00     -240.116      -29.960      -12.768      121.184      105.110       52.993    14685.555    11048.066     2808.250        4.362        1.427      241.978       55.348        0.052      345.814       23.610      857.387
11/09/2014  15:33:00     -488.511        8.423      -38.072      160.584       96.211       63.226    25787.216     9256.642     3997.564       13.959        1.952      488.584       65.725        0.018      345.874       23.714      857.391
11/09/2014  15:34:00     -196.830      -32.359       -2.695      125.626      104.400       56.976    15781.989    10899.425     3246.234        3.486        1.496      199.472       60.967        0.093      345.799       23.586      857.416
11/09/2014  15:35:00     -271.673     -114.016      -11.471      143.637      134.695       65.399    20631.699    18142.832     4277.022        6.499        2.153      294.628       59.005        0.040      345.816       23.612      857.416
11/09/2014  15:36:00     -201.310       13.699       -7.699      105.357       68.576       46.763    11100.179     4702.604     2186.791        2.938        0.899      201.776       50.617        0.063      345.805       23.597      857.431
11/09/2014  15:37:00     -157.711      -38.397        7.476       70.346       86.825       42.573     4948.549     7538.661     1812.472        2.035        0.715      162.318       38.879        0.057      345.782       23.556      857.433
11/09/2014  15:38:00     -213.067       38.024        0.108      147.094       83.456       57.840    21636.552     6964.834     3345.409        3.939        1.597      216.434       69.027        0.102      345.745       23.494      857.450
11/09/2014  15:39:00     -216.650      -48.410       -3.328      122.919       84.078       63.021    15108.995     7069.178     3971.646        3.772        1.307      221.992       70.146        0.100      345.753       23.507      857.438
11/09/2014  15:40:00     -235.310      -86.009       -3.637      110.797      128.035       60.620    12275.897    16393.001     3674.747        4.756        1.617      250.536       57.940        0.053      345.726       23.459      857.421
11/09/2014  15:41:00     -212.455     -112.005       -4.689      117.273       87.630       49.680    13752.886     7678.955     2468.095        4.080        1.195      240.172       54.007        0.051      345.713       23.438      857.432
11/09/2014  15:42:00     -130.709      -22.878        5.758       67.417       91.298       47.113     4545.006     8335.236     2219.665        1.637        0.755      132.696       37.442        0.080      345.685       23.390      857.428
11/09/2014  15:43:00     -256.214      -83.559       -6.081      133.637       88.130       55.371    17858.764     7766.811     3065.959        5.067        1.435      269.495       61.861        0.053      345.689       23.399      857.415
11/09/2014  15:44:00     -250.176      -71.571        3.198      137.836       99.989       63.144    18998.719     9997.784     3987.177        5.035        1.649      260.212       65.859        0.064      345.645       23.320      857.421
11/09/2014  15:45:00     -178.382      -50.923        4.279      188.604       99.361       57.532    35571.588     9872.624     3309.944        4.158        2.438      185.508       68.189        0.135      345.587       23.222      857.421
11/09/2014  15:46:00     -157.453       19.242       -3.357      102.071       75.895       51.366    10418.395     5760.013     2638.421        2.199        0.941      158.625       50.355        0.101      345.604       23.252      857.410
11/09/2014  15:47:00     -293.976      -18.884      -20.641      101.142       98.875       58.710    10229.783     9776.211     3446.867        5.532        1.173      294.582       56.517        0.037      345.634       23.301      857.417
11/09/2014  15:48:00     -301.314      -71.968      -12.656      140.841      130.475       77.355    19836.263    17023.854     5983.863        6.948        2.142      309.790       79.372        0.066      345.621       23.277      857.414
11/09/2014  15:49:00     -284.925     -104.439       -6.022      119.163      125.146       59.161    14199.831    15661.475     3500.034        6.274        1.668      303.463       60.637        0.040      345.598       23.239      857.413
11/09/2014  15:50:00     -336.471       35.238      -33.307      137.623      115.227       52.426    18940.175    13277.348     2748.529        7.526        1.748      338.311       51.715        0.023      345.586       23.220      857.423
11/09/2014  15:51:00     -317.588     -115.051      -21.746      132.497       95.451       61.485    17555.410     9110.978     3780.456        7.250        1.522      337.785       49.657        0.022      345.565       23.181      857.433
11/09/2014  15:52:00     -335.184       -9.930      -19.171      110.681      115.238       65.359    12250.180    13279.685     4271.750        7.130        1.490      335.331       68.374        0.042      345.538       23.135      857.425
11/09/2014  15:53:00     -263.316      -66.001       -8.864       89.893      111.658       54.690     8080.675    12467.484     2990.988        4.865        1.177      271.462       45.892        0.029      345.530       23.122      857.403
11/09/2014  15:54:00     -348.138     -105.161       -2.968      140.622      123.271       63.350    19774.515    15195.741     4013.277        8.562        1.949      363.674       66.386        0.033      345.556       23.167      857.405
11/09/2014  15:55:00     -223.456      -96.928       -1.177      127.796       95.111       47.950    16331.940     9046.051     2299.207        4.350        1.384      243.573       57.055        0.055      345.506       23.080      857.393
11/09/2014  15:56:00     -300.651      -52.452       -8.215      127.744       97.687       47.400    16318.605     9542.681     2246.724        6.065        1.405      305.192       41.282        0.018      345.487       23.049      857.375
11/09/2014  15:57:00     -232.010       -5.265        9.432      138.465       97.389       70.155    19172.633     9484.713     4921.742        4.376        1.679      232.070       65.174        0.079      345.419       22.933      857.356
11/09/2014  15:58:00     -290.433      -68.022        4.334      147.184      121.817       64.655    21663.148    14839.434     4180.240        6.483        2.034      298.292       75.533        0.064      345.431       22.953      857.340
11/09/2014  15:59:00     -310.039      -55.998      -22.166      156.189      111.509       61.985    24395.047    12434.322     3842.155        7.020        2.034      315.056       71.387        0.051      345.474       23.027      857.327
11/09/2014  16:00:00     -233.184      -43.852       -7.070      105.876       92.581       55.881    11209.825     8571.251     3122.674        3.962        1.145      237.272       59.828        0.064      345.461       23.004      857.343
11/09/2014  16:01:00     -233.186      -37.270      -16.712       83.828       47.920       44.044     7027.065     2296.309     1939.839        3.365        0.563      236.146       47.297        0.040      345.442       22.970      857.345
11/09/2014  16:02:00     -226.564        3.820      -22.902       92.106       81.735       52.502     8483.560     6680.688     2756.497        3.489        0.896      226.596       48.732        0.046      345.420       22.935      857.346
11/09/2014  16:03:00     -163.297      -74.191        4.684      103.781       97.608       55.391    10770.525     9527.274     3068.111        2.777        1.168      179.361       53.076        0.088      345.332       22.784      857.359
11/09/2014  16:04:00     -238.841      -66.785      -24.726       77.099       64.436       40.214     5944.281     4152.038     1617.192        3.691        0.586      248.002       37.820        0.023      345.367       22.843      857.378
11/09/2014  16:05:00     -190.845       19.844        2.985      114.126       82.797       49.164    13024.720     6855.275     2417.111        2.956        1.115      191.874       46.015        0.058      345.331       22.782      857.410
11/09/2014  16:06:00     -209.696      -35.668        6.262      156.768       95.955       57.599    24576.329     9207.289     3317.667        4.118        1.855      212.708       74.551        0.123      345.254       22.650      857.411
11/09/2014  16:07:00     -274.293      -64.554       -4.365      119.801      111.885       65.256    14352.278    12518.254     4258.289        5.527        1.556      281.787       69.143        0.060      345.317       22.758      857.408
11/09/2014  16:08:00     -287.498      -10.097      -19.698       80.236       87.478       50.069     6437.758     7652.478     2506.869        4.987        0.830      287.676       38.932        0.018      345.271       22.679      857.395
11/09/2014  16:09:00     -276.098       -4.834      -11.209      126.044      118.854       58.952    15887.154    14126.273     3475.282        5.493        1.674      276.140       71.042        0.066      345.242       22.629      857.399
11/09/2014  16:10:00     -264.884      -29.610      -13.144      117.736       96.121       56.922    13861.689     9239.193     3240.086        4.877        1.317      266.534       64.571        0.059      345.241       22.627      857.400
11/09/2014  16:11:00     -475.929       -6.150      -26.457      175.648      145.553       83.289    30852.311    21185.775     6936.998       14.310        2.949      475.969       90.748        0.036      345.301       22.729      857.386
11/09/2014  16:12:00     -378.411      -60.476       -8.045      188.493      123.522       75.496    35529.543    15257.770     5699.592       10.169        2.824      383.213       89.635        0.055      345.231       22.609      857.386
11/09/2014  16:13:00     -369.541      -71.423      -22.272      158.426      116.663       65.760    25098.831    13610.157     4324.430        9.259        2.152      376.380       68.652        0.033      345.234       22.614      857.391
11/09/2014  16:14:00     -401.015     -104.791      -16.705      176.655      130.928       69.050    31206.980    17142.208     4767.968       11.258        2.656      414.481       77.353        0.035      345.191       22.541      857.380
11/09/2014  16:15:00     -388.072      -95.771       -6.436      159.709      107.401       69.777    25507.032    11534.953     4868.891       10.085        2.096      399.715       83.837        0.044      345.198       22.553      857.386
11/09/2014  16:16:00     -284.114      -35.299      -20.848      156.185      114.282       67.471    24393.619    13060.295     4552.287        6.220        2.100      286.298       73.232        0.065      345.130       22.439      857.375
11/09/2014  16:17:00     -285.247      -67.173       -0.208      119.314       90.098       58.896    14235.847     8117.653     3468.784        5.585        1.291      293.050       58.984        0.041      345.088       22.366      857.341
11/09/2014  16:18:00     -269.361      -61.155       -5.206      141.127      126.671       63.174    19916.809    16045.619     3990.998        5.813        1.998      276.216       75.060        0.074      345.064       22.324      857.328
11/09/2014  16:19:00     -228.788     -124.270      -12.493      126.477      113.774       67.745    15996.494    12944.505     4589.396        5.073        1.677      260.359       69.306        0.071      345.040       22.283      857.302
11/09/2014  16:20:00     -152.883      -12.892       18.384      107.500       87.538       56.961    11556.159     7662.934     3244.536        2.317        1.123      153.426       55.238        0.130      344.939       22.112      857.298
11/09/2014  16:21:00     -273.094      -89.568       -3.927      114.622      115.558       61.675    13138.277    13353.631     3803.765        5.645        1.515      287.407       66.236        0.053      344.998       22.211      857.277
11/09/2014  16:22:00     -304.915      -97.103      -17.715      168.069      103.442       61.669    28247.303    10700.322     3803.089        7.272        2.138      320.003       83.166        0.068      345.010       22.233      857.270
11/09/2014  16:23:00     -211.632      -95.695       -8.097      117.219      111.566       56.768    13740.193    12446.911     3222.609        4.170        1.470      232.262       59.357        0.065      345.017       22.245      857.264
11/09/2014  16:24:00     -234.141      -52.599       -3.465      115.177      100.748       56.392    13265.825    10150.121     3180.012        4.209        1.330      239.976       43.050        0.032      345.029       22.264      857.278
11/09/2014  16:25:00     -185.466      -10.456       -6.410       84.828       82.135       44.531     7195.838     6746.192     1983.010        2.523        0.796      185.760       48.936        0.069      345.000       22.216      857.266
11/09/2014  16:26:00     -213.879      -32.966        4.874      126.937      123.889       49.940    16112.987    15348.530     2493.960        4.040        1.698      216.405       57.687        0.071      344.988       22.196      857.230
11/09/2014  16:27:00     -240.768       -4.242        7.023      118.557      104.191       66.628    14055.718    10855.772     4439.255        4.369        1.468      240.805       61.157        0.064      345.020       22.251      857.190
11/09/2014  16:28:00     -292.230     -120.464       -8.675      118.073      131.259       64.015    13941.305    17229.017     4097.918        6.762        1.763      316.086       63.698        0.041      345.008       22.229      857.133
11/09/2014  16:29:00     -240.892      -63.465        2.229      164.456       95.476       60.057    27045.885     9115.725     3606.835        5.091        1.988      249.112       77.471        0.097      344.987       22.193      857.077
11/09/2014  16:30:00     -211.353      -93.865        4.928      119.845       91.887       52.265    14362.780     8443.242     2731.583        3.952        1.277      231.259       53.295        0.053      344.949       22.130      857.065
11/09/2014  16:31:00     -266.260     -147.283      -18.906      111.012       87.647       55.095    12323.652     7681.921     3035.453        5.799        1.152      304.281       48.502        0.025      344.959       22.144      857.100
11/09/2014  16:32:00     -304.895      -64.322      -18.532      158.811       98.531       45.560    25220.885     9708.292     2075.732        6.722        1.850      311.606       35.914        0.013      344.916       22.071      857.169
11/09/2014  16:33:00     -402.566      -79.419      -17.065      141.632       95.098       64.101    20059.596     9043.652     4108.940       10.093        1.661      410.325       76.021        0.034      344.953       22.134      857.207
11/09/2014  16:34:00     -366.680      -68.525      -21.727      155.750      120.682       62.625    24258.078    14564.126     3921.866        9.117        2.137      373.028       79.229        0.045      344.912       22.065      857.225
11/09/2014  16:35:00     -321.098      -79.724      -25.041      175.706      115.128       64.304    30872.734    13254.532     4134.952        7.917        2.413      330.848       71.709        0.047      344.870       21.991      857.196
11/09/2014  16:36:00     -360.721     -135.536       -4.251      192.330      134.206       63.007    36990.650    18011.237     3969.837       10.373        2.949      385.343       60.840        0.025      344.829       21.923      857.164
11/09/2014  16:37:00     -315.221      -14.087      -32.336      190.393      126.957       55.458    36249.510    16117.965     3075.551        7.801        2.772      315.535       54.653        0.030      344.866       21.985      857.150
11/09/2014  16:38:00     -180.762      -29.750       11.968      110.529       93.717       48.779    12216.555     8782.936     2379.431        2.854        1.169      183.194       60.464        0.109      344.749       21.786      857.160
11/09/2014  16:39:00     -211.585     -124.477       -4.548       97.027       74.201       50.746     9414.318     5505.717     2575.186        3.889        0.875      245.484       46.255        0.036      344.745       21.777      857.180
11/09/2014  16:40:00     -181.245      -27.720        1.880      102.957       71.247       51.277    10600.175     5076.096     2629.287        2.596        0.915      183.352       54.476        0.088      344.670       21.649      857.213
11/09/2014  16:41:00     -215.347      -62.449       -5.180       83.338       60.602       45.291     6945.196     3672.600     2051.267        3.148        0.633      224.219       36.653        0.027      344.694       21.692      857.259
11/09/2014  16:42:00     -349.893      -94.146       -8.847      120.388      134.881       71.343    14493.233    18192.896     5089.892        8.456        1.889      362.338       67.561        0.035      344.707       21.712      857.280
11/09/2014  16:43:00     -406.719      -66.298      -31.695      158.750      126.664       72.404    25201.652    16043.698     5242.272       10.864        2.324      412.087       80.845        0.038      344.751       21.789      857.262
11/09/2014  16:44:00     -262.257      -25.813       -4.946      175.646      105.160       60.471    30851.579    11058.546     3656.745        5.751        2.278      263.524       77.238        0.086      344.693       21.691      857.214
11/09/2014  16:45:00     -206.653      -88.975        4.176      130.335       79.470       42.517    16987.257     6315.492     1807.680        3.787        1.256      224.993       54.670        0.059      344.630       21.583      857.193
11/09/2014  16:46:00     -189.503      -12.821      -10.693      131.297      121.966       64.299    17238.994    14875.658     4134.327        3.621        1.812      189.936       67.962        0.128      344.663       21.640      857.166
11/09/2014  16:47:00     -226.104      -54.213       -0.801      124.191       90.302       57.941    15423.413     8154.496     3357.141        4.049        1.347      232.512       68.220        0.086      344.580       21.497      857.161
11/09/2014  16:48:00     -249.409      -58.843       -3.519      134.250      101.083       64.502    18022.936    10217.707     4160.545        4.903        1.620      256.257       68.992        0.072      344.616       21.559      857.152
11/09/2014  16:49:00     -215.276     -104.037       -1.650      143.872       97.060       80.034    20699.122     9420.595     6405.497        4.684        1.826      239.097       90.501        0.143      344.551       21.446      857.149
11/09/2014  16:50:00     -180.190       -7.908       -4.182       80.051       70.550       51.495     6408.225     4977.334     2651.752        2.329        0.702      180.363       48.057        0.071      344.540       21.429      857.153
11/09/2014  16:51:00     -263.516       -4.650      -17.370      115.005       72.058       54.532    13226.172     5192.404     2973.739        4.557        1.070      263.557       56.889        0.047      344.560       21.462      857.162
11/09/2014  16:52:00     -358.655      -38.390      -13.721      114.575      107.205       56.864    13127.529    11492.902     3233.471        7.907        1.393      360.704       52.261        0.021      344.579       21.494      857.178
11/09/2014  16:53:00     -333.019      -70.007        0.146      168.955      139.613       73.205    28545.908    19491.724     5359.004        8.459        2.670      340.298       82.377        0.059      344.547       21.440      857.183
11/09/2014  16:54:00     -339.337     -101.163       -0.734      175.952      124.010       70.012    30959.152    15378.476     4901.719        8.830        2.562      354.096       78.351        0.049      344.553       21.450      857.200
11/09/2014  16:55:00     -335.996      -98.672      -11.363      153.014      111.869       72.540    23413.295    12514.765     5262.030        8.197        2.060      350.185       76.076        0.047      344.507       21.371      857.189
11/09/2014  16:56:00     -418.128      -62.240      -20.743      155.172      128.583       63.424    24078.496    16533.595     4022.640       11.188        2.232      422.734       64.083        0.023      344.577       21.490      857.202
11/09/2014  16:57:00     -430.296     -122.019      -13.835      228.098      169.081       77.967    52028.873    28588.369     6078.906       14.345        4.335      447.262       82.659        0.034      344.529       21.410      857.207
11/09/2014  16:58:00     -328.565      -66.166       -6.274      168.309      114.652       76.193    28327.983    13145.120     5805.442        7.982        2.364      335.161       82.317        0.060      344.491       21.344      857.208
11/09/2014  16:59:00     -251.648      -57.396       -6.376      103.498      115.190       55.705    10711.768    13268.646     3102.994        4.687        1.354      258.110       52.825        0.042      344.408       21.202      857.236
11/09/2014  17:00:00     -346.800      -63.988      -14.871      166.179      143.347       83.090    27615.469    20548.382     6903.925        8.982        2.753      352.654       82.506        0.055      344.472       21.311      857.247
11/09/2014  17:01:00     -385.389      -93.978       -9.999      139.562      115.332       67.888    19477.518    13301.396     4608.784        9.741        1.869      396.682       68.030        0.029      344.448       21.270      857.259
11/09/2014  17:02:00     -251.520      -53.355       -1.999      139.474      135.408       67.998    19453.022    18335.230     4623.676        5.425        2.121      257.117       74.671        0.084      344.390       21.171      857.273
11/09/2014  17:03:00     -214.343      -33.874       -7.396      106.031       88.524       51.788    11242.553     7836.436     2682.037        3.445        1.088      217.003       50.285        0.054      344.342       21.092      857.267
11/09/2014  17:04:00     -271.921      -65.251       -3.507      140.510      106.173       62.367    19743.068    11272.757     3889.670        5.655        1.745      279.641       68.118        0.059      344.331       21.070      857.248
11/09/2014  17:05:00     -354.618      -37.000      -24.726      171.022      120.492       63.267    29248.376    14518.408     4002.667        8.774        2.388      356.543       72.330        0.041      344.383       21.160      857.232
11/09/2014  17:06:00     -276.075      -18.007      -16.686      126.727      122.335       63.403    16059.731    14965.890     4019.920        5.593        1.752      276.661       57.865        0.044      344.362       21.125      857.252
11/09/2014  17:07:00     -441.511     -110.789      -26.944      128.459      120.113       68.733    16501.625    14427.060     4724.221       12.179        1.783      455.199       62.843        0.019      344.412       21.208      857.290
11/09/2014  17:08:00     -298.306      -12.515      -18.521      112.678      110.037       49.877    12696.232    12108.150     2487.668        5.838        1.365      298.569       49.408        0.027      344.373       21.142      857.362
11/09/2014  17:09:00     -287.871      -50.871      -19.378      100.371      122.684       52.044    10074.338    15051.447     2708.576        5.683        1.392      292.332       45.121        0.024      344.302       21.021      857.427
11/09/2014  17:10:00     -224.067      -74.394       -0.144      102.363      100.598       52.132    10478.162    10119.902     2717.781        3.952        1.166      236.094       54.203        0.053      344.258       20.945      857.473
11/09/2014  17:11:00     -339.086       -0.963      -23.859      118.077      102.986       48.058    13942.219    10606.018     2309.569        7.120        1.343      339.087       41.822        0.015      344.293       21.005      857.499
11/09/2014  17:12:00     -292.866      -35.104      -29.290      160.421      110.438       69.709    25734.804    12196.476     4859.278        6.532        2.140      294.963       85.549        0.084      344.219       20.880      857.508
11/09/2014  17:13:00     -413.476       15.185      -60.752      107.132      127.341       61.482    11477.209    16215.856     3780.062       10.317        1.574      413.754       55.712        0.018      344.248       20.928      857.498
11/09/2014  17:14:00     -359.785      -50.843      -11.154      154.731       92.752       67.748    23941.567     8602.855     4589.771        8.464        1.857      363.360       82.444        0.051      344.238       20.913      857.468
11/09/2014  17:15:00     -270.800      -69.228       -2.664      144.147       83.431       55.369    20778.425     6960.782     3065.714        5.446        1.540      279.508       65.056        0.054      344.189       20.828      857.421
11/09/2014  17:16:00     -270.433     -116.433       -3.002      161.574      143.194       62.648    26106.012    20504.521     3924.767        6.861        2.527      294.433       69.410        0.056      344.154       20.769      857.382
11/09/2014  17:17:00     -320.415      -45.091      -22.107      123.213      139.008       60.110    15181.381    19323.154     3613.154        7.165        1.906      323.572       61.602        0.036      344.164       20.785      857.383
11/09/2014  17:18:00     -202.524       19.778        1.169      117.230       82.322       51.272    13742.861     6776.886     2628.767        3.227        1.157      203.488       58.130        0.082      344.128       20.726      857.411
11/09/2014  17:19:00     -270.595      -22.465      -17.904      125.846      106.019       52.504    15837.135    11239.964     2756.685        5.193        1.492      271.526       45.230        0.028      344.171       20.798      857.448
11/09/2014  17:20:00     -268.001      -51.059       -6.780      114.026       95.883       64.596    13001.914     9193.478     4172.627        5.042        1.318      272.822       61.977        0.052      344.163       20.783      857.475
11/09/2014  17:21:00     -238.878      -16.823       -8.973      132.916      101.872       61.516    17666.748    10377.820     3784.263        4.462        1.591      239.469       66.449        0.077      344.135       20.735      857.489
11/09/2014  17:22:00     -224.407      -47.558       -5.614       83.996      115.964       48.810     7055.255    13447.629     2382.450        3.776        1.144      229.391       30.883        0.018      344.133       20.732      857.516
11/09/2014  17:23:00     -363.262     -213.011      -12.267      241.512      169.362       78.109    58327.829    28683.532     6100.953       13.528        4.656      421.109       83.304        0.039      344.190       20.831      857.502
11/09/2014  17:24:00     -459.610      -24.005      -38.479      189.218      139.172       71.730    35803.377    19368.864     5145.130       13.680        3.016      460.237       74.027        0.026      344.203       20.852      857.489
11/09/2014  17:25:00     -394.721      -90.380       -5.651      150.227      171.087       84.012    22568.073    29270.812     7058.029       11.144        2.945      404.936       60.844        0.023      344.193       20.834      857.448
11/09/2014  17:26:00     -449.795     -139.850      -25.822      186.033      155.781       86.906    34608.220    24267.840     7552.664       14.447        3.321      471.034       87.292        0.034      344.232       20.902      857.437
11/09/2014  17:27:00     -280.137      -33.566       -6.561      140.044       90.170       60.445    19612.344     8130.573     3653.600        5.552        1.570      282.141       62.345        0.049      344.178       20.808      857.438
11/09/2014  17:28:00     -147.626      -73.232        2.889      187.221      100.908       63.042    35051.885    10182.440     3974.324        3.818        2.460      164.792       84.451        0.263      344.103       20.682      857.461
11/09/2014  17:29:00     -262.858      -44.403       10.404      184.866      138.507       76.193    34175.606    19184.314     5805.313        6.516        2.958      266.582       87.511        0.108      344.118       20.709      857.473
11/09/2014  17:30:00     -250.271      -46.709        0.792      162.024       82.991       67.126    26251.711     6887.519     4505.932        5.122        1.882      254.593       85.413        0.113      344.062       20.612      857.480
11/09/2014  17:31:00     -259.336      -83.629      -13.338       97.462      108.166       46.986     9498.869    11699.955     2207.682        4.891        1.170      272.486       48.285        0.031      344.037       20.570      857.476
11/09/2014  17:32:00     -376.024     -103.218       -3.543      183.753      137.672       78.396    33765.292    18953.443     6145.996       10.545        2.943      389.933       86.523        0.049      344.039       20.571      857.458
11/09/2014  17:33:00     -349.511      -91.785      -14.205      156.557      112.258       66.304    24510.017    12601.964     4396.161        8.614        2.075      361.362       78.175        0.047      344.017       20.534      857.463
11/09/2014  17:34:00     -356.332      -97.013       -7.873      147.185      133.337       74.777    21663.294    17778.790     5591.669        9.073        2.252      369.302       69.272        0.035      343.974       20.461      857.485
11/09/2014  17:35:00     -349.472      -59.226      -15.751      121.580      112.317       63.299    14781.596    12615.130     4006.705        7.864        1.570      354.455       61.566        0.030      343.964       20.444      857.484
11/09/2014  17:36:00     -272.782      -25.818      -15.482      111.664      102.991       55.450    12468.955    10607.134     3074.700        5.073        1.308      274.001       56.023        0.042      343.898       20.331      857.465
11/09/2014  17:37:00     -276.540      -63.181      -27.759      123.308       94.226       56.773    15204.962     8878.631     3223.140        5.427        1.365      283.666       55.841        0.039      343.911       20.353      857.432
11/09/2014  17:38:00     -312.251      -55.232      -11.365      139.035       81.351       51.017    19330.630     6617.946     2602.755        6.461        1.428      317.098       46.713        0.022      343.911       20.352      857.430
11/09/2014  17:39:00     -231.483      -93.746       -4.382       81.465       70.714       47.962     6636.484     5000.486     2300.332        3.816        0.697      249.745       39.467        0.025      343.832       20.218      857.420
11/09/2014  17:40:00     -303.823      -83.017      -10.079      125.739       93.713       55.459    15810.306     8782.196     3075.658        6.348        1.383      314.961       66.046        0.044      343.815       20.190      857.405
11/09/2014  17:41:00     -339.773      -39.715      -30.557      181.051      130.999       70.628    32779.423    17160.802     4988.319        8.643        2.746      342.086       88.299        0.067      343.886       20.309      857.401
11/09/2014  17:42:00     -322.506      -95.512       -8.106      165.394      144.817       71.744    27355.102    20971.843     5147.264        8.333        2.674      336.352       72.506        0.046      343.869       20.282      857.390
11/09/2014  17:43:00     -322.226      -94.229       -4.722      182.757      149.097       71.301    33400.303    22229.838     5083.867        8.671        3.036      335.721       81.981        0.060      343.852       20.253      857.410
11/09/2014  17:44:00     -334.318      -27.224      -28.296      113.853       79.450       60.535    12962.476     6312.240     3664.513        6.812        1.147      335.425       61.625        0.034      343.869       20.281      857.430
11/09/2014  17:45:00     -327.062      -94.469      -19.772      119.434      116.815       54.257    14264.467    13645.689     2943.784        7.356        1.543      340.432       60.034        0.031      343.834       20.223      857.437
11/09/2014  17:46:00     -302.919       -9.762      -13.410      116.610      103.685       59.893    13597.886    10750.607     3587.166        5.998        1.397      303.077       61.074        0.041      343.790       20.147      857.430
11/09/2014  17:47:00     -236.313      -19.587      -14.806      100.016      115.493       55.552    10003.127    13338.710     3086.048        4.143        1.321      237.124       46.898        0.039      343.791       20.149      857.411
11/09/2014  17:48:00     -385.128      -44.448      -34.091      145.398      119.571       55.882    21140.715    14297.125     3122.778        9.500        1.928      387.684       65.930        0.029      343.803       20.168      857.390
11/09/2014  17:49:00     -320.571        8.882      -36.372      101.721       95.233       48.004    10347.088     9069.390     2304.347        6.294        1.086      320.694       44.089        0.019      343.747       20.072      857.363
11/09/2014  17:50:00     -230.543      -62.788       -1.989      120.272      120.105       51.243    14465.298    14425.158     2625.809        4.430        1.576      238.940       61.324        0.066      343.678       19.955      857.361
11/09/2014  17:51:00     -369.877      -25.707      -33.363      156.002       79.019       59.235    24336.710     6244.027     3508.813        8.633        1.704      370.769       72.329        0.038      343.729       20.043      857.361
11/09/2014  17:52:00     -320.295     -100.767      -23.223      163.939       90.864       61.729    26875.980     8256.324     3810.424        7.610        1.947      335.772       74.846        0.050      343.714       20.017      857.377
11/09/2014  17:53:00     -153.011      -26.158       -2.874       64.129       97.160       40.030     4112.591     9440.070     1602.410        1.963        0.758      155.231       26.901        0.030      343.609       19.840      857.408
11/09/2014  17:54:00     -144.723      -19.522       -5.395       77.833       78.746       39.758     6057.942     6200.957     1580.736        1.759        0.692      146.033       33.725        0.053      343.563       19.760      857.429
11/09/2014  17:55:00     -217.481      -39.223       -4.783      115.638       91.779       52.298    13372.130     8423.371     2735.091        3.669        1.227      220.990       51.359        0.054      343.605       19.832      857.420
11/09/2014  17:56:00     -168.822      -63.380       -5.051       71.225       65.078       43.629     5072.939     4235.137     1903.448        2.188        0.561      180.327       38.625        0.046      343.566       19.764      857.416
11/09/2014  17:57:00     -246.253       11.223      -16.978      161.301       95.047       45.213    26018.034     9033.945     2044.230        4.907        1.855      246.509       61.101        0.061      343.574       19.780      857.409
11/09/2014  17:58:00     -215.869       37.999      -15.270      115.096       69.016       48.328    13247.169     4763.193     2335.569        3.431        1.017      219.188       52.240        0.057      343.585       19.798      857.420
11/09/2014  17:59:00     -124.268       83.477      -21.428       73.888      112.760       40.011     5459.364    12714.850     1600.909        2.132        0.989      149.703       44.626        0.089      343.489       19.634      857.428
11/09/2014  18:00:00     -153.915       98.321      -21.403       65.249       72.091       37.610     4257.377     5197.046     1414.477        2.234        0.543      182.639       34.648        0.036      343.428       19.530      857.435
11/09/2014  18:01:00     -201.828       45.952      -25.273       90.070      111.625       34.464     8112.533    12460.037     1187.781        3.262        1.088      206.993       21.526        0.011      343.399       19.479      857.436
11/09/2014  18:02:00     -122.559       50.323      -16.030       62.440       68.754       44.120     3898.704     4727.079     1946.558        1.419        0.529      132.488       31.859        0.058      343.430       19.534      857.454
11/09/2014  18:03:00     -142.538      -15.395       -5.684       78.800       78.793       47.312     6209.378     6208.317     2238.439        1.762        0.733      143.367       38.267        0.071      343.292       19.300      857.471
11/09/2014  18:04:00     -196.676      -74.106      -10.485      100.625       81.291       47.300    10125.334     6608.207     2237.316        3.162        0.949      210.174       50.304        0.057      343.265       19.252      857.492
11/09/2014  18:05:00     -180.319       -9.259      -21.334       87.512       73.612       52.596     7658.273     5418.735     2766.386        2.445        0.792      180.556       46.060        0.065      343.278       19.275      857.490
11/09/2014  18:06:00     -150.469      -41.192        0.712       77.251       74.939       55.097     5967.734     5615.875     3035.690        1.948        0.731      156.006       47.579        0.093      343.277       19.273      857.493
11/09/2014  18:07:00     -238.594      -34.841       -5.920       91.147       86.315       49.785     8307.748     7450.261     2478.505        3.820        0.912      241.124       42.494        0.031      343.263       19.248      857.482
11/09/2014  18:08:00     -135.854        4.286      -21.161       83.775       70.961       43.795     7018.286     5035.454     1918.010        1.644        0.699      135.921       35.114        0.067      343.228       19.191      857.452
11/09/2014  18:09:00     -128.905      -24.452       -1.993       66.587       67.049       56.581     4433.841     4495.509     3201.456        1.467        0.607      131.203       46.061        0.123      343.261       19.248      857.434
11/09/2014  18:10:00     -187.497      -16.315      -23.323       69.556       77.669       44.670     4838.007     6032.495     1995.402        2.441        0.643      188.206       27.282        0.021      343.242       19.214      857.422
11/09/2014  18:11:00     -238.578      -93.575      -21.219       97.755       90.040       53.402     9556.137     8107.183     2851.784        4.332        1.026      256.273       42.352        0.027      343.304       19.318      857.426
11/09/2014  18:12:00     -235.326      -96.994      -12.531      118.023      107.814       59.013    13929.448    11623.850     3482.532        4.698        1.452      254.531       54.257        0.045      343.244       19.216      857.434
11/09/2014  18:13:00     -212.032       32.325      -27.384      111.527      127.356       48.207    12438.201    16219.666     2323.904        3.886        1.549      214.482       45.714        0.045      343.268       19.256      857.456
11/09/2014  18:14:00     -180.814       -3.959      -17.460      139.665       98.665       57.505    19506.194     9734.800     3306.858        3.277        1.627      180.858       49.278        0.074      343.252       19.231      857.482
11/09/2014  18:15:00     -111.811       -6.945       -4.721       83.912       69.646       42.664     7041.270     4850.521     1820.208        1.314        0.686      112.026       30.673        0.075      343.180       19.109      857.511
11/09/2014  18:16:00     -129.852      -24.165      -21.727       76.193       73.780       50.168     5805.406     5443.557     2516.800        1.584        0.688      132.081       47.385        0.129      343.132       19.028      857.533
11/09/2014  18:17:00      -90.377       23.479      -17.639       92.776       71.000       45.987     8607.424     5040.982     2114.834        1.239        0.788       93.377       48.051        0.265      343.164       19.083      857.535
11/09/2014  18:18:00      -53.320       83.866        3.023       71.657       91.152       57.766     5134.696     8308.609     3336.960        1.333        0.839       99.381       36.225        0.133      343.187       19.121      857.522
11/09/2014  18:19:00     -237.808       84.587      -28.767       99.228       96.283       43.620     9846.149     9270.359     1902.674        4.277        1.051      252.404       36.783        0.021      343.309       19.326      857.498
11/09/2014  18:20:00     -254.097        9.025      -30.000      127.136       76.703       57.820    16163.509     5883.300     3343.157        4.546        1.269      254.258       60.239        0.056      343.350       19.396      857.498
11/09/2014  18:21:00      -86.573       58.972      -11.220       62.497       55.047       46.160     3905.822     3030.156     2130.718        1.008        0.453      104.750       40.410        0.149      343.236       19.206      857.474
11/09/2014  18:22:00      -95.520       38.500      -14.225       60.737       60.060       39.406     3688.942     3607.190     1552.872        0.983        0.442      102.987       32.225        0.098      343.213       19.165      857.454
11/09/2014  18:23:00     -133.437       -8.220      -12.956      122.501       89.610       41.764    15006.426     8029.863     1744.192        2.141        1.239      133.690       43.344        0.105      343.230       19.195      857.467
11/09/2014  18:24:00     -116.546        8.305      -11.137       73.358       75.465       42.220     5381.324     5695.026     1782.542        1.331        0.643      116.841       40.863        0.122      343.174       19.099      857.494
11/09/2014  18:25:00     -130.299       15.191      -15.927       49.425       51.266       32.012     2442.834     2628.198     1024.770        1.178        0.305      131.182       29.140        0.049      343.126       19.019      857.522
11/09/2014  18:26:00     -198.033      -27.738      -27.361       90.676       80.127       47.939     8222.067     6420.379     2298.104        2.883        0.847      199.966       44.251        0.049      343.198       19.138      857.539
11/09/2014  18:27:00     -149.208      -30.711      -17.510       63.749       54.144       37.009     4063.920     2931.543     1369.636        1.594        0.418      152.336       31.266        0.042      343.122       19.010      857.562
11/09/2014  18:28:00     -101.546       40.897       -6.415       46.567       51.896       51.388     2168.516     2693.228     2640.760        0.976        0.375      109.472       23.935        0.048      343.022       18.841      857.566
11/09/2014  18:29:00     -110.627       42.764       -3.981       70.204       78.297       44.397     4928.617     6130.346     1971.050        1.355        0.652      118.605       28.967        0.060      343.023       18.843      857.568
11/09/2014  18:30:00     -137.254      -11.151      -25.203       76.574       71.981       49.931     5863.509     5181.258     2493.083        1.657        0.677      137.706       47.521        0.119      343.059       18.901      857.548
11/09/2014  18:31:00     -145.291      -54.820       -1.277       86.355      100.258       41.951     7457.124    10051.659     1759.860        2.169        0.963      155.289       40.737        0.069      343.039       18.867      857.522
11/09/2014  18:32:00     -204.568      -40.296      -19.026       73.893       83.349       42.765     5460.228     6947.024     1828.868        2.903        0.712      208.499       36.193        0.030      343.048       18.881      857.515
11/09/2014  18:33:00     -170.678      -56.010      -15.131       78.132       71.757       30.539     6104.575     5149.068      932.638        2.234        0.609      179.633       35.494        0.039      342.990       18.782      857.548
11/09/2014  18:34:00      -27.074       39.613       -4.655       47.232       56.194       23.468     2230.874     3157.818      550.749        0.413        0.297       47.981       21.123        0.194      342.986       18.780      857.568
11/09/2014  18:35:00     -143.491        7.787      -18.987       82.391       57.534       36.652     6788.291     3310.218     1343.386        1.622        0.572      143.702       33.162        0.053      343.030       18.855      857.568
11/09/2014  18:36:00      -71.382       95.413       -1.233       55.477       93.964       46.273     3077.700     8829.305     2141.209        1.412        0.702      119.160       41.718        0.123      343.055       18.897      857.587
11/09/2014  18:37:00     -177.858       45.980      -25.132       85.963      111.887       49.395     7389.723    12518.792     2439.878        2.836        1.117      183.705       52.565        0.082      343.092       18.958      857.598
11/09/2014  18:38:00      -95.751       25.881      -14.161       64.717       68.943       28.488     4188.268     4753.133      811.538        0.989        0.488       99.187       31.406        0.100      343.025       18.847      857.617
11/09/2014  18:39:00      -98.009       18.982      -16.762       49.449       90.693       40.119     2445.226     8225.137     1609.534        1.126        0.614       99.830       29.195        0.086      343.106       18.983      857.632
11/09/2014  18:40:00      -96.753       34.555        2.324       77.195       51.570       46.156     5959.015     2659.510     2130.417        1.065        0.537      102.738       41.501        0.163      343.026       18.849      857.655
11/09/2014  18:41:00      -72.081       12.593      -10.160       76.564       97.178       39.517     5862.046     9443.471     1561.627        1.116        0.843       73.173       36.857        0.254      343.054       18.894      857.672
11/09/2014  18:42:00     -164.434      -51.257       -6.590      116.587       80.362       49.748    13592.604     6458.003     2474.877        2.611        1.126      172.238       56.158        0.106      343.020       18.835      857.668
11/09/2014  18:43:00     -108.802       -1.015       -7.116       72.946       63.544       37.667     5321.104     4037.849     1418.818        1.133        0.539      108.806       35.997        0.109      342.982       18.773      857.680
11/09/2014  18:44:00      -91.805       -7.147        1.074       83.451       65.244       36.985     6964.020     4256.716     1367.884        1.053        0.629       92.083       39.290        0.182      342.923       18.671      857.685
11/09/2014  18:45:00     -231.977      -69.680      -10.187      163.014       79.824       47.605    26573.439     6371.921     2266.256        4.698        1.761      242.216       72.150        0.089      343.057       18.899      857.644
11/09/2014  18:46:00     -260.659       -0.420      -10.739      147.332       71.359       63.111    21706.686     5092.116     3982.951        4.941        1.539      260.660       78.074        0.090      342.989       18.781      857.621
11/09/2014  18:47:00     -167.562      -47.955       -8.175      102.131       76.868       49.957    10430.712     5908.656     2495.715        2.464        0.942      174.290       54.121        0.096      343.010       18.819      857.599
11/09/2014  18:48:00     -233.980      -39.806      -19.250      108.164       98.845       57.290    11699.382     9770.385     3282.103        4.072        1.238      237.342       45.765        0.037      343.048       18.883      857.567
11/09/2014  18:49:00     -221.392      -38.340      -24.309       71.273       59.183       32.228     5079.786     3502.629     1038.642        3.035        0.481      224.687       33.423        0.022      343.032       18.855      857.542
11/09/2014  18:50:00     -295.575      -21.778      -24.158      108.115      100.595       57.638    11688.926    10119.324     3322.095        5.677        1.257      296.377       58.807        0.039      343.071       18.921      857.518
11/09/2014  18:51:00     -299.374      -32.209      -27.304       99.558       98.819       49.330     9911.832     9765.194     2433.454        5.675        1.106      301.101       49.777        0.027      343.079       18.934      857.512
11/09/2014  18:52:00     -235.855      -60.469      -27.867       65.300       74.800       38.726     4264.056     5595.059     1499.677        3.571        0.568      243.483       34.305        0.020      343.078       18.933      857.518
11/09/2014  18:53:00     -249.528      -44.545      -24.868       88.895       84.495       48.704     7902.370     7139.485     2372.080        4.114        0.871      253.472       44.014        0.030      343.049       18.885      857.539
11/09/2014  18:54:00     -232.744        3.673      -18.352       89.946       86.609       46.853     8090.285     7501.095     2195.194        3.615        0.889      232.773       40.546        0.030      343.002       18.804      857.537
11/09/2014  18:55:00     -243.518      -67.175      -12.627       76.323       67.771       46.730     5825.270     4592.963     2183.719        3.828        0.630      252.613       38.826        0.024      343.071       18.922      857.548
11/09/2014  18:56:00     -226.229      -40.046      -16.636       98.812       86.789       45.881     9763.873     7532.348     2105.088        3.623        0.970      229.746       54.650        0.057      342.998       18.798      857.572
11/09/2014  18:57:00     -226.293       21.062      -24.878      107.955       97.392       52.566    11654.191     9485.296     2763.156        3.808        1.195      227.271       49.117        0.047      342.974       18.757      857.560
11/09/2014  18:58:00     -198.565      -41.902       -3.778       78.734       85.043       43.136     6199.066     7232.320     1860.747        2.824        0.765      202.938       32.577        0.026      342.944       18.705      857.560
11/09/2014  18:59:00     -282.088      -74.410      -20.150       98.889       56.482       47.015     9779.106     3190.198     2210.393        5.034        0.759      291.737       33.748        0.013      342.949       18.712      857.557
11/09/2014  19:00:00     -198.056      -51.992      -15.933       77.244       77.780       46.579     5966.577     6049.748     2169.574        2.818        0.709      204.766       35.532        0.030      342.881       18.598      857.571
11/09/2014  19:01:00     -213.993       -8.743       -7.031      114.862       71.136       53.050    13193.209     5060.268     2814.271        3.349        1.053      214.172       58.793        0.075      342.912       18.651      857.568
11/09/2014  19:02:00     -144.352      -35.292       -4.645       51.941       49.691       35.298     2697.915     2469.183     1245.983        1.426        0.321      148.604       26.790        0.033      342.814       18.487      857.555
11/09/2014  19:03:00     -175.309      -70.765       -8.018       53.046       73.016       33.138     2813.908     5331.376     1098.144        2.252        0.462      189.053       24.426        0.017      342.818       18.491      857.540
11/09/2014  19:04:00     -194.235      -37.112      -19.666       93.573       74.327       46.174     8755.889     5524.529     2132.062        2.795        0.821      197.749       42.401        0.046      342.879       18.595      857.536
11/09/2014  19:05:00     -208.539       36.797      -30.661       77.060      110.834       43.225     5938.275    12284.125     1868.387        3.293        1.005      211.760       42.346        0.040      342.931       18.683      857.516
11/09/2014  19:06:00     -157.079      -26.818       -6.324      126.841       68.473       44.485    16088.605     4688.529     1978.947        2.409        1.138      159.352       50.920        0.102      342.843       18.535      857.510
11/09/2014  19:07:00     -110.294      -24.773       -8.709       60.441       60.972       35.952     3653.114     3717.644     1292.565        1.076        0.433      113.042       34.356        0.092      342.800       18.463      857.486
11/09/2014  19:08:00     -110.201       19.174       -2.331       66.073       50.981       33.585     4365.656     2599.092     1127.942        1.030        0.405      111.857       27.550        0.061      342.771       18.412      857.477
11/09/2014  19:09:00      -84.682        5.226       -8.481       92.014       91.483       36.459     8466.585     8369.090     1329.259        1.271        0.908       84.844       16.798        0.039      342.753       18.381      857.453
11/09/2014  19:10:00     -123.724       52.232      -14.301       91.420       60.385       36.926     8357.692     3646.289     1363.524        1.580        0.668      134.297       44.027        0.107      342.748       18.373      857.455
11/09/2014  19:11:00     -112.720      126.582       -6.552       59.279       88.368       46.762     3513.982     7808.868     2186.677        2.114        0.675      169.496       36.208        0.046      342.711       18.310      857.440
11/09/2014  19:12:00     -141.346      110.434      -22.312       75.727       93.015       43.200     5734.584     8651.843     1866.272        2.446        0.813      179.372       42.843        0.057      342.732       18.346      857.443
11/09/2014  19:13:00      -74.994       95.649       -9.232       55.501       83.683       32.030     3080.404     7002.908     1025.918        1.298        0.555      121.544       29.065        0.057      342.680       18.257      857.431
11/09/2014  19:14:00     -152.984      111.939      -28.848       71.903       79.084       43.226     5170.011     6254.275     1868.474        2.503        0.665      189.564       37.240        0.039      342.727       18.337      857.426
11/09/2014  19:15:00     -137.972       50.210      -13.289       43.924       39.894       30.858     1929.355     1591.522      952.234        1.310        0.224      146.824       20.124        0.019      342.695       18.284      857.415
11/09/2014  19:16:00      -97.783       35.537      -17.685      111.480       71.910       35.189    12427.815     5171.110     1238.240        1.498        0.942      104.040       43.977        0.179      342.682       18.262      857.403
11/09/2014  19:17:00     -115.042      -39.471      -15.783       97.914       44.140       30.008     9587.090     1948.296      900.500        1.374        0.622      121.625       38.554        0.100      342.586       18.099      857.416
11/09/2014  19:18:00      -82.170       -6.788       -0.073       76.046       41.746       29.522     5782.918     1742.733      871.529        0.760        0.420       82.450       29.748        0.130      342.473       17.906      857.408
11/09/2014  19:19:00      -76.709      -32.661       -5.802       59.656       46.061       27.358     3558.827     2121.624      748.441        0.671        0.321       83.373       26.878        0.104      342.427       17.828      857.388
11/09/2014  19:20:00     -210.425       -3.348      -23.631       95.117       50.080       30.293     9047.232     2507.960      917.676        2.866        0.624      210.452       38.213        0.033      342.540       18.018      857.370
11/09/2014  19:21:00     -202.281      -21.456      -17.529       46.836       61.561       35.043     2193.651     3789.713     1228.002        2.445        0.361      203.416       30.739        0.023      342.515       17.976      857.353
11/09/2014  19:22:00     -127.012       42.359      -17.762       51.105       63.644       32.560     2611.702     4050.547     1060.150        1.298        0.386      133.889       28.596        0.046      342.498       17.949      857.345
11/09/2014  19:23:00     -101.875       39.732      -16.583       54.487       68.250       34.361     2968.808     4658.130     1180.694        1.052        0.440      109.349       31.230        0.082      342.570       18.071      857.353
11/09/2014  19:24:00     -139.603      -14.388      -10.336       55.282       71.948       33.226     3056.131     5176.578     1103.995        1.457        0.467      140.343       21.915        0.024      342.440       17.850      857.379
11/09/2014  19:25:00     -105.933      -21.032      -14.793       49.543       49.657       33.221     2454.539     2465.841     1103.614        0.895        0.301      108.001       28.827        0.071      342.505       17.960      857.418
11/09/2014  19:26:00     -175.405        6.168      -34.125       96.321       95.129       40.992     9277.745     9049.570     1680.349        2.598        1.000      175.514       37.964        0.047      342.433       17.836      857.407
11/09/2014  19:27:00     -134.624       40.443      -37.354       46.345       57.769       31.395     2147.838     3337.228      985.628        1.381        0.324      140.567       21.830        0.024      342.536       18.014      857.378
11/09/2014  19:28:00     -151.977       75.368      -34.414       56.863       93.870       41.086     3233.369     8811.584     1688.018        2.184        0.687      169.638       35.417        0.044      342.486       17.928      857.366
11/09/2014  19:29:00     -164.003       20.056      -32.752       63.293       80.716       43.195     4005.989     6515.101     1865.765        2.038        0.619      165.225       32.489        0.039      342.508       17.965      857.360
11/09/2014  19:30:00      -67.614       12.161       -3.183       83.245       66.602       51.619     6929.790     4435.764     2664.539        0.938        0.702       68.699       43.767        0.406      342.426       17.828      857.365
11/09/2014  19:31:00     -224.332      -85.084      -20.128       74.772       94.259       40.043     5590.886     8884.684     1603.430        3.702        0.804      239.925       32.380        0.018      342.524       17.990      857.342
11/09/2014  19:32:00     -214.824       13.186      -52.380       86.779       83.186       41.157     7530.559     6919.829     1693.900        3.260        0.807      215.228       27.446        0.016      342.535       18.009      857.303
11/09/2014  19:33:00     -111.300       -8.982      -15.578       68.118       51.821       38.047     4640.057     2685.406     1447.603        1.074        0.439      111.662       12.807        0.013      342.465       17.894      857.285
11/09/2014  19:34:00     -164.555      -56.314      -15.368      104.080       72.084       57.620    10832.587     5196.046     3320.051        2.491        0.967      173.924       54.196        0.097      342.395       17.772      857.257
11/09/2014  19:35:00     -111.067       -0.021      -13.747       83.190       87.818       48.943     6920.594     7712.006     2395.443        1.477        0.851      111.067       46.651        0.176      342.372       17.734      857.239
11/09/2014  19:36:00     -171.117      -51.001      -34.225       91.215      108.478       56.962     8320.183    11767.516     3244.623        2.819        1.167      178.555       45.347        0.065      342.431       17.834      857.255
11/09/2014  19:37:00     -250.468      -81.307      -21.677      136.752      111.764       51.504    18700.981    12491.097     2652.691        5.182        1.692      263.334       47.650        0.033      342.464       17.889      857.228
11/09/2014  19:38:00     -272.266      -81.884      -35.320       89.196       85.241       55.381     7955.901     7266.039     3067.027        5.018        0.914      284.313       38.160        0.018      342.505       17.958      857.191
11/09/2014  19:39:00     -235.494      -28.126      -40.096      132.153      101.195       61.060    17464.418    10240.506     3728.272        4.464        1.572      237.168       47.084        0.039      342.528       17.998      857.182
11/09/2014  19:40:00     -241.644      -84.645      -12.316      104.368      101.610       55.555    10892.758    10324.503     3086.364        4.500        1.215      256.040       39.251        0.024      342.485       17.925      857.147
11/09/2014  19:41:00     -233.023      -57.768      -16.658       93.625       94.374       44.697     8765.710     8906.369     1997.800        3.879        0.983      240.077       34.891        0.021      342.437       17.844      857.118
11/09/2014  19:42:00     -248.103      -74.450      -26.140      126.112       79.613       47.284    15904.244     6338.164     2235.811        4.612        1.224      259.033       42.894        0.027      342.415       17.805      857.111
11/09/2014  19:43:00     -189.442      -67.382       -9.281       86.646      107.905       48.985     7507.604    11643.477     2399.519        3.103        1.078      201.068       39.189        0.038      342.358       17.708      857.118
11/09/2014  19:44:00     -173.443      -19.134      -19.860       89.172      111.364       59.421     7951.593    12402.035     3530.833        2.736        1.194      174.496       36.015        0.043      342.326       17.654      857.120
11/09/2014  19:45:00     -178.609      -48.518      -16.311       95.656       83.647       54.744     9150.132     6996.772     2996.940        2.683        0.957      185.082       39.966        0.047      342.374       17.736      857.147
11/09/2014  19:46:00     -175.304      -40.886      -11.009      121.108       99.747       54.314    14667.236     9949.412     2949.959        3.004        1.378      180.009       53.193        0.087      342.346       17.691      857.160
11/09/2014  19:47:00     -141.114       35.272      -15.125       72.070       60.194       53.082     5194.137     3623.304     2817.649        1.651        0.582      145.455       32.166        0.049      342.386       17.758      857.156
11/09/2014  19:48:00     -163.032       54.902      -18.854      110.745      170.534       67.412    12264.418    29081.865     4544.388        3.791        2.295      172.028       62.266        0.131      342.423       17.820      857.158
11/09/2014  19:49:00     -140.801       45.685        3.424       99.458       95.226       56.918     9891.980     9067.922     3239.626        2.206        1.110      148.027       48.372        0.107      342.395       17.772      857.156
11/09/2014  19:50:00     -128.719        4.040      -27.878       95.794       50.307       39.475     9176.562     2530.815     1558.240        1.531        0.663      128.783       43.759        0.115      342.438       17.846      857.166
11/09/2014  19:51:00     -148.473       48.759      -17.827      105.857      105.612       60.270    11205.744    11153.968     3632.526        2.536        1.300      156.275       58.600        0.141      342.374       17.737      857.179
11/09/2014  19:52:00     -233.077      -37.296      -15.444      105.778      125.158       58.889    11188.935    15664.488     3467.930        4.313        1.516      236.042       51.578        0.048      342.431       17.834      857.187
11/09/2014  19:53:00     -191.133       20.853      -37.739       80.191       85.826       57.161     6430.602     7366.154     3267.419        2.772        0.853      192.267       47.384        0.061      342.411       17.799      857.168
11/09/2014  19:54:00     -189.984      -80.493      -24.746       98.398       76.446       47.460     9682.072     5843.971     2252.426        3.048        0.889      206.332       28.358        0.019      342.402       17.784      857.146
11/09/2014  19:55:00     -176.478      -67.026      -17.825       80.140       77.994       46.574     6422.388     6083.027     2169.093        2.531        0.734      188.777       38.093        0.041      342.377       17.742      857.120
11/09/2014  19:56:00     -124.771        3.279      -17.487       80.279       57.312       46.656     6444.672     3284.721     2176.739        1.389        0.595      124.815       33.705        0.073      342.390       17.765      857.088
11/09/2014  19:57:00     -168.742      -28.216      -25.108       74.403       88.320       47.870     5535.804     7800.415     2291.528        2.276        0.781      171.085       40.476        0.056      342.425       17.823      857.073
11/09/2014  19:58:00     -145.921       10.870      -20.612       66.239       82.138       46.115     4387.549     6746.612     2126.590        1.755        0.663      146.325       31.346        0.046      342.439       17.846      857.071
11/09/2014  19:59:00     -165.094       60.683      -26.356       85.988      100.659       54.841     7393.890    10132.193     3007.522        2.608        1.027      175.894       46.362        0.069      342.435       17.840      857.097
11/09/2014  20:00:00     -202.626       61.649      -37.111      112.154       93.363       51.337    12578.621     8716.739     2635.471        3.508        1.197      211.797       62.416        0.087      342.530       18.000      857.144
11/09/2014  20:01:00     -188.315       70.157      -27.950       97.620      113.322       50.690     9529.585    12841.802     2569.519        3.305        1.247      200.959       51.037        0.064      342.533       18.009      857.176
11/09/2014  20:02:00     -306.009       98.650      -40.400      105.784      114.654       59.466    11190.186    13145.454     3536.258        6.643        1.394      321.517       49.990        0.024      342.597       18.114      857.215
11/09/2014  20:03:00     -300.639      127.523      -33.837      154.733      101.051       62.904    23942.449    10211.248     3956.889        7.294        1.906      326.567       65.878        0.041      342.612       18.141      857.251
11/09/2014  20:04:00     -150.209       55.329       -0.232       89.786      102.412       55.823     8061.522    10488.192     3116.168        2.364        1.083      160.075       56.228        0.123      342.501       17.953      857.259
11/09/2014  20:05:00     -154.118       92.137       -9.568       79.656       98.039       51.586     6345.119     9611.649     2661.072        2.547        0.931      179.559       33.642        0.035      342.436       17.843      857.265
11/09/2014  20:06:00     -224.935      229.428      -51.734      116.259      147.010       63.178    13516.135    21611.905     3991.486        7.251        1.956      321.298       64.874        0.041      342.526       17.994      857.273
11/09/2014  20:07:00     -146.604      147.394      -26.468       88.833      103.049       53.160     7891.316    10619.096     2825.940        3.262        1.067      207.889       52.778        0.064      342.424       17.821      857.276
11/09/2014  20:08:00     -189.365      127.128      -28.671      108.135       98.538       48.743    11693.162     9709.661     2375.926        3.831        1.189      228.080       34.568        0.023      342.376       17.739      857.299
11/09/2014  20:09:00     -201.442      175.040      -40.505       86.195       98.522       55.411     7429.512     9706.628     3070.395        4.653        1.010      266.867       54.244        0.041      342.312       17.629      857.311
11/09/2014  20:10:00     -132.984      146.096      -21.255       75.524       63.433       44.762     5703.865     4023.693     2003.660        2.560        0.587      197.557       33.555        0.029      342.167       17.384      857.322
11/09/2014  20:11:00     -129.380      137.070      -13.082       82.382      109.910       58.033     6786.810    12080.287     3367.778        2.896        1.112      188.487       41.620        0.049      342.090       17.254      857.340
11/09/2014  20:12:00     -161.070      151.028      -18.627      103.041       69.007       50.120    10617.476     4761.934     2511.979        3.349        0.895      220.801       46.504        0.044      342.139       17.339      857.348
11/09/2014  20:13:00     -199.764      214.534      -48.342       87.628       77.022       47.660     7678.734     5932.344     2271.460        5.207        0.794      293.139       49.599        0.029      342.172       17.392      857.349
11/09/2014  20:14:00     -142.366      198.401      -29.569       70.623       96.606       50.524     4987.568     9332.807     2552.629        3.869        0.844      244.194       45.766        0.035      342.125       17.312      857.337
11/09/2014  20:15:00     -217.295      193.551      -45.329       93.319       81.906       58.569     8708.456     6708.621     3430.342        5.279        0.942      290.997       56.890        0.038      342.122       17.305      857.320
11/09/2014  20:16:00     -226.950      151.431      -38.642      105.424       72.907       49.511    11114.192     5315.394     2451.315        4.740        0.944      272.833       51.196        0.035      342.217       17.469      857.335
11/09/2014  20:17:00     -191.297       79.932      -36.997       89.516      119.377       51.189     8013.093    14250.987     2620.282        3.461        1.244      207.325       47.620        0.053      342.180       17.406      857.345
11/09/2014  20:18:00     -206.627       76.387      -37.326       87.709       99.254       61.010     7692.802     9851.334     3722.275        3.559        1.063      220.294       54.101        0.060      342.143       17.343      857.345
11/09/2014  20:19:00     -173.590      -22.514      -30.371       90.528       64.398       40.827     8195.372     4147.045     1666.868        2.278        0.700      175.044       31.724        0.033      342.016       17.129      857.338
11/09/2014  20:20:00     -250.647     -103.576      -23.224       83.280       80.916       45.247     6935.609     6547.441     2047.266        4.481        0.777      271.204       31.687        0.014      341.952       17.018      857.366
11/09/2014  20:21:00     -152.702       19.442       -4.280      116.169      104.644       64.185    13495.148    10950.307     4119.661        2.613        1.428      153.935       62.737        0.166      341.937       16.994      857.351
11/09/2014  20:22:00     -194.756      123.128       -9.114      161.998      105.841       75.685    26243.268    11202.420     5728.290        4.817        2.159      230.413       86.468        0.141      342.062       17.204      857.296
11/09/2014  20:23:00     -152.397       92.294      -18.204       58.498       73.079       46.330     3422.008     5340.588     2146.513        2.149        0.545      178.166       34.565        0.038      341.991       17.086      857.270
11/09/2014  20:24:00     -215.444      141.274      -37.338       87.450      130.343       57.460     7647.534    16989.347     3301.612        4.785        1.397      257.633       40.412        0.025      342.107       17.282      857.238
11/09/2014  20:25:00     -167.706      108.480      -29.267       97.204      113.147       53.560     9448.547    12802.304     2868.675        3.293        1.256      199.733       51.072        0.065      342.110       17.288      857.199
11/09/2014  20:26:00     -166.207      -21.874      -14.547       80.063       89.658       63.067     6410.080     8038.622     3977.489        2.337        0.921      167.640       47.049        0.079      341.979       17.065      857.253
11/09/2014  20:27:00     -130.706       84.412       -8.300       76.339      110.877       62.122     5827.570    12293.668     3859.110        2.313        1.099      155.594       57.494        0.137      341.977       17.063      857.263
11/09/2014  20:28:00     -182.796        1.292       -9.787      133.170       96.359       48.792    17734.197     9284.963     2380.630        3.145        1.470      182.801       54.357        0.088      341.966       17.044      857.291
11/09/2014  20:29:00     -127.469       50.587       -7.623       70.917       77.112       51.891     5029.240     5946.299     2692.703        1.626        0.683      137.140       39.055        0.081      342.017       17.131      857.311
11/09/2014  20:30:00     -174.485      136.136      -22.143      105.264       72.517       58.081    11080.501     5258.671     3373.374        3.459        0.986      221.310       58.529        0.070      342.047       17.182      857.302
11/09/2014  20:31:00     -141.926       69.445      -22.660       71.751       86.766       46.357     5148.174     7528.296     2148.954        2.015        0.741      158.005       39.108        0.061      341.991       17.086      857.300
11/09/2014  20:32:00     -127.730      151.992      -27.102       92.207      103.282       49.138     8502.090    10667.249     2414.565        3.086        1.079      198.536       55.248        0.077      342.051       17.187      857.307
11/09/2014  20:33:00     -156.978      109.177      -30.551       59.761       57.605       44.090     3571.371     3318.357     1943.972        2.316        0.442      191.211       34.911        0.033      342.098       17.266      857.310
11/09/2014  20:34:00     -143.897       85.783      -20.445       73.839       46.657       30.086     5452.128     2176.908      905.158        1.851        0.427      167.526       37.576        0.050      342.067       17.216      857.311
11/09/2014  20:35:00     -109.171      116.969      -10.798       53.439       71.565       37.188     2855.743     5121.580     1382.929        1.754        0.468      160.001       26.046        0.026      342.082       17.242      857.280
11/09/2014  20:36:00      -90.266       24.805       -3.994       37.089       58.544       37.606     1375.592     3427.429     1414.212        0.750        0.311       93.612       14.169        0.023      342.002       17.107      857.267
11/09/2014  20:37:00     -206.949       45.634      -37.463       73.065       79.252       36.280     5338.560     6280.876     1316.215        2.962        0.647      211.921       26.917        0.016      342.092       17.258      857.270
11/09/2014  20:38:00     -118.578       58.830      -18.228       33.428       89.811       33.290     1117.439     8066.082     1108.209        1.407        0.515      132.370       35.491        0.072      342.028       17.150      857.252
11/09/2014  20:39:00     -162.779       24.967      -38.462       86.601       68.413       30.343     7499.734     4680.272      920.721        2.085        0.655      164.683       21.158        0.017      342.083       17.244      857.229
11/09/2014  20:40:00     -225.035       99.503      -52.338       96.538       68.660       34.841     9319.587     4714.152     1213.907        3.926        0.762      246.052       32.419        0.017      342.163       17.376      857.213
11/09/2014  20:41:00     -185.044      -57.578      -14.441       53.629       72.422       36.698     2876.018     5244.975     1346.726        2.361        0.473      193.795       25.903        0.018      341.899       16.930      857.195
11/09/2014  20:42:00     -285.791      -58.249      -23.071      122.986       67.909       53.853    15125.560     4611.659     2900.165        5.411        1.132      291.667       49.445        0.029      341.925       16.973      857.197
11/09/2014  20:43:00     -230.711      -59.454      -13.184      122.629       89.540       53.502    15037.819     8017.356     2862.454        4.142        1.296      238.249       59.603        0.063      341.850       16.847      857.186
11/09/2014  20:44:00     -272.422      -49.778      -20.691      115.132       69.487       51.114    13255.295     4828.500     2612.604        4.890        1.035      276.933       51.553        0.035      341.907       16.942      857.171
11/09/2014  20:45:00     -180.203      -71.836      -11.512       75.054       69.675       38.063     5633.095     4854.630     1448.779        2.485        0.597      193.994       26.345        0.018      341.766       16.705      857.159
11/09/2014  20:46:00     -234.970      -80.023      -37.997       65.620       80.087       36.969     4306.002     6413.849     1366.680        3.757        0.604      248.223       22.454        0.008      341.805       16.768      857.142
11/09/2014  20:47:00     -185.541      -86.315      -26.180       81.135       60.242       48.260     6582.875     3629.088     2329.066        2.755        0.627      204.635       41.864        0.042      341.705       16.600      857.152
11/09/2014  20:48:00     -233.176      -35.219      -21.713      109.958       92.265       45.740    12090.868     8512.809     2092.141        3.938        1.135      235.821       50.264        0.045      341.818       16.792      857.183
11/09/2014  20:49:00     -188.168      -66.495       -9.845       72.570       72.593       42.589     5266.415     5269.731     1813.824        2.614        0.617      199.572       39.070        0.038      341.781       16.731      857.210
11/09/2014  20:50:00     -161.392        4.188      -26.976       75.524       67.262       41.291     5703.871     4524.225     1704.951        1.936        0.597      161.446       38.275        0.056      341.853       16.852      857.238
11/09/2014  20:51:00     -153.298       62.014      -22.051       49.248       84.681       38.351     2425.321     7170.811     1470.778        1.945        0.553      165.367       39.226        0.056      341.808       16.775      857.273
11/09/2014  20:52:00     -103.653       38.642        0.883       70.533       74.141       40.393     4974.903     5496.819     1631.605        1.217        0.605      110.621       39.880        0.130      341.808       16.778      857.308
11/09/2014  20:53:00      -97.554       43.401       -2.323       83.603       50.248       40.347     6989.444     2524.850     1627.844        1.127        0.557      106.772       42.029        0.155      341.842       16.835      857.340
11/09/2014  20:54:00      -91.191       42.867      -11.559       66.500       66.927       36.969     4422.251     4479.191     1366.679        1.028        0.513      100.764       28.658        0.081      341.949       17.016      857.373
11/09/2014  20:55:00      -73.060       -7.008       23.661       69.259       58.372       32.220     4796.812     3407.278     1038.115        0.759        0.462       73.395       12.271        0.028      341.949       17.016      857.405
11/09/2014  20:56:00      -66.982       44.505      -13.745       42.226       82.912       29.395     1783.070     6874.361      864.041        0.809        0.476       80.419       24.892        0.096      341.952       17.022      857.433
11/09/2014  20:57:00     -117.823       37.662      -39.503       58.664       82.955       45.601     3441.465     6881.571     2079.468        1.463        0.620      123.696       34.616        0.078      342.014       17.126      857.461
11/09/2014  20:58:00     -111.305        9.281      -25.631       34.699       50.531       31.183     1204.018     2553.411      972.384        0.893        0.236      111.691       27.828        0.062      342.002       17.107      857.491
11/09/2014  20:59:00      -93.008      -25.048      -13.886       55.188       54.644       31.501     3045.679     2986.018      992.337        0.825        0.351       96.321       20.019        0.043      341.885       16.908      857.523
11/09/2014  21:00:00      -82.857       -9.230       -8.935       63.520       45.911       33.493     4034.764     2107.844     1121.769        0.715        0.363       83.370       33.867        0.165      341.845       16.840      857.550
11/09/2014  21:01:00     -102.526       88.847      -13.257       77.231       72.572       42.633     5964.584     5266.652     1817.553        1.581        0.652      135.666       34.558        0.065      342.152       17.360      857.550
11/09/2014  21:02:00      -36.462       27.077       -0.523       37.993       48.290       31.577     1443.495     2331.934      997.083        0.342        0.239       45.416       25.963        0.327      341.976       17.063      857.543
11/09/2014  21:03:00      -64.794       18.757        3.182       64.965       76.518       33.648     4220.475     5855.027     1132.158        0.788        0.560       67.454       29.926        0.197      341.968       17.050      857.540
11/09/2014  21:04:00     -130.228       56.809      -18.389       45.863       73.806       29.810     2103.425     5447.393      888.655        1.448        0.422      142.080       24.751        0.030      341.983       17.073      857.513
11/09/2014  21:05:00     -104.757       34.574      -15.172       40.570       46.929       31.653     1645.897     2202.297     1001.921        0.862        0.243      110.315       23.871        0.047      341.860       16.866      857.499
11/09/2014  21:06:00     -136.403      -41.478      -14.560       46.089       36.011       22.604     2124.198     1296.760      510.939        1.223        0.197      142.570       10.894        0.006      341.716       16.623      857.491
11/09/2014  21:07:00     -101.885       25.486      -22.643       65.693       65.447       34.321     4315.575     4283.272     1177.933        1.066        0.489      105.024       25.633        0.060      341.706       16.604      857.470
11/09/2014  21:08:00      -81.900      -16.881      -20.872       40.599       47.005       28.089     1648.279     2209.426      789.000        0.604        0.232       83.621       23.501        0.079      341.730       16.646      857.452
11/09/2014  21:09:00     -106.577      -48.827      -13.967       85.617       48.990       38.844     7330.354     2400.013     1508.864        1.259        0.562      117.230       40.360        0.119      341.649       16.507      857.397
11/09/2014  21:10:00     -239.770      -23.118      -17.145      124.405       79.864       43.611    15476.560     6378.182     1901.935        4.103        1.188      240.882       42.747        0.031      341.960       17.032      857.360
11/09/2014  21:11:00     -219.617      -38.438      -23.740       68.165       64.192       35.446     4646.434     4120.565     1256.437        3.015        0.501      222.955       25.588        0.013      341.994       17.090      857.330
11/09/2014  21:12:00     -195.483      -48.016      -17.580       93.981       76.957       39.117     8832.396     5922.322     1530.140        2.855        0.814      201.293       45.194        0.050      341.911       16.948      857.314
11/09/2014  21:13:00     -117.653      -21.740       -8.996       66.213       54.216       35.207     4384.184     2939.403     1239.505        1.148        0.428      119.645       12.783        0.011      341.893       16.921      857.297
11/09/2014  21:14:00     -103.968       -6.151      -21.280       79.483       46.579       36.531     6317.491     2169.588     1334.546        1.056        0.491      104.150       39.570        0.144      341.930       16.986      857.298
11/09/2014  21:15:00     -191.050      -52.497      -20.098       79.492       74.380       43.730     6318.913     5532.333     1912.333        2.671        0.688      198.131       33.317        0.028      342.009       17.117      857.323
11/09/2014  21:16:00     -142.284      -21.103       -6.128       86.378       77.609       37.460     7461.147     6023.108     1403.243        1.780        0.744      143.841       40.436        0.079      341.997       17.097      857.354
11/09/2014  21:17:00     -149.166       42.767      -20.193       65.218       78.536       36.619     4253.413     6167.872     1340.975        1.812        0.588      155.176       29.979        0.037      342.020       17.138      857.361
11/09/2014  21:18:00     -122.154       32.272      -20.119       54.328       67.598       36.334     2951.572     4569.475     1320.156        1.260        0.442      126.345       18.493        0.021      342.030       17.154      857.385
11/09/2014  21:19:00     -113.846       58.621      -13.013       84.926       80.092       48.779     7212.432     6414.664     2379.436        1.628        0.800      128.052       48.717        0.145      341.979       17.066      857.403
11/09/2014  21:20:00     -149.047      118.528      -20.170       75.001      108.611       42.396     5625.172    11796.282     1797.384        2.794        0.961      190.431       31.155        0.027      341.979       17.065      857.416
11/09/2014  21:21:00     -108.116      131.628      -12.331       76.890       72.457       43.557     5912.145     5250.067     1897.217        2.111        0.653      170.338       38.251        0.050      341.929       16.982      857.435
11/09/2014  21:22:00     -113.526      174.963      -17.153       67.303       96.590       51.512     4529.712     9329.701     2653.529        3.015        0.826      208.567       37.377        0.032      341.951       17.018      857.475
11/09/2014  21:23:00     -103.278       94.031      -11.917       59.831       81.481       39.706     3579.709     6639.174     1576.575        1.572        0.590      139.671       36.562        0.069      341.890       16.916      857.482
11/09/2014  21:24:00      -85.860       97.058      -14.852       62.509       77.447       34.828     3907.437     5998.108     1213.017        1.406        0.556      129.584       27.729        0.046      341.885       16.909      857.488
11/09/2014  21:25:00      -77.227       85.103      -15.772       37.131       33.323       27.320     1378.737     1110.422      746.380        0.834        0.162      114.919       13.735        0.014      341.844       16.839      857.507
11/09/2014  21:26:00      -78.751      103.165      -13.083       38.621       51.855       31.025     1491.583     2688.943      962.531        1.108        0.257      129.787       25.623        0.039      341.910       16.950      857.526
11/09/2014  21:27:00      -76.940      144.745      -25.362       60.135       48.003       37.785     3616.227     2304.273     1427.740        1.743        0.367      163.923       34.997        0.046      341.918       16.964      857.525
11/09/2014  21:28:00      -29.546      205.635      -22.295       44.677       63.705       35.048     1996.065     4058.379     1228.330        2.547        0.364      207.747       31.674        0.023      341.685       16.566      857.520
11/09/2014  21:29:00      -28.385      261.306      -42.702       58.480       41.427       24.692     3419.875     1716.186      609.696        3.833        0.287      262.843       21.434        0.007      341.386       16.057      857.517
11/09/2014  21:30:00      -92.659      181.173      -22.134       54.054       63.521       37.882     2921.818     4034.915     1435.056        2.514        0.420      203.493       32.246        0.025      341.413       16.106      857.526
11/09/2014  21:31:00     -103.878      257.895      -31.937       57.159       67.440       36.520     3267.144     4548.215     1333.735        4.373        0.457      278.029       31.845        0.013      341.484       16.225      857.523
11/09/2014  21:32:00     -110.571      197.841      -21.989       72.586       84.025       52.198     5268.713     7060.117     2724.669        3.345        0.753      226.643       35.520        0.025      341.254       15.835      857.537
11/09/2014  21:33:00     -139.669      299.211      -40.107       71.236       90.592       49.685     5074.617     8206.992     2468.578        6.319        0.788      330.204       46.927        0.020      341.107       15.586      857.523
11/09/2014  21:34:00     -131.967      321.411      -41.311       71.237      117.095       61.365     5074.772    13711.145     3765.657        7.248        1.128      347.448       65.248        0.035      341.173       15.698      857.533
11/09/2014  21:35:00     -100.168      169.662      -27.641       62.380       61.247       41.902     3891.219     3751.193     1755.813        2.449        0.470      197.025       39.709        0.041      341.127       15.622      857.558
11/09/2014  21:36:00     -125.600      200.529      -30.631       69.368       99.990       48.668     4811.948     9997.928     2368.614        3.705        0.859      236.616       43.839        0.034      341.264       15.852      857.571
11/09/2014  21:37:00     -160.110      208.583      -40.456       80.225       85.977       45.559     6436.032     7392.064     2075.603        4.334        0.795      262.949       47.807        0.033      341.381       16.049      857.573
11/09/2014  21:38:00      -90.316      198.748      -25.835       65.244       94.908       43.185     4256.777     9007.605     1864.983        3.172        0.756      218.306       52.550        0.058      341.233       15.802      857.587
11/09/2014  21:39:00      -85.702      269.382      -25.633       83.648       83.920       37.297     6997.004     7042.588     1391.099        4.800        0.772      282.686       33.191        0.014      341.217       15.772      857.594
11/09/2014  21:40:00     -118.075      229.353      -28.808       72.197       85.564       53.864     5212.381     7321.265     2901.346        4.140        0.772      257.962       52.786        0.042      341.114       15.599      857.603
11/09/2014  21:41:00     -101.326      346.747      -49.843       79.257       88.839       51.204     6281.607     7892.396     2621.817        7.489        0.840      361.248       43.345        0.014      341.254       15.834      857.601
11/09/2014  21:42:00     -128.314      245.106      -40.350       63.342       79.911       46.535     4012.269     6385.738     2165.540        4.536        0.628      276.661       41.585        0.023      341.243       15.818      857.593
11/09/2014  21:43:00     -121.625      206.260      -30.738       68.980       74.172       41.849     4758.194     5501.528     1751.329        3.514        0.601      239.449       41.551        0.030      341.222       15.783      857.600
11/09/2014  21:44:00     -136.085      208.850      -38.776       68.389       80.203       45.294     4677.025     6432.556     2051.576        3.840        0.658      249.274       36.094        0.021      341.306       15.924      857.625
11/09/2014  21:45:00     -141.812      302.761      -40.389       76.141       94.702       50.158     5797.518     8968.526     2515.843        6.534        0.864      334.328       50.879        0.023      341.218       15.776      857.636
11/09/2014  21:46:00     -144.882      285.108      -40.920       75.658       86.558       45.800     5724.094     7492.349     2097.605        5.963        0.766      319.809       44.461        0.019      341.265       15.854      857.654
11/09/2014  21:47:00     -141.544      218.147      -25.878       62.888      100.263       55.695     3954.933    10052.574     3101.985        4.270        0.855      260.044       55.883        0.046      341.228       15.792      857.673
11/09/2014  21:48:00     -122.445      213.596      -32.852       49.901       69.856       39.378     2490.146     4879.907     1550.643        3.531        0.446      246.203       26.278        0.011      341.242       15.815      857.685
11/09/2014  21:49:00     -142.427      191.723      -35.381       65.193       87.775       44.892     4250.105     7704.464     2015.261        3.613        0.698      238.837       43.162        0.033      341.251       15.832      857.686
11/09/2014  21:50:00     -127.502      211.726      -34.660       66.746       70.164       42.848     4454.977     4923.048     1835.993        3.675        0.561      247.153       42.934        0.030      341.198       15.740      857.692
11/09/2014  21:51:00     -128.299      123.155      -20.821       56.992       71.476       50.774     3248.060     5108.850     2578.018        2.150        0.547      177.842       48.475        0.074      341.203       15.751      857.690
11/09/2014  21:52:00     -100.571      115.828      -15.089       55.924       62.699       36.349     3127.512     3931.213     1321.216        1.607        0.419      153.397       30.318        0.039      341.091       15.563      857.682
11/09/2014  21:53:00     -140.157      109.138       -8.912       74.653       75.410       42.924     5573.096     5686.657     1842.497        2.237        0.655      177.638       43.939        0.061      341.183       15.717      857.681
11/09/2014  21:54:00     -114.194      125.394      -20.853       47.658       65.782       36.261     2271.314     4327.264     1314.877        1.855        0.396      169.599       30.068        0.031      341.156       15.673      857.669
11/09/2014  21:55:00     -144.458      124.850      -33.468       60.968       61.862       38.923     3717.144     3826.926     1514.997        2.332        0.453      190.934       42.277        0.049      341.406       16.093      857.651
11/09/2014  21:56:00     -129.575      129.096      -24.995       67.767       63.605       38.114     4592.401     4045.607     1452.708        2.208        0.505      182.908       37.969        0.043      341.271       15.866      857.656
11/09/2014  21:57:00     -107.360      129.302      -21.566       54.492       58.039       27.518     2969.326     3368.543      757.254        1.790        0.355      168.063       27.838        0.027      341.169       15.695      857.655
11/09/2014  21:58:00      -88.915      131.861      -19.636       43.833       66.874       35.148     1921.294     4472.158     1235.374        1.665        0.381      159.038       26.095        0.027      341.067       15.522      857.634
11/09/2014  21:59:00     -131.621      120.682      -34.825       45.615       54.355       27.086     2080.717     2954.456      733.664        1.943        0.288      178.572       24.600        0.019      341.087       15.554      857.630
11/09/2014  22:00:00     -168.021      135.869      -33.115       56.938       72.646       44.931     3241.965     5277.455     2018.793        2.916        0.527      216.082       32.724        0.023      341.159       15.676      857.619
11/09/2014  22:01:00     -154.200       91.014      -21.506       82.311       56.545       34.934     6775.178     3197.329     1220.395        2.186        0.560      179.057       35.445        0.039      341.110       15.594      857.612
11/09/2014  22:02:00     -136.363       52.877      -23.473       46.554       53.841       33.185     2167.284     2898.829     1101.228        1.405        0.308      146.256       31.341        0.046      341.067       15.522      857.606
11/09/2014  22:03:00     -123.028       39.618       -9.805       49.395       68.555       31.802     2439.837     4699.734     1011.365        1.247        0.408      129.250       16.191        0.016      340.953       15.328      857.635
11/09/2014  22:04:00     -135.821       15.674       -9.284       88.858       61.386       40.041     7895.738     3768.208     1603.272        1.602        0.663      136.722       40.855        0.089      340.849       15.152      857.645
11/09/2014  22:05:00     -107.159       52.577       -3.778       73.432       49.371       38.874     5392.327     2437.511     1511.218        1.180        0.467      119.363       37.944        0.101      340.898       15.236      857.630
11/09/2014  22:06:00     -127.415      128.799      -20.233       61.526       67.806       45.412     3785.466     4597.620     2062.288        2.184        0.522      181.173       37.621        0.043      340.941       15.308      857.632
11/09/2014  22:07:00     -152.081      -56.741       -8.638       66.205       57.293       30.518     4383.121     3282.454      931.376        1.751        0.430      162.321       21.580        0.018      340.797       15.063      857.659
11/09/2014  22:08:00     -104.108       64.565      -12.498       57.585      114.907       45.174     3316.063    13203.695     2040.663        1.686        0.928      122.503       52.140        0.181      340.832       15.123      857.657
11/09/2014  22:09:00     -134.293       32.076       -2.914      112.485       54.199       44.461    12652.920     2937.524     1976.808        1.832        0.878      138.070       59.514        0.186      340.787       15.047      857.638
11/09/2014  22:10:00     -150.413       19.698      -17.671       70.064       68.369       32.432     4908.912     4674.267     1051.831        1.698        0.532      151.697       29.305        0.037      340.769       15.018      857.644
11/09/2014  22:11:00      -59.057       -5.161      -11.298       62.110       41.646       31.734     3857.713     1734.429     1007.055        0.512        0.330       59.282       22.978        0.150      340.778       15.034      857.661
11/09/2014  22:12:00     -113.095       51.046      -19.715       54.122       52.507       26.068     2929.215     2756.946      679.526        1.107        0.318      124.081       27.329        0.049      340.730       14.952      857.677
11/09/2014  22:13:00     -114.296       20.476       -7.579       42.590       52.005       29.695     1813.904     2704.565      881.816        0.947        0.270      116.116       19.802        0.029      340.792       15.057      857.682
11/09/2014  22:14:00     -124.089       48.029      -27.627       49.705       57.223       34.759     2470.632     3274.507     1208.194        1.271        0.348      133.059       30.564        0.053      340.904       15.245      857.689
11/09/2014  22:15:00     -170.719      133.870      -33.773       84.596       96.934       50.722     7156.518     9396.139     2572.745        3.366        0.956      216.947       37.321        0.030      341.020       15.439      857.726
11/09/2014  22:16:00     -135.801      167.202      -17.992       84.240       82.801       52.402     7096.354     6856.022     2746.013        3.171        0.835      215.403       51.334        0.057      341.015       15.432      857.735
11/09/2014  22:17:00     -131.809      118.315      -25.010       87.282       57.153       39.096     7618.234     3266.469     1528.494        2.220        0.621      177.122       41.971        0.056      340.970       15.357      857.738
11/09/2014  22:18:00     -117.828       79.008       -7.884       64.860       74.333       55.937     4206.842     5525.460     3128.935        1.652        0.643      141.865       37.793        0.071      340.933       15.295      857.737
11/09/2014  22:19:00     -128.759      157.902      -25.330       51.557       99.630       44.935     2658.171     9926.150     2019.184        2.838        0.730      203.745       35.899        0.031      340.991       15.392      857.747
11/09/2014  22:20:00      -75.833       82.902      -12.292       51.975       90.940       38.460     2701.379     8270.102     1479.192        1.261        0.623      112.354       25.864        0.053      340.947       15.318      857.759
11/09/2014  22:21:00     -108.569      102.070      -20.797       58.985       58.884       39.310     3479.208     3467.328     1545.258        1.556        0.425      149.015       34.661        0.054      341.036       15.470      857.772
11/09/2014  22:22:00     -151.398      136.682      -29.621       59.413      116.007       47.067     3529.876    13457.710     2215.276        3.084        0.960      203.969       35.638        0.031      341.075       15.533      857.767
11/09/2014  22:23:00     -139.547       96.005      -27.059       55.020       42.509       30.220     3027.231     1807.025      913.277        1.758        0.287      169.382       30.349        0.032      341.001       15.410      857.772
11/09/2014  22:24:00     -144.422      166.893      -31.963       57.012       82.857       41.036     3250.321     6865.308     1683.923        3.076        0.590      220.705       30.642        0.019      340.989       15.388      857.775
11/09/2014  22:25:00     -197.025       93.119      -32.905       66.676       55.349       35.126     4445.681     3063.550     1233.809        2.866        0.437      217.922       25.272        0.013      340.942       15.308      857.777
11/09/2014  22:26:00     -131.812      143.894      -23.960       72.834       70.159       42.368     5304.840     4922.259     1795.033        2.534        0.601      195.141       36.587        0.035      340.914       15.261      857.770
11/09/2014  22:27:00     -168.872       50.774      -18.932       72.918       64.626       44.998     5316.967     4176.486     2024.840        2.148        0.576      176.340       32.550        0.034      340.881       15.207      857.762
11/09/2014  22:28:00     -141.880      125.242      -37.281       66.024       49.919       40.990     4359.104     2491.931     1680.181        2.287        0.427      189.250       28.472        0.023      340.874       15.193      857.759
11/09/2014  22:29:00     -139.841       59.863      -23.563       71.571       80.556       32.273     5122.407     6489.200     1041.554        1.817        0.633      152.115       24.106        0.025      340.848       15.150      857.756
11/09/2014  22:30:00     -184.299       95.273      -38.078       89.360      110.889       44.674     7985.265    12296.436     1995.768        3.338        1.114      207.468       38.484        0.034      340.854       15.160      857.761
11/09/2014  22:31:00     -161.742      193.941      -28.023       75.673       83.428       50.962     5726.417     6960.224     2597.170        3.992        0.764      252.534       45.940        0.033      340.930       15.286      857.770
11/09/2014  22:32:00     -151.640      183.287      -28.593       73.892       65.206       39.739     5460.043     4251.854     1579.176        3.435        0.565      237.884       27.888        0.014      340.945       15.313      857.772
11/09/2014  22:33:00     -201.509       10.407      -22.211       53.702       81.196       34.020     2883.888     6592.816     1157.374        2.592        0.532      201.778       26.375        0.017      340.887       15.214      857.787
11/09/2014  22:34:00     -230.117        3.232      -38.679       81.445       82.271       50.865     6633.272     6768.471     2587.279        3.522        0.799      230.140       45.270        0.039      340.791       15.052      857.817
11/09/2014  22:35:00     -209.671      115.145      -36.357       87.528       82.919       42.279     7661.182     6875.515     1787.526        3.743        0.816      239.208       24.471        0.010      340.875       15.193      857.819
11/09/2014  22:36:00     -142.297       47.957      -27.165       68.653       48.795       45.346     4713.265     2380.946     2056.257        1.622        0.458      150.161       42.218        0.079      340.798       15.068      857.815
11/09/2014  22:37:00     -146.823      -20.151      -17.468       49.716       45.488       37.427     2471.705     2069.138     1400.798        1.410        0.297      148.199       26.068        0.031      340.626       14.776      857.798
11/09/2014  22:38:00     -163.676       20.754      -33.915       99.527       68.417       34.874     9905.533     4680.898     1216.172        2.208        0.790      164.987       30.641        0.034      340.736       14.961      857.780
11/09/2014  22:39:00     -162.107      165.246      -36.837       67.316       98.848       41.356     4531.433     9770.895     1710.317        3.547        0.801      231.484       37.900        0.027      340.860       15.169      857.788
11/09/2014  22:40:00     -143.592      109.222      -25.117       64.199       76.181       31.418     4121.501     5803.601      987.097        2.204        0.546      180.411       37.073        0.042      340.939       15.304      857.734
11/09/2014  22:41:00     -183.346       29.430      -22.945       46.279       41.622       29.828     2141.727     1732.388      889.723        1.989        0.238      185.693       18.783        0.010      340.725       14.941      857.732
11/09/2014  22:42:00      -94.341       49.223       -9.187       41.007       43.278       27.107     1681.614     1873.028      734.797        0.785        0.214      106.410       20.704        0.038      340.772       15.023      857.714
11/09/2014  22:43:00     -159.951      -47.648      -16.023       37.275       45.108       26.875     1389.454     2034.698      722.260        1.613        0.207      166.898       19.640        0.014      340.572       14.685      857.703
11/09/2014  22:44:00     -144.613      -40.269       -0.174       67.049       67.214       36.478     4495.570     4517.762     1330.639        1.644        0.517      150.115       32.258        0.046      340.490       14.545      857.690
11/09/2014  22:45:00     -102.712       13.833      -10.538       37.301       61.093       29.751     1391.362     3732.378      885.123        0.843        0.300      103.639       19.629        0.036      340.625       14.774      857.648
11/09/2014  22:46:00     -192.547      -64.841      -20.540       54.473       44.466       34.476     2967.287     1977.195     1188.598        2.392        0.307      203.172       29.088        0.020      340.515       14.585      857.616
11/09/2014  22:47:00     -136.955      -36.331      -12.887       64.770       55.236       33.890     4195.178     3050.998     1148.551        1.432        0.420      141.692       16.610        0.014      340.399       14.393      857.597
11/09/2014  22:48:00     -104.259      -20.168      -18.393       62.307       44.468       29.244     3882.107     1977.379      855.184        0.916        0.336      106.191       14.316        0.018      340.357       14.322      857.567
11/09/2014  22:49:00     -136.413       -7.792      -23.936       74.963       40.223       30.733     5619.457     1617.861      944.513        1.371        0.409      136.635       36.897        0.073      340.392       14.379      857.526
11/09/2014  22:50:00     -150.896       27.098      -18.431       51.345       36.388       30.837     2636.285     1324.072      950.935        1.438        0.246      153.310       18.427        0.014      340.356       14.319      857.530
11/09/2014  22:51:00      -47.811        8.025       -2.776       54.262       44.530       37.591     2944.355     1982.946     1413.088        0.435        0.317       48.480       32.094        0.438      340.415       14.419      857.507
11/09/2014  22:52:00     -110.882      -66.325        2.362       89.067       54.490       38.026     7932.924     2969.116     1446.009        1.452        0.617      129.204       30.404        0.055      340.161       13.990      857.521
11/09/2014  22:53:00      -83.733      -38.317       -0.280       80.865       36.752       27.960     6539.198     1350.737      781.760        0.857        0.434       92.084       39.316        0.182      340.089       13.868      857.514
11/09/2014  22:54:00     -187.426      -16.738      -14.591       43.230       53.883       31.312     1868.871     2903.424      980.416        2.069        0.288      188.172       22.756        0.015      340.116       13.914      857.482
11/09/2014  22:55:00     -144.051      -27.376      -12.893       46.667       43.795       25.267     2177.845     1917.972      638.405        1.320        0.237      146.629       22.912        0.024      340.196       14.049      857.428
11/09/2014  22:56:00     -138.719      -19.129       -0.243       64.300       57.991       31.284     4134.484     3363.011      978.661        1.404        0.424      140.031       30.082        0.046      340.271       14.176      857.410
11/09/2014  22:57:00     -241.158      -18.869      -15.569      117.771       62.756       42.178    13870.024     3938.254     1779.013        3.917        0.979      241.895       54.506        0.051      340.698       14.896      857.387
11/09/2014  22:58:00     -203.144      -12.607       -7.102       91.719       69.234       41.423     8412.457     4793.314     1715.896        2.820        0.746      203.534       45.769        0.051      340.793       15.056      857.385
11/09/2014  22:59:00     -159.834      -20.239       -2.483       70.554       52.682       40.561     4977.826     2775.424     1645.168        1.768        0.470      161.111       35.971        0.050      340.803       15.075      857.380
11/09/2014  23:00:00     -152.750      -26.980       -4.923       67.160       79.635       44.585     4510.417     6341.749     1987.792        1.846        0.642      155.115       33.727        0.047      340.978       15.371      857.354
11/09/2014  23:01:00     -232.204      -30.634      -13.370       82.029       81.548       42.777     6728.783     6650.015     1829.915        3.512        0.760      234.216       39.381        0.028      341.135       15.635      857.373
11/09/2014  23:02:00     -238.471       -2.095      -15.992       95.449       74.818       53.208     9110.589     5597.738     2831.115        3.733        0.877      238.480       57.762        0.059      341.247       15.823      857.402
11/09/2014  23:03:00     -256.941        2.359      -24.791      117.074      115.468       57.717    13706.342    13332.765     3331.279        4.850        1.519      256.952       44.997        0.031      341.303       15.920      857.424
11/09/2014  23:04:00     -197.550       -0.981      -12.064       99.323       84.951       46.312     9865.042     7216.723     2144.848        2.920        0.961      197.553       45.895        0.054      341.293       15.904      857.458
11/09/2014  23:05:00     -197.895      -15.315      -18.786      109.604       80.011       51.371    12013.109     6401.685     2639.001        3.040        1.053      198.487       56.899        0.082      341.336       15.977      857.493
11/09/2014  23:06:00     -278.014      -55.785      -33.917      112.312      114.757       47.820    12614.040    13169.090     2286.799        5.481        1.403      283.556       38.855        0.019      341.462       16.187      857.536
11/09/2014  23:07:00      -69.432      -12.432        2.580       74.123       83.708       42.602     5494.245     7006.947     1814.920        0.965        0.716       70.537       43.009        0.372      341.253       15.839      857.554
11/09/2014  23:08:00      -43.133       51.375       -0.156       57.575       56.233       33.888     3314.905     3162.177     1148.389        0.606        0.381       67.081       29.498        0.193      341.328       15.964      857.585
11/09/2014  23:09:00       -4.687      102.394       -3.412       52.728       58.275       33.671     2780.292     3396.017     1133.716        0.891        0.366      102.501       34.348        0.112      341.277       15.879      857.620
11/09/2014  23:10:00       11.864       19.090        8.308       37.901       31.756       26.105     1436.484     1008.454      681.485        0.185        0.156       22.476       12.306        0.300      341.093       15.566      857.651
11/09/2014  23:11:00       40.998       24.299        7.641       29.191       55.038       26.954      852.131     3029.205      726.493        0.347        0.230       47.657       26.166        0.301      341.053       15.499      857.645
11/09/2014  23:12:00        3.394       87.452       14.760       44.246       59.167       30.743     1957.704     3500.764      945.153        0.714        0.320       87.518       18.973        0.047      340.991       15.393      857.668
11/09/2014  23:13:00        6.479       19.686        1.475       22.804       32.863       20.827      520.017     1079.950      433.764        0.123        0.102       20.725       13.553        0.428      340.974       15.365      857.689
11/09/2014  23:14:00       32.063       49.015       11.103       54.168       54.724       27.059     2934.218     2994.721      732.165        0.511        0.333       58.571       22.108        0.142      340.811       15.090      857.693
11/09/2014  23:15:00        7.808       46.578       -5.848       28.955       48.553       16.637      838.409     2357.428      276.782        0.287        0.174       47.228       18.787        0.158      340.726       14.946      857.708
11/09/2014  23:16:00       29.616      105.008      -12.449       45.989       63.399       33.068     2115.003     4019.403     1093.474        0.964        0.361      109.105       36.447        0.112      340.551       14.649      857.710
11/09/2014  23:17:00        1.842      192.359      -11.546       72.694      106.761       49.660     5284.365    11397.979     2466.096        2.814        0.957      192.368       42.377        0.049      340.444       14.467      857.707
11/09/2014  23:18:00        5.803      241.599      -28.704       73.967       83.961       45.418     5471.101     7049.430     2062.803        3.690        0.729      241.668       39.487        0.027      340.390       14.374      857.722
11/09/2014  23:19:00       70.481      115.104       -2.520       68.803       83.460       47.658     4733.799     6965.553     2271.332        1.609        0.699      134.969       38.630        0.082      340.275       14.183      857.746
11/09/2014  23:20:00       46.200       62.513       69.640       81.815       59.619       43.684     6693.737     3554.423     1908.303        1.152        0.608       77.732       31.992        0.169      340.083       13.858      857.698
11/09/2014  23:21:00       84.761      -12.616        2.952       58.182      113.060       48.814     3385.117    12782.633     2382.799        1.295        0.928       85.694       40.476        0.223      340.185       14.030      857.707
11/09/2014  23:22:00       74.833       42.785       46.707       72.324      107.185       61.724     5230.762    11488.708     3809.830        1.507        1.026       86.200       60.571        0.494      340.075       13.845      857.732
11/09/2014  23:23:00       38.508       57.322       11.560       32.696       48.829       45.062     1069.031     2384.240     2030.611        0.519        0.274       69.056       18.762        0.074      340.144       13.962      857.762
11/09/2014  23:24:00       37.293        5.356        7.923       37.704       53.061       27.510     1421.615     2815.515      756.789        0.324        0.250       37.676       21.033        0.312      339.967       13.662      857.781
11/09/2014  23:25:00       90.700       44.182       29.946       79.974       43.756       24.819     6395.860     1914.552      615.975        1.000        0.446      100.888       19.609        0.038      340.042       13.790      857.821
11/09/2014  23:26:00      112.623       66.079        9.340       36.902       42.255       34.440     1361.733     1785.522     1186.134        1.073        0.217      130.577       20.591        0.025      340.247       14.136      857.849
11/09/2014  23:27:00       57.170       46.473       23.811       26.686       20.426       25.837      712.130      417.205      667.546        0.390        0.090       73.675       15.210        0.043      340.120       13.921      857.825
11/09/2014  23:28:00      114.847       64.561       12.713       41.323       22.826       29.121     1707.609      521.031      848.016        1.030        0.154      131.750        5.512        0.002      340.103       13.893      857.797
11/09/2014  23:29:00       78.270       67.092        7.606       64.257       33.947       38.203     4128.971     1152.396     1459.465        0.871        0.337      103.090       22.420        0.047      339.972       13.670      857.760
11/09/2014  23:30:00       28.789       78.825      -13.306       23.815       35.303       17.769      567.132     1246.271      315.746        0.467        0.106       83.918       15.638        0.035      339.921       13.586      857.781
11/09/2014  23:31:00       16.477      106.262      -20.748       12.818       19.076       11.030      164.308      363.894      121.654        0.632        0.032      107.532        6.741        0.004      340.123       13.925      857.796
11/09/2014  23:32:00       67.184       90.033      -10.303       43.083       42.423       24.461     1856.146     1799.700      598.318        0.849        0.213      112.337       20.700        0.034      340.307       14.238      857.782
11/09/2014  23:33:00       74.753       39.475       21.512       52.112       33.272       24.361     2715.661     1107.058      593.447        0.601        0.221       84.535       17.544        0.043      340.333       14.280      857.756
11/09/2014  23:34:00      -84.642      133.323      -25.223       44.236       53.743       26.646     1956.814     2888.339      709.998        1.556        0.278      157.921       27.609        0.031      340.180       14.023      857.752
11/09/2014  23:35:00      -28.850      192.520      -25.008       61.358       97.969       42.500     3764.856     9597.994     1806.254        2.684        0.758      194.669       38.097        0.038      340.236       14.116      857.781
11/09/2014  23:36:00       10.961      105.746       -8.151       29.860       65.895       24.413      891.645     4342.116      596.013        0.860        0.291      106.313       23.938        0.051      340.244       14.131      857.769
11/09/2014  23:37:00       94.179       90.510       22.709       43.231       42.057       46.061     1868.925     1768.817     2121.603        1.167        0.288      130.621       36.736        0.079      340.137       13.950      857.720
11/09/2014  23:38:00      -74.138      149.679      -16.479       49.306       71.778       38.681     2431.085     5152.050     1496.202        1.862        0.454      167.033       40.820        0.060      339.945       13.625      857.688
11/09/2014  23:39:00     -109.767      173.796      -32.882       44.297       62.206       36.331     1962.230     3869.645     1319.956        2.524        0.358      205.557       25.152        0.015      340.104       13.891      857.687
11/09/2014  23:40:00     -134.556      181.819      -43.730       58.226       54.047       36.478     3390.230     2921.109     1330.678        3.036        0.382      226.193       33.596        0.022      340.094       13.876      857.680
11/09/2014  23:41:00      -58.336      174.326      -26.984       35.354       39.029       24.509     1249.885     1523.284      600.702        1.895        0.169      183.828       18.139        0.010      340.054       13.810      857.658
11/09/2014  23:42:00      -58.688      193.042      -27.741       63.916       84.459       36.123     4085.226     7133.242     1304.845        2.700        0.626      201.766       34.194        0.029      340.029       13.764      857.629
11/09/2014  23:43:00      -82.345      310.967      -33.709       68.023      141.768       44.717     4627.091    20098.216     1999.639        6.567        1.336      321.685       48.341        0.023      340.140       13.953      857.588
11/09/2014  23:44:00     -131.662      234.496      -38.194       78.034      118.460       43.637     6089.378    14032.888     1904.220        4.790        1.101      268.930       46.426        0.030      340.061       13.817      857.545
11/09/2014  23:45:00      -95.845      123.777      -26.838       61.596       80.778       32.977     3794.038     6525.094     1087.454        1.831        0.570      156.547       31.915        0.042      340.078       13.849      857.508
11/09/2014  23:46:00      -64.568       53.472        1.975       50.800      104.850       36.700     2580.624    10993.569     1346.915        1.097        0.746       83.835       44.641        0.284      340.106       13.897      857.461
11/09/2014  23:47:00     -113.188      111.602      -10.874       49.846       76.984       45.359     2484.633     5926.554     2057.482        1.792        0.523      158.955       35.770        0.051      339.996       13.710      857.449
11/09/2014  23:48:00      -99.145       62.406      -19.195       36.236       33.230       20.772     1313.015     1104.259      431.465        0.847        0.142      117.150       20.112        0.029      340.103       13.893      857.411
11/09/2014  23:49:00      -42.907       33.925       -2.108       38.310       29.605       18.547     1467.637      876.432      343.998        0.284        0.134       54.699       19.354        0.125      340.074       13.844      857.351
11/09/2014  23:50:00      -40.226      -19.618       -1.923       31.801       29.791       16.187     1011.319      887.520      262.030        0.208        0.108       44.755       13.649        0.093      339.977       13.680      857.339
11/09/2014  23:51:00     -117.735      -32.123      -11.221       36.326       34.108       14.622     1319.570     1163.349      213.809        0.886        0.135      122.039       14.293        0.014      339.969       13.666      857.319
11/09/2014  23:52:00     -173.425      -59.820       -8.845       34.286       36.879       16.479     1175.556     1360.060      271.550        1.827        0.140      183.452       12.335        0.005      339.882       13.521      857.325
11/09/2014  23:53:00      -67.866      -31.426        4.087       76.348       28.481       24.186     5828.970      811.185      584.978        0.642        0.361       74.788       33.661        0.203      339.814       13.406      857.309
11/09/2014  23:54:00      -60.215      -11.615       -0.978       32.917       20.359       16.783     1083.504      414.502      281.655        0.277        0.089       61.325       17.300        0.080      339.837       13.445      857.274
11/09/2014  23:55:00     -118.316      -41.362       -1.477       60.348       37.216       24.748     3641.884     1385.013      612.454        1.067        0.282      125.338       22.319        0.032      339.794       13.371      857.248
11/09/2014  23:56:00      -69.356      -46.377       -1.496       91.432       67.174       31.986     8359.841     4512.334     1023.134        1.043        0.695       83.433       37.835        0.206      339.648       13.125      857.235
11/09/2014  23:57:00     -142.608      -38.446      -13.025       48.371       40.033       25.894     2339.798     1602.653      670.486        1.330        0.231      147.699       21.525        0.021      339.628       13.090      857.241
11/09/2014  23:58:00      -32.301      -22.332       -3.487       53.718       20.045       16.604     2885.581      401.788      275.697        0.256        0.178       39.269       11.650        0.088      339.461       12.811      857.241
11/09/2014  23:59:00        5.533      -12.199       -8.443       16.683       14.552       11.054      278.333      211.760      122.191        0.043        0.031       13.395        2.224        0.028      339.633       13.100      857.231
